<?xml version="1.0" encoding="UTF-8" standalone="no" ?>
<gpx xmlns="http://www.topografix.com/GPX/1/1" xmlns:xsi="http://www.w3.org/2001/XMLSchema-instance" xsi:schemaLocation="http://www.topografix.com/GPX/1/1 http://www.topografix.com/GPX/1/1/gpx.xsd" version="1.1" creator="VisuGPX - https://www.visugpx.com">
  <metadata>
    <name>20180927_jeudiCrando_pas-de-Berrieves, Pas-De-La-Ville</name>
    <desc><![CDATA[

Belle randonnée en sur les crêtes au départ du col des Deux.
Montée par le Pas-de-Berrièves, Rocher de Séguret, Roche Rousse, jusqu'au pas-de-la-ville sous le regard indifférents de nombreux bouquetins. 
Descente vers Gresse-en-Vercors sous Pierre-Blanche et retour au col des Deux]]></desc>
  </metadata>
  <trk>
    <name><![CDATA[2018-09-27 16:41:27]]></name>
    <trkseg>
      <trkpt lat="44.91005" lon="5.55197">
        <ele>1319.07</ele>
        <time>2018-09-27T06:55:56Z</time>
      </trkpt>
      <trkpt lat="44.91005" lon="5.55197">
        <ele>1319.07</ele>
        <time>2018-09-27T06:55:57Z</time>
      </trkpt>
      <trkpt lat="44.91004" lon="5.55198">
        <ele>1231.59</ele>
        <time>2018-09-27T06:56:02Z</time>
      </trkpt>
      <trkpt lat="44.91004" lon="5.55199">
        <ele>1230.62</ele>
        <time>2018-09-27T06:56:06Z</time>
      </trkpt>
      <trkpt lat="44.91003" lon="5.55197">
        <ele>1230.14</ele>
        <time>2018-09-27T06:56:39Z</time>
      </trkpt>
      <trkpt lat="44.91004" lon="5.552">
        <ele>1230.14</ele>
        <time>2018-09-27T06:57:08Z</time>
      </trkpt>
      <trkpt lat="44.91007" lon="5.552">
        <ele>1229.66</ele>
        <time>2018-09-27T06:57:23Z</time>
      </trkpt>
      <trkpt lat="44.91005" lon="5.55198">
        <ele>1229.66</ele>
        <time>2018-09-27T06:57:53Z</time>
      </trkpt>
      <trkpt lat="44.91004" lon="5.55197">
        <ele>1231.11</ele>
        <time>2018-09-27T06:58:00Z</time>
      </trkpt>
      <trkpt lat="44.91003" lon="5.55198">
        <ele>1229.66</ele>
        <time>2018-09-27T06:58:21Z</time>
      </trkpt>
      <trkpt lat="44.91004" lon="5.55201">
        <ele>1229.66</ele>
        <time>2018-09-27T06:58:52Z</time>
      </trkpt>
      <trkpt lat="44.91003" lon="5.55195">
        <ele>1229.66</ele>
        <time>2018-09-27T06:59:21Z</time>
      </trkpt>
      <trkpt lat="44.91003" lon="5.55197">
        <ele>1229.66</ele>
        <time>2018-09-27T06:59:40Z</time>
      </trkpt>
      <trkpt lat="44.90999" lon="5.55205">
        <ele>1229.66</ele>
        <time>2018-09-27T06:59:57Z</time>
      </trkpt>
      <trkpt lat="44.9099" lon="5.55214">
        <ele>1229.18</ele>
        <time>2018-09-27T07:00:12Z</time>
      </trkpt>
      <trkpt lat="44.90987" lon="5.55217">
        <ele>1228.7</ele>
        <time>2018-09-27T07:00:16Z</time>
      </trkpt>
      <trkpt lat="44.90974" lon="5.55233">
        <ele>1228.22</ele>
        <time>2018-09-27T07:00:35Z</time>
      </trkpt>
      <trkpt lat="44.90963" lon="5.55245">
        <ele>1227.74</ele>
        <time>2018-09-27T07:00:49Z</time>
      </trkpt>
      <trkpt lat="44.90949" lon="5.55258">
        <ele>1226.78</ele>
        <time>2018-09-27T07:01:05Z</time>
      </trkpt>
      <trkpt lat="44.90935" lon="5.55274">
        <ele>1225.82</ele>
        <time>2018-09-27T07:01:21Z</time>
      </trkpt>
      <trkpt lat="44.90928" lon="5.55278">
        <ele>1224.86</ele>
        <time>2018-09-27T07:01:29Z</time>
      </trkpt>
      <trkpt lat="44.90921" lon="5.55265">
        <ele>1226.78</ele>
        <time>2018-09-27T07:01:45Z</time>
      </trkpt>
      <trkpt lat="44.90916" lon="5.55252">
        <ele>1229.18</ele>
        <time>2018-09-27T07:02:00Z</time>
      </trkpt>
      <trkpt lat="44.90914" lon="5.55238">
        <ele>1231.11</ele>
        <time>2018-09-27T07:02:15Z</time>
      </trkpt>
      <trkpt lat="44.90908" lon="5.55227">
        <ele>1233.51</ele>
        <time>2018-09-27T07:02:30Z</time>
      </trkpt>
      <trkpt lat="44.909" lon="5.55217">
        <ele>1236.39</ele>
        <time>2018-09-27T07:02:46Z</time>
      </trkpt>
      <trkpt lat="44.90895" lon="5.552">
        <ele>1238.32</ele>
        <time>2018-09-27T07:03:03Z</time>
      </trkpt>
      <trkpt lat="44.90895" lon="5.55181">
        <ele>1241.2</ele>
        <time>2018-09-27T07:03:19Z</time>
      </trkpt>
      <trkpt lat="44.90898" lon="5.55164">
        <ele>1244.08</ele>
        <time>2018-09-27T07:03:34Z</time>
      </trkpt>
      <trkpt lat="44.90901" lon="5.55146">
        <ele>1246.49</ele>
        <time>2018-09-27T07:03:49Z</time>
      </trkpt>
      <trkpt lat="44.90906" lon="5.55131">
        <ele>1248.89</ele>
        <time>2018-09-27T07:04:03Z</time>
      </trkpt>
      <trkpt lat="44.90915" lon="5.55115">
        <ele>1251.29</ele>
        <time>2018-09-27T07:04:18Z</time>
      </trkpt>
      <trkpt lat="44.90924" lon="5.55098">
        <ele>1253.7</ele>
        <time>2018-09-27T07:04:35Z</time>
      </trkpt>
      <trkpt lat="44.90933" lon="5.5508">
        <ele>1256.1</ele>
        <time>2018-09-27T07:04:52Z</time>
      </trkpt>
      <trkpt lat="44.90935" lon="5.55061">
        <ele>1258.02</ele>
        <time>2018-09-27T07:05:10Z</time>
      </trkpt>
      <trkpt lat="44.90936" lon="5.55043">
        <ele>1258.98</ele>
        <time>2018-09-27T07:05:25Z</time>
      </trkpt>
      <trkpt lat="44.90936" lon="5.5503">
        <ele>1259.46</ele>
        <time>2018-09-27T07:05:33Z</time>
      </trkpt>
      <trkpt lat="44.90934" lon="5.55007">
        <ele>1258.98</ele>
        <time>2018-09-27T07:05:49Z</time>
      </trkpt>
      <trkpt lat="44.90932" lon="5.55001">
        <ele>1258.02</ele>
        <time>2018-09-27T07:05:54Z</time>
      </trkpt>
      <trkpt lat="44.90931" lon="5.54996">
        <ele>1257.54</ele>
        <time>2018-09-27T07:05:58Z</time>
      </trkpt>
      <trkpt lat="44.90929" lon="5.54976">
        <ele>1256.1</ele>
        <time>2018-09-27T07:06:15Z</time>
      </trkpt>
      <trkpt lat="44.90929" lon="5.54952">
        <ele>1255.62</ele>
        <time>2018-09-27T07:06:31Z</time>
      </trkpt>
      <trkpt lat="44.90927" lon="5.54921">
        <ele>1255.62</ele>
        <time>2018-09-27T07:06:50Z</time>
      </trkpt>
      <trkpt lat="44.90916" lon="5.54897">
        <ele>1255.62</ele>
        <time>2018-09-27T07:07:07Z</time>
      </trkpt>
      <trkpt lat="44.90903" lon="5.54878">
        <ele>1255.62</ele>
        <time>2018-09-27T07:07:25Z</time>
      </trkpt>
      <trkpt lat="44.90895" lon="5.54865">
        <ele>1256.58</ele>
        <time>2018-09-27T07:07:36Z</time>
      </trkpt>
      <trkpt lat="44.90884" lon="5.54837">
        <ele>1257.54</ele>
        <time>2018-09-27T07:07:56Z</time>
      </trkpt>
      <trkpt lat="44.90874" lon="5.54815">
        <ele>1260.43</ele>
        <time>2018-09-27T07:08:14Z</time>
      </trkpt>
      <trkpt lat="44.90866" lon="5.5479">
        <ele>1262.83</ele>
        <time>2018-09-27T07:08:33Z</time>
      </trkpt>
      <trkpt lat="44.90865" lon="5.54777">
        <ele>1263.79</ele>
        <time>2018-09-27T07:08:47Z</time>
      </trkpt>
      <trkpt lat="44.90863" lon="5.54772">
        <ele>1264.27</ele>
        <time>2018-09-27T07:09:08Z</time>
      </trkpt>
      <trkpt lat="44.90862" lon="5.54769">
        <ele>1264.27</ele>
        <time>2018-09-27T07:09:22Z</time>
      </trkpt>
      <trkpt lat="44.90856" lon="5.54745">
        <ele>1265.71</ele>
        <time>2018-09-27T07:09:39Z</time>
      </trkpt>
      <trkpt lat="44.90852" lon="5.54731">
        <ele>1267.16</ele>
        <time>2018-09-27T07:09:51Z</time>
      </trkpt>
      <trkpt lat="44.90846" lon="5.54714">
        <ele>1269.08</ele>
        <time>2018-09-27T07:10:05Z</time>
      </trkpt>
      <trkpt lat="44.9084" lon="5.54695">
        <ele>1271</ele>
        <time>2018-09-27T07:10:20Z</time>
      </trkpt>
      <trkpt lat="44.90832" lon="5.54678">
        <ele>1272.92</ele>
        <time>2018-09-27T07:10:38Z</time>
      </trkpt>
      <trkpt lat="44.90824" lon="5.54651">
        <ele>1275.33</ele>
        <time>2018-09-27T07:10:57Z</time>
      </trkpt>
      <trkpt lat="44.90821" lon="5.54633">
        <ele>1277.73</ele>
        <time>2018-09-27T07:11:13Z</time>
      </trkpt>
      <trkpt lat="44.90819" lon="5.54621">
        <ele>1279.65</ele>
        <time>2018-09-27T07:11:29Z</time>
      </trkpt>
      <trkpt lat="44.90817" lon="5.54607">
        <ele>1281.09</ele>
        <time>2018-09-27T07:11:44Z</time>
      </trkpt>
      <trkpt lat="44.90812" lon="5.54596">
        <ele>1283.02</ele>
        <time>2018-09-27T07:11:59Z</time>
      </trkpt>
      <trkpt lat="44.90809" lon="5.54584">
        <ele>1283.98</ele>
        <time>2018-09-27T07:12:13Z</time>
      </trkpt>
      <trkpt lat="44.90807" lon="5.54571">
        <ele>1285.42</ele>
        <time>2018-09-27T07:12:32Z</time>
      </trkpt>
      <trkpt lat="44.90804" lon="5.54552">
        <ele>1287.34</ele>
        <time>2018-09-27T07:12:51Z</time>
      </trkpt>
      <trkpt lat="44.90804" lon="5.54531">
        <ele>1290.23</ele>
        <time>2018-09-27T07:13:08Z</time>
      </trkpt>
      <trkpt lat="44.90803" lon="5.54515">
        <ele>1292.63</ele>
        <time>2018-09-27T07:13:23Z</time>
      </trkpt>
      <trkpt lat="44.90798" lon="5.54502">
        <ele>1294.55</ele>
        <time>2018-09-27T07:13:39Z</time>
      </trkpt>
      <trkpt lat="44.90794" lon="5.54482">
        <ele>1296.96</ele>
        <time>2018-09-27T07:13:58Z</time>
      </trkpt>
      <trkpt lat="44.90793" lon="5.54464">
        <ele>1299.36</ele>
        <time>2018-09-27T07:14:13Z</time>
      </trkpt>
      <trkpt lat="44.90794" lon="5.54444">
        <ele>1301.76</ele>
        <time>2018-09-27T07:14:31Z</time>
      </trkpt>
      <trkpt lat="44.90795" lon="5.54427">
        <ele>1304.17</ele>
        <time>2018-09-27T07:14:45Z</time>
      </trkpt>
      <trkpt lat="44.90795" lon="5.54405">
        <ele>1307.53</ele>
        <time>2018-09-27T07:15:04Z</time>
      </trkpt>
      <trkpt lat="44.90796" lon="5.54382">
        <ele>1310.41</ele>
        <time>2018-09-27T07:15:24Z</time>
      </trkpt>
      <trkpt lat="44.90797" lon="5.54365">
        <ele>1312.34</ele>
        <time>2018-09-27T07:15:39Z</time>
      </trkpt>
      <trkpt lat="44.90796" lon="5.54351">
        <ele>1315.7</ele>
        <time>2018-09-27T07:15:56Z</time>
      </trkpt>
      <trkpt lat="44.90793" lon="5.54328">
        <ele>1318.59</ele>
        <time>2018-09-27T07:16:17Z</time>
      </trkpt>
      <trkpt lat="44.90789" lon="5.54308">
        <ele>1321.47</ele>
        <time>2018-09-27T07:16:36Z</time>
      </trkpt>
      <trkpt lat="44.90783" lon="5.54288">
        <ele>1324.35</ele>
        <time>2018-09-27T07:16:56Z</time>
      </trkpt>
      <trkpt lat="44.90776" lon="5.54274">
        <ele>1326.76</ele>
        <time>2018-09-27T07:17:15Z</time>
      </trkpt>
      <trkpt lat="44.9077" lon="5.54265">
        <ele>1327.72</ele>
        <time>2018-09-27T07:17:36Z</time>
      </trkpt>
      <trkpt lat="44.90766" lon="5.54255">
        <ele>1328.2</ele>
        <time>2018-09-27T07:18:07Z</time>
      </trkpt>
      <trkpt lat="44.90769" lon="5.5425">
        <ele>1328.68</ele>
        <time>2018-09-27T07:18:35Z</time>
      </trkpt>
      <trkpt lat="44.90772" lon="5.54243">
        <ele>1329.16</ele>
        <time>2018-09-27T07:19:14Z</time>
      </trkpt>
      <trkpt lat="44.90775" lon="5.54244">
        <ele>1327.72</ele>
        <time>2018-09-27T07:19:43Z</time>
      </trkpt>
      <trkpt lat="44.90775" lon="5.54243">
        <ele>1329.16</ele>
        <time>2018-09-27T07:19:46Z</time>
      </trkpt>
      <trkpt lat="44.90774" lon="5.54242">
        <ele>1329.64</ele>
        <time>2018-09-27T07:20:20Z</time>
      </trkpt>
      <trkpt lat="44.9077" lon="5.54241">
        <ele>1329.64</ele>
        <time>2018-09-27T07:20:51Z</time>
      </trkpt>
      <trkpt lat="44.90764" lon="5.54239">
        <ele>1331.08</ele>
        <time>2018-09-27T07:21:09Z</time>
      </trkpt>
      <trkpt lat="44.90757" lon="5.5423">
        <ele>1332.52</ele>
        <time>2018-09-27T07:21:23Z</time>
      </trkpt>
      <trkpt lat="44.90751" lon="5.54217">
        <ele>1335.41</ele>
        <time>2018-09-27T07:21:38Z</time>
      </trkpt>
      <trkpt lat="44.90744" lon="5.54192">
        <ele>1337.33</ele>
        <time>2018-09-27T07:21:55Z</time>
      </trkpt>
      <trkpt lat="44.90748" lon="5.54172">
        <ele>1338.29</ele>
        <time>2018-09-27T07:22:12Z</time>
      </trkpt>
      <trkpt lat="44.90749" lon="5.54151">
        <ele>1338.77</ele>
        <time>2018-09-27T07:22:27Z</time>
      </trkpt>
      <trkpt lat="44.90756" lon="5.5412">
        <ele>1340.22</ele>
        <time>2018-09-27T07:22:45Z</time>
      </trkpt>
      <trkpt lat="44.90754" lon="5.54101">
        <ele>1341.66</ele>
        <time>2018-09-27T07:23:01Z</time>
      </trkpt>
      <trkpt lat="44.90751" lon="5.54083">
        <ele>1343.58</ele>
        <time>2018-09-27T07:23:17Z</time>
      </trkpt>
      <trkpt lat="44.90751" lon="5.54064">
        <ele>1345.02</ele>
        <time>2018-09-27T07:23:33Z</time>
      </trkpt>
      <trkpt lat="44.90754" lon="5.54044">
        <ele>1346.94</ele>
        <time>2018-09-27T07:23:50Z</time>
      </trkpt>
      <trkpt lat="44.90753" lon="5.54024">
        <ele>1347.91</ele>
        <time>2018-09-27T07:24:07Z</time>
      </trkpt>
      <trkpt lat="44.90752" lon="5.54014">
        <ele>1348.87</ele>
        <time>2018-09-27T07:24:20Z</time>
      </trkpt>
      <trkpt lat="44.90747" lon="5.54001">
        <ele>1349.83</ele>
        <time>2018-09-27T07:24:32Z</time>
      </trkpt>
      <trkpt lat="44.90741" lon="5.53981">
        <ele>1350.31</ele>
        <time>2018-09-27T07:24:50Z</time>
      </trkpt>
      <trkpt lat="44.90735" lon="5.53966">
        <ele>1351.27</ele>
        <time>2018-09-27T07:25:05Z</time>
      </trkpt>
      <trkpt lat="44.90731" lon="5.53948">
        <ele>1352.71</ele>
        <time>2018-09-27T07:25:18Z</time>
      </trkpt>
      <trkpt lat="44.90728" lon="5.5393">
        <ele>1355.12</ele>
        <time>2018-09-27T07:25:36Z</time>
      </trkpt>
      <trkpt lat="44.90726" lon="5.53913">
        <ele>1356.56</ele>
        <time>2018-09-27T07:25:53Z</time>
      </trkpt>
      <trkpt lat="44.90729" lon="5.53888">
        <ele>1359.44</ele>
        <time>2018-09-27T07:26:13Z</time>
      </trkpt>
      <trkpt lat="44.90738" lon="5.53867">
        <ele>1359.92</ele>
        <time>2018-09-27T07:26:30Z</time>
      </trkpt>
      <trkpt lat="44.90749" lon="5.53848">
        <ele>1360.88</ele>
        <time>2018-09-27T07:26:46Z</time>
      </trkpt>
      <trkpt lat="44.90756" lon="5.53836">
        <ele>1361.84</ele>
        <time>2018-09-27T07:26:55Z</time>
      </trkpt>
      <trkpt lat="44.90761" lon="5.53812">
        <ele>1363.29</ele>
        <time>2018-09-27T07:27:09Z</time>
      </trkpt>
      <trkpt lat="44.90762" lon="5.53801">
        <ele>1363.77</ele>
        <time>2018-09-27T07:27:16Z</time>
      </trkpt>
      <trkpt lat="44.90757" lon="5.53787">
        <ele>1365.69</ele>
        <time>2018-09-27T07:27:33Z</time>
      </trkpt>
      <trkpt lat="44.90756" lon="5.53787">
        <ele>1365.69</ele>
        <time>2018-09-27T07:27:35Z</time>
      </trkpt>
      <trkpt lat="44.90745" lon="5.53783">
        <ele>1368.09</ele>
        <time>2018-09-27T07:27:51Z</time>
      </trkpt>
      <trkpt lat="44.90734" lon="5.53778">
        <ele>1370.98</ele>
        <time>2018-09-27T07:28:09Z</time>
      </trkpt>
      <trkpt lat="44.90727" lon="5.53763">
        <ele>1372.9</ele>
        <time>2018-09-27T07:28:27Z</time>
      </trkpt>
      <trkpt lat="44.90722" lon="5.5375">
        <ele>1375.78</ele>
        <time>2018-09-27T07:28:43Z</time>
      </trkpt>
      <trkpt lat="44.90716" lon="5.5373">
        <ele>1378.67</ele>
        <time>2018-09-27T07:29:02Z</time>
      </trkpt>
      <trkpt lat="44.90712" lon="5.53716">
        <ele>1380.59</ele>
        <time>2018-09-27T07:29:19Z</time>
      </trkpt>
      <trkpt lat="44.90711" lon="5.537">
        <ele>1382.99</ele>
        <time>2018-09-27T07:29:34Z</time>
      </trkpt>
      <trkpt lat="44.90711" lon="5.53685">
        <ele>1385.4</ele>
        <time>2018-09-27T07:29:51Z</time>
      </trkpt>
      <trkpt lat="44.90708" lon="5.53674">
        <ele>1387.8</ele>
        <time>2018-09-27T07:30:08Z</time>
      </trkpt>
      <trkpt lat="44.90712" lon="5.53659">
        <ele>1391.17</ele>
        <time>2018-09-27T07:30:23Z</time>
      </trkpt>
      <trkpt lat="44.90717" lon="5.53641">
        <ele>1394.53</ele>
        <time>2018-09-27T07:30:42Z</time>
      </trkpt>
      <trkpt lat="44.90723" lon="5.53625">
        <ele>1395.97</ele>
        <time>2018-09-27T07:30:59Z</time>
      </trkpt>
      <trkpt lat="44.90738" lon="5.53611">
        <ele>1397.41</ele>
        <time>2018-09-27T07:31:16Z</time>
      </trkpt>
      <trkpt lat="44.90748" lon="5.53595">
        <ele>1398.86</ele>
        <time>2018-09-27T07:31:32Z</time>
      </trkpt>
      <trkpt lat="44.90753" lon="5.53579">
        <ele>1401.26</ele>
        <time>2018-09-27T07:31:49Z</time>
      </trkpt>
      <trkpt lat="44.90761" lon="5.53564">
        <ele>1402.7</ele>
        <time>2018-09-27T07:32:07Z</time>
      </trkpt>
      <trkpt lat="44.90757" lon="5.53548">
        <ele>1405.1</ele>
        <time>2018-09-27T07:32:23Z</time>
      </trkpt>
      <trkpt lat="44.90752" lon="5.5354">
        <ele>1407.03</ele>
        <time>2018-09-27T07:32:38Z</time>
      </trkpt>
      <trkpt lat="44.90746" lon="5.53528">
        <ele>1407.99</ele>
        <time>2018-09-27T07:32:53Z</time>
      </trkpt>
      <trkpt lat="44.90745" lon="5.53512">
        <ele>1409.91</ele>
        <time>2018-09-27T07:33:10Z</time>
      </trkpt>
      <trkpt lat="44.90744" lon="5.5349">
        <ele>1411.83</ele>
        <time>2018-09-27T07:33:29Z</time>
      </trkpt>
      <trkpt lat="44.90751" lon="5.53466">
        <ele>1413.28</ele>
        <time>2018-09-27T07:33:44Z</time>
      </trkpt>
      <trkpt lat="44.90754" lon="5.53455">
        <ele>1415.68</ele>
        <time>2018-09-27T07:33:57Z</time>
      </trkpt>
      <trkpt lat="44.90754" lon="5.53442">
        <ele>1416.64</ele>
        <time>2018-09-27T07:34:12Z</time>
      </trkpt>
      <trkpt lat="44.90747" lon="5.53429">
        <ele>1418.08</ele>
        <time>2018-09-27T07:34:29Z</time>
      </trkpt>
      <trkpt lat="44.90739" lon="5.53426">
        <ele>1419.04</ele>
        <time>2018-09-27T07:34:43Z</time>
      </trkpt>
      <trkpt lat="44.90732" lon="5.53416">
        <ele>1421.45</ele>
        <time>2018-09-27T07:34:59Z</time>
      </trkpt>
      <trkpt lat="44.90724" lon="5.53412">
        <ele>1423.37</ele>
        <time>2018-09-27T07:35:15Z</time>
      </trkpt>
      <trkpt lat="44.90712" lon="5.53407">
        <ele>1424.33</ele>
        <time>2018-09-27T07:35:30Z</time>
      </trkpt>
      <trkpt lat="44.90706" lon="5.53393">
        <ele>1427.21</ele>
        <time>2018-09-27T07:35:48Z</time>
      </trkpt>
      <trkpt lat="44.90705" lon="5.53385">
        <ele>1429.62</ele>
        <time>2018-09-27T07:36:03Z</time>
      </trkpt>
      <trkpt lat="44.90703" lon="5.5337">
        <ele>1432.5</ele>
        <time>2018-09-27T07:36:17Z</time>
      </trkpt>
      <trkpt lat="44.90702" lon="5.53354">
        <ele>1434.91</ele>
        <time>2018-09-27T07:36:32Z</time>
      </trkpt>
      <trkpt lat="44.90706" lon="5.53335">
        <ele>1437.31</ele>
        <time>2018-09-27T07:36:51Z</time>
      </trkpt>
      <trkpt lat="44.90709" lon="5.53321">
        <ele>1440.19</ele>
        <time>2018-09-27T07:37:12Z</time>
      </trkpt>
      <trkpt lat="44.90716" lon="5.53308">
        <ele>1442.6</ele>
        <time>2018-09-27T07:37:30Z</time>
      </trkpt>
      <trkpt lat="44.90722" lon="5.53299">
        <ele>1444.52</ele>
        <time>2018-09-27T07:37:45Z</time>
      </trkpt>
      <trkpt lat="44.90734" lon="5.53286">
        <ele>1447.4</ele>
        <time>2018-09-27T07:38:02Z</time>
      </trkpt>
      <trkpt lat="44.90737" lon="5.5328">
        <ele>1449.81</ele>
        <time>2018-09-27T07:38:19Z</time>
      </trkpt>
      <trkpt lat="44.90746" lon="5.53271">
        <ele>1452.69</ele>
        <time>2018-09-27T07:38:33Z</time>
      </trkpt>
      <trkpt lat="44.9075" lon="5.53257">
        <ele>1455.09</ele>
        <time>2018-09-27T07:38:50Z</time>
      </trkpt>
      <trkpt lat="44.90753" lon="5.53247">
        <ele>1457.98</ele>
        <time>2018-09-27T07:39:03Z</time>
      </trkpt>
      <trkpt lat="44.90755" lon="5.53235">
        <ele>1460.86</ele>
        <time>2018-09-27T07:39:20Z</time>
      </trkpt>
      <trkpt lat="44.90756" lon="5.53224">
        <ele>1463.26</ele>
        <time>2018-09-27T07:39:34Z</time>
      </trkpt>
      <trkpt lat="44.90757" lon="5.53216">
        <ele>1465.67</ele>
        <time>2018-09-27T07:39:51Z</time>
      </trkpt>
      <trkpt lat="44.90755" lon="5.53204">
        <ele>1469.03</ele>
        <time>2018-09-27T07:40:08Z</time>
      </trkpt>
      <trkpt lat="44.90756" lon="5.53188">
        <ele>1471.92</ele>
        <time>2018-09-27T07:40:25Z</time>
      </trkpt>
      <trkpt lat="44.9076" lon="5.53175">
        <ele>1474.8</ele>
        <time>2018-09-27T07:40:40Z</time>
      </trkpt>
      <trkpt lat="44.90762" lon="5.53164">
        <ele>1477.68</ele>
        <time>2018-09-27T07:40:56Z</time>
      </trkpt>
      <trkpt lat="44.90764" lon="5.5315">
        <ele>1480.57</ele>
        <time>2018-09-27T07:41:12Z</time>
      </trkpt>
      <trkpt lat="44.90765" lon="5.53148">
        <ele>1480.09</ele>
        <time>2018-09-27T07:41:20Z</time>
      </trkpt>
      <trkpt lat="44.90768" lon="5.53146">
        <ele>1482.97</ele>
        <time>2018-09-27T07:41:26Z</time>
      </trkpt>
      <trkpt lat="44.90768" lon="5.53145">
        <ele>1479.61</ele>
        <time>2018-09-27T07:41:28Z</time>
      </trkpt>
      <trkpt lat="44.90768" lon="5.53144">
        <ele>1479.61</ele>
        <time>2018-09-27T07:41:29Z</time>
      </trkpt>
      <trkpt lat="44.90767" lon="5.53142">
        <ele>1480.57</ele>
        <time>2018-09-27T07:41:33Z</time>
      </trkpt>
      <trkpt lat="44.90768" lon="5.53139">
        <ele>1481.05</ele>
        <time>2018-09-27T07:42:05Z</time>
      </trkpt>
      <trkpt lat="44.90765" lon="5.53135">
        <ele>1481.05</ele>
        <time>2018-09-27T07:42:27Z</time>
      </trkpt>
      <trkpt lat="44.90765" lon="5.53136">
        <ele>1482.49</ele>
        <time>2018-09-27T07:42:32Z</time>
      </trkpt>
      <trkpt lat="44.90766" lon="5.53135">
        <ele>1481.05</ele>
        <time>2018-09-27T07:42:34Z</time>
      </trkpt>
      <trkpt lat="44.90767" lon="5.53134">
        <ele>1482.49</ele>
        <time>2018-09-27T07:42:42Z</time>
      </trkpt>
      <trkpt lat="44.90766" lon="5.53128">
        <ele>1483.45</ele>
        <time>2018-09-27T07:43:08Z</time>
      </trkpt>
      <trkpt lat="44.90771" lon="5.53129">
        <ele>1483.45</ele>
        <time>2018-09-27T07:43:36Z</time>
      </trkpt>
      <trkpt lat="44.90773" lon="5.53123">
        <ele>1483.93</ele>
        <time>2018-09-27T07:44:20Z</time>
      </trkpt>
      <trkpt lat="44.90773" lon="5.53116">
        <ele>1483.93</ele>
        <time>2018-09-27T07:45:05Z</time>
      </trkpt>
      <trkpt lat="44.90767" lon="5.53127">
        <ele>1484.41</ele>
        <time>2018-09-27T07:45:41Z</time>
      </trkpt>
      <trkpt lat="44.90771" lon="5.53128">
        <ele>1484.89</ele>
        <time>2018-09-27T07:46:14Z</time>
      </trkpt>
      <trkpt lat="44.90772" lon="5.53131">
        <ele>1483.93</ele>
        <time>2018-09-27T07:46:24Z</time>
      </trkpt>
      <trkpt lat="44.90771" lon="5.53134">
        <ele>1483.93</ele>
        <time>2018-09-27T07:46:56Z</time>
      </trkpt>
      <trkpt lat="44.90767" lon="5.53131">
        <ele>1483.93</ele>
        <time>2018-09-27T07:47:36Z</time>
      </trkpt>
      <trkpt lat="44.9077" lon="5.53132">
        <ele>1483.93</ele>
        <time>2018-09-27T07:48:11Z</time>
      </trkpt>
      <trkpt lat="44.90773" lon="5.53128">
        <ele>1483.93</ele>
        <time>2018-09-27T07:48:49Z</time>
      </trkpt>
      <trkpt lat="44.90775" lon="5.53121">
        <ele>1484.89</ele>
        <time>2018-09-27T07:49:18Z</time>
      </trkpt>
      <trkpt lat="44.90778" lon="5.53116">
        <ele>1487.3</ele>
        <time>2018-09-27T07:49:36Z</time>
      </trkpt>
      <trkpt lat="44.9078" lon="5.53104">
        <ele>1490.18</ele>
        <time>2018-09-27T07:49:56Z</time>
      </trkpt>
      <trkpt lat="44.90784" lon="5.53092">
        <ele>1491.62</ele>
        <time>2018-09-27T07:50:14Z</time>
      </trkpt>
      <trkpt lat="44.90789" lon="5.53083">
        <ele>1493.06</ele>
        <time>2018-09-27T07:50:33Z</time>
      </trkpt>
      <trkpt lat="44.9079" lon="5.53076">
        <ele>1496.43</ele>
        <time>2018-09-27T07:50:49Z</time>
      </trkpt>
      <trkpt lat="44.90788" lon="5.5307">
        <ele>1498.83</ele>
        <time>2018-09-27T07:51:04Z</time>
      </trkpt>
      <trkpt lat="44.90784" lon="5.53068">
        <ele>1500.27</ele>
        <time>2018-09-27T07:51:17Z</time>
      </trkpt>
      <trkpt lat="44.90777" lon="5.53065">
        <ele>1501.72</ele>
        <time>2018-09-27T07:51:31Z</time>
      </trkpt>
      <trkpt lat="44.90769" lon="5.53059">
        <ele>1504.6</ele>
        <time>2018-09-27T07:51:50Z</time>
      </trkpt>
      <trkpt lat="44.90763" lon="5.53048">
        <ele>1506.52</ele>
        <time>2018-09-27T07:52:08Z</time>
      </trkpt>
      <trkpt lat="44.90762" lon="5.53032">
        <ele>1509.41</ele>
        <time>2018-09-27T07:52:25Z</time>
      </trkpt>
      <trkpt lat="44.90765" lon="5.5302">
        <ele>1510.85</ele>
        <time>2018-09-27T07:52:38Z</time>
      </trkpt>
      <trkpt lat="44.90773" lon="5.53017">
        <ele>1513.25</ele>
        <time>2018-09-27T07:52:52Z</time>
      </trkpt>
      <trkpt lat="44.90779" lon="5.53012">
        <ele>1516.62</ele>
        <time>2018-09-27T07:53:08Z</time>
      </trkpt>
      <trkpt lat="44.90781" lon="5.53008">
        <ele>1518.06</ele>
        <time>2018-09-27T07:53:23Z</time>
      </trkpt>
      <trkpt lat="44.90779" lon="5.53007">
        <ele>1519.98</ele>
        <time>2018-09-27T07:53:40Z</time>
      </trkpt>
      <trkpt lat="44.90779" lon="5.52998">
        <ele>1522.87</ele>
        <time>2018-09-27T07:53:55Z</time>
      </trkpt>
      <trkpt lat="44.90781" lon="5.52986">
        <ele>1525.27</ele>
        <time>2018-09-27T07:54:11Z</time>
      </trkpt>
      <trkpt lat="44.90788" lon="5.52981">
        <ele>1527.67</ele>
        <time>2018-09-27T07:54:26Z</time>
      </trkpt>
      <trkpt lat="44.90793" lon="5.52975">
        <ele>1530.56</ele>
        <time>2018-09-27T07:54:43Z</time>
      </trkpt>
      <trkpt lat="44.90793" lon="5.52974">
        <ele>1532.48</ele>
        <time>2018-09-27T07:54:59Z</time>
      </trkpt>
      <trkpt lat="44.90793" lon="5.5297">
        <ele>1534.4</ele>
        <time>2018-09-27T07:55:13Z</time>
      </trkpt>
      <trkpt lat="44.90794" lon="5.52965">
        <ele>1536.32</ele>
        <time>2018-09-27T07:55:24Z</time>
      </trkpt>
      <trkpt lat="44.90796" lon="5.52958">
        <ele>1539.21</ele>
        <time>2018-09-27T07:55:39Z</time>
      </trkpt>
      <trkpt lat="44.90797" lon="5.5295">
        <ele>1540.17</ele>
        <time>2018-09-27T07:55:57Z</time>
      </trkpt>
      <trkpt lat="44.90797" lon="5.52949">
        <ele>1541.61</ele>
        <time>2018-09-27T07:55:59Z</time>
      </trkpt>
      <trkpt lat="44.90798" lon="5.52942">
        <ele>1543.53</ele>
        <time>2018-09-27T07:56:14Z</time>
      </trkpt>
      <trkpt lat="44.90796" lon="5.52931">
        <ele>1546.9</ele>
        <time>2018-09-27T07:56:30Z</time>
      </trkpt>
      <trkpt lat="44.90794" lon="5.52923">
        <ele>1548.34</ele>
        <time>2018-09-27T07:56:46Z</time>
      </trkpt>
      <trkpt lat="44.90789" lon="5.52925">
        <ele>1548.82</ele>
        <time>2018-09-27T07:57:09Z</time>
      </trkpt>
      <trkpt lat="44.90773" lon="5.52924">
        <ele>1548.34</ele>
        <time>2018-09-27T07:57:31Z</time>
      </trkpt>
      <trkpt lat="44.90782" lon="5.52923">
        <ele>1547.86</ele>
        <time>2018-09-27T07:57:54Z</time>
      </trkpt>
      <trkpt lat="44.9079" lon="5.52918">
        <ele>1548.82</ele>
        <time>2018-09-27T07:58:15Z</time>
      </trkpt>
      <trkpt lat="44.90801" lon="5.52911">
        <ele>1551.71</ele>
        <time>2018-09-27T07:58:31Z</time>
      </trkpt>
      <trkpt lat="44.90812" lon="5.52907">
        <ele>1554.59</ele>
        <time>2018-09-27T07:58:47Z</time>
      </trkpt>
      <trkpt lat="44.90822" lon="5.52904">
        <ele>1556.99</ele>
        <time>2018-09-27T07:59:04Z</time>
      </trkpt>
      <trkpt lat="44.90839" lon="5.52898">
        <ele>1558.43</ele>
        <time>2018-09-27T07:59:21Z</time>
      </trkpt>
      <trkpt lat="44.90849" lon="5.52896">
        <ele>1561.32</ele>
        <time>2018-09-27T07:59:39Z</time>
      </trkpt>
      <trkpt lat="44.9086" lon="5.52901">
        <ele>1563.72</ele>
        <time>2018-09-27T07:59:54Z</time>
      </trkpt>
      <trkpt lat="44.90867" lon="5.52905">
        <ele>1566.12</ele>
        <time>2018-09-27T08:00:07Z</time>
      </trkpt>
      <trkpt lat="44.90872" lon="5.5291">
        <ele>1569.01</ele>
        <time>2018-09-27T08:00:22Z</time>
      </trkpt>
      <trkpt lat="44.90869" lon="5.52898">
        <ele>1571.41</ele>
        <time>2018-09-27T08:00:37Z</time>
      </trkpt>
      <trkpt lat="44.90869" lon="5.52895">
        <ele>1571.41</ele>
        <time>2018-09-27T08:00:43Z</time>
      </trkpt>
      <trkpt lat="44.90874" lon="5.52888">
        <ele>1574.78</ele>
        <time>2018-09-27T08:00:59Z</time>
      </trkpt>
      <trkpt lat="44.90879" lon="5.52886">
        <ele>1576.7</ele>
        <time>2018-09-27T08:01:13Z</time>
      </trkpt>
      <trkpt lat="44.90888" lon="5.52886">
        <ele>1579.58</ele>
        <time>2018-09-27T08:01:28Z</time>
      </trkpt>
      <trkpt lat="44.90895" lon="5.5289">
        <ele>1582.47</ele>
        <time>2018-09-27T08:01:43Z</time>
      </trkpt>
      <trkpt lat="44.90902" lon="5.52891">
        <ele>1585.35</ele>
        <time>2018-09-27T08:01:58Z</time>
      </trkpt>
      <trkpt lat="44.90905" lon="5.52888">
        <ele>1587.27</ele>
        <time>2018-09-27T08:02:11Z</time>
      </trkpt>
      <trkpt lat="44.90905" lon="5.5288">
        <ele>1590.64</ele>
        <time>2018-09-27T08:02:25Z</time>
      </trkpt>
      <trkpt lat="44.90904" lon="5.5287">
        <ele>1592.08</ele>
        <time>2018-09-27T08:02:38Z</time>
      </trkpt>
      <trkpt lat="44.90912" lon="5.52859">
        <ele>1595.45</ele>
        <time>2018-09-27T08:02:53Z</time>
      </trkpt>
      <trkpt lat="44.90921" lon="5.52862">
        <ele>1597.85</ele>
        <time>2018-09-27T08:03:09Z</time>
      </trkpt>
      <trkpt lat="44.90923" lon="5.52861">
        <ele>1598.81</ele>
        <time>2018-09-27T08:03:23Z</time>
      </trkpt>
      <trkpt lat="44.9093" lon="5.52864">
        <ele>1601.69</ele>
        <time>2018-09-27T08:03:37Z</time>
      </trkpt>
      <trkpt lat="44.90934" lon="5.52865">
        <ele>1603.62</ele>
        <time>2018-09-27T08:03:45Z</time>
      </trkpt>
      <trkpt lat="44.90941" lon="5.52868">
        <ele>1606.5</ele>
        <time>2018-09-27T08:03:58Z</time>
      </trkpt>
      <trkpt lat="44.90945" lon="5.52874">
        <ele>1608.42</ele>
        <time>2018-09-27T08:04:10Z</time>
      </trkpt>
      <trkpt lat="44.9095" lon="5.52876">
        <ele>1611.31</ele>
        <time>2018-09-27T08:04:25Z</time>
      </trkpt>
      <trkpt lat="44.90947" lon="5.5287">
        <ele>1613.71</ele>
        <time>2018-09-27T08:04:41Z</time>
      </trkpt>
      <trkpt lat="44.90949" lon="5.52861">
        <ele>1616.11</ele>
        <time>2018-09-27T08:04:58Z</time>
      </trkpt>
      <trkpt lat="44.90958" lon="5.52858">
        <ele>1619</ele>
        <time>2018-09-27T08:05:13Z</time>
      </trkpt>
      <trkpt lat="44.90965" lon="5.52861">
        <ele>1620.92</ele>
        <time>2018-09-27T08:05:27Z</time>
      </trkpt>
      <trkpt lat="44.90971" lon="5.52866">
        <ele>1623.32</ele>
        <time>2018-09-27T08:05:44Z</time>
      </trkpt>
      <trkpt lat="44.90977" lon="5.52873">
        <ele>1625.73</ele>
        <time>2018-09-27T08:06:01Z</time>
      </trkpt>
      <trkpt lat="44.90984" lon="5.52875">
        <ele>1628.13</ele>
        <time>2018-09-27T08:06:15Z</time>
      </trkpt>
      <trkpt lat="44.90986" lon="5.52874">
        <ele>1629.57</ele>
        <time>2018-09-27T08:06:23Z</time>
      </trkpt>
      <trkpt lat="44.90993" lon="5.52883">
        <ele>1631.01</ele>
        <time>2018-09-27T08:06:38Z</time>
      </trkpt>
      <trkpt lat="44.91" lon="5.52886">
        <ele>1633.9</ele>
        <time>2018-09-27T08:06:52Z</time>
      </trkpt>
      <trkpt lat="44.91002" lon="5.52887">
        <ele>1634.38</ele>
        <time>2018-09-27T08:07:17Z</time>
      </trkpt>
      <trkpt lat="44.91001" lon="5.52885">
        <ele>1634.38</ele>
        <time>2018-09-27T08:07:26Z</time>
      </trkpt>
      <trkpt lat="44.91" lon="5.52875">
        <ele>1636.3</ele>
        <time>2018-09-27T08:07:42Z</time>
      </trkpt>
      <trkpt lat="44.90999" lon="5.5286">
        <ele>1639.67</ele>
        <time>2018-09-27T08:07:59Z</time>
      </trkpt>
      <trkpt lat="44.90999" lon="5.52845">
        <ele>1642.07</ele>
        <time>2018-09-27T08:08:15Z</time>
      </trkpt>
      <trkpt lat="44.91006" lon="5.52841">
        <ele>1644.95</ele>
        <time>2018-09-27T08:08:28Z</time>
      </trkpt>
      <trkpt lat="44.9101" lon="5.52838">
        <ele>1645.91</ele>
        <time>2018-09-27T08:08:43Z</time>
      </trkpt>
      <trkpt lat="44.9101" lon="5.52836">
        <ele>1646.88</ele>
        <time>2018-09-27T08:09:04Z</time>
      </trkpt>
      <trkpt lat="44.91012" lon="5.52835">
        <ele>1646.88</ele>
        <time>2018-09-27T08:09:22Z</time>
      </trkpt>
      <trkpt lat="44.91009" lon="5.52836">
        <ele>1645.43</ele>
        <time>2018-09-27T08:09:40Z</time>
      </trkpt>
      <trkpt lat="44.91009" lon="5.52837">
        <ele>1645.43</ele>
        <time>2018-09-27T08:10:05Z</time>
      </trkpt>
      <trkpt lat="44.91008" lon="5.52837">
        <ele>1645.43</ele>
        <time>2018-09-27T08:10:29Z</time>
      </trkpt>
      <trkpt lat="44.91008" lon="5.52835">
        <ele>1645.43</ele>
        <time>2018-09-27T08:10:50Z</time>
      </trkpt>
      <trkpt lat="44.91012" lon="5.52835">
        <ele>1644.95</ele>
        <time>2018-09-27T08:11:24Z</time>
      </trkpt>
      <trkpt lat="44.91013" lon="5.52832">
        <ele>1644.95</ele>
        <time>2018-09-27T08:11:56Z</time>
      </trkpt>
      <trkpt lat="44.91016" lon="5.52833">
        <ele>1644.95</ele>
        <time>2018-09-27T08:12:10Z</time>
      </trkpt>
      <trkpt lat="44.91012" lon="5.52837">
        <ele>1644.95</ele>
        <time>2018-09-27T08:12:33Z</time>
      </trkpt>
      <trkpt lat="44.91008" lon="5.52838">
        <ele>1644.95</ele>
        <time>2018-09-27T08:12:59Z</time>
      </trkpt>
      <trkpt lat="44.9101" lon="5.52838">
        <ele>1644.47</ele>
        <time>2018-09-27T08:13:33Z</time>
      </trkpt>
      <trkpt lat="44.9101" lon="5.52837">
        <ele>1644.47</ele>
        <time>2018-09-27T08:14:11Z</time>
      </trkpt>
      <trkpt lat="44.91011" lon="5.52837">
        <ele>1644.47</ele>
        <time>2018-09-27T08:14:47Z</time>
      </trkpt>
      <trkpt lat="44.91006" lon="5.5283">
        <ele>1645.91</ele>
        <time>2018-09-27T08:15:08Z</time>
      </trkpt>
      <trkpt lat="44.91006" lon="5.52829">
        <ele>1645.91</ele>
        <time>2018-09-27T08:15:09Z</time>
      </trkpt>
      <trkpt lat="44.91007" lon="5.5282">
        <ele>1648.32</ele>
        <time>2018-09-27T08:15:24Z</time>
      </trkpt>
      <trkpt lat="44.91007" lon="5.52805">
        <ele>1649.76</ele>
        <time>2018-09-27T08:15:39Z</time>
      </trkpt>
      <trkpt lat="44.91007" lon="5.52794">
        <ele>1652.64</ele>
        <time>2018-09-27T08:15:58Z</time>
      </trkpt>
      <trkpt lat="44.91006" lon="5.52779">
        <ele>1655.05</ele>
        <time>2018-09-27T08:16:16Z</time>
      </trkpt>
      <trkpt lat="44.91005" lon="5.52772">
        <ele>1656.49</ele>
        <time>2018-09-27T08:16:24Z</time>
      </trkpt>
      <trkpt lat="44.91005" lon="5.52751">
        <ele>1658.89</ele>
        <time>2018-09-27T08:16:42Z</time>
      </trkpt>
      <trkpt lat="44.91002" lon="5.52732">
        <ele>1661.3</ele>
        <time>2018-09-27T08:17:00Z</time>
      </trkpt>
      <trkpt lat="44.90994" lon="5.52719">
        <ele>1663.7</ele>
        <time>2018-09-27T08:17:16Z</time>
      </trkpt>
      <trkpt lat="44.90989" lon="5.5271">
        <ele>1665.62</ele>
        <time>2018-09-27T08:17:31Z</time>
      </trkpt>
      <trkpt lat="44.90986" lon="5.52699">
        <ele>1668.99</ele>
        <time>2018-09-27T08:17:46Z</time>
      </trkpt>
      <trkpt lat="44.90986" lon="5.52686">
        <ele>1671.87</ele>
        <time>2018-09-27T08:18:03Z</time>
      </trkpt>
      <trkpt lat="44.90981" lon="5.52673">
        <ele>1674.27</ele>
        <time>2018-09-27T08:18:20Z</time>
      </trkpt>
      <trkpt lat="44.9098" lon="5.52669">
        <ele>1675.72</ele>
        <time>2018-09-27T08:18:25Z</time>
      </trkpt>
      <trkpt lat="44.90977" lon="5.52655">
        <ele>1676.68</ele>
        <time>2018-09-27T08:18:39Z</time>
      </trkpt>
      <trkpt lat="44.90971" lon="5.52644">
        <ele>1679.56</ele>
        <time>2018-09-27T08:18:54Z</time>
      </trkpt>
      <trkpt lat="44.90965" lon="5.52632">
        <ele>1681.96</ele>
        <time>2018-09-27T08:19:10Z</time>
      </trkpt>
      <trkpt lat="44.90962" lon="5.52622">
        <ele>1685.33</ele>
        <time>2018-09-27T08:19:23Z</time>
      </trkpt>
      <trkpt lat="44.90964" lon="5.52614">
        <ele>1687.25</ele>
        <time>2018-09-27T08:19:38Z</time>
      </trkpt>
      <trkpt lat="44.90964" lon="5.52607">
        <ele>1685.81</ele>
        <time>2018-09-27T08:19:44Z</time>
      </trkpt>
      <trkpt lat="44.90962" lon="5.52591">
        <ele>1682.93</ele>
        <time>2018-09-27T08:20:02Z</time>
      </trkpt>
      <trkpt lat="44.9096" lon="5.52577">
        <ele>1681.96</ele>
        <time>2018-09-27T08:20:17Z</time>
      </trkpt>
      <trkpt lat="44.9096" lon="5.52569">
        <ele>1681.96</ele>
        <time>2018-09-27T08:20:26Z</time>
      </trkpt>
      <trkpt lat="44.90958" lon="5.52556">
        <ele>1681.48</ele>
        <time>2018-09-27T08:20:38Z</time>
      </trkpt>
      <trkpt lat="44.90954" lon="5.52545">
        <ele>1682.93</ele>
        <time>2018-09-27T08:20:52Z</time>
      </trkpt>
      <trkpt lat="44.9095" lon="5.52528">
        <ele>1682.93</ele>
        <time>2018-09-27T08:21:07Z</time>
      </trkpt>
      <trkpt lat="44.90944" lon="5.52513">
        <ele>1685.33</ele>
        <time>2018-09-27T08:21:24Z</time>
      </trkpt>
      <trkpt lat="44.90939" lon="5.52495">
        <ele>1686.29</ele>
        <time>2018-09-27T08:21:38Z</time>
      </trkpt>
      <trkpt lat="44.90934" lon="5.52485">
        <ele>1687.73</ele>
        <time>2018-09-27T08:21:53Z</time>
      </trkpt>
      <trkpt lat="44.90932" lon="5.52484">
        <ele>1688.69</ele>
        <time>2018-09-27T08:22:14Z</time>
      </trkpt>
      <trkpt lat="44.90934" lon="5.52485">
        <ele>1688.69</ele>
        <time>2018-09-27T08:22:36Z</time>
      </trkpt>
      <trkpt lat="44.90934" lon="5.52478">
        <ele>1688.69</ele>
        <time>2018-09-27T08:22:54Z</time>
      </trkpt>
      <trkpt lat="44.90932" lon="5.52466">
        <ele>1688.69</ele>
        <time>2018-09-27T08:23:07Z</time>
      </trkpt>
      <trkpt lat="44.9093" lon="5.52446">
        <ele>1690.14</ele>
        <time>2018-09-27T08:23:24Z</time>
      </trkpt>
      <trkpt lat="44.90928" lon="5.52432">
        <ele>1692.06</ele>
        <time>2018-09-27T08:23:39Z</time>
      </trkpt>
      <trkpt lat="44.90928" lon="5.52419">
        <ele>1693.98</ele>
        <time>2018-09-27T08:23:53Z</time>
      </trkpt>
      <trkpt lat="44.90928" lon="5.52398">
        <ele>1695.9</ele>
        <time>2018-09-27T08:24:12Z</time>
      </trkpt>
      <trkpt lat="44.90928" lon="5.52391">
        <ele>1696.38</ele>
        <time>2018-09-27T08:24:30Z</time>
      </trkpt>
      <trkpt lat="44.90932" lon="5.52379">
        <ele>1696.38</ele>
        <time>2018-09-27T08:24:50Z</time>
      </trkpt>
      <trkpt lat="44.90935" lon="5.52371">
        <ele>1697.83</ele>
        <time>2018-09-27T08:24:58Z</time>
      </trkpt>
      <trkpt lat="44.9094" lon="5.52358">
        <ele>1698.31</ele>
        <time>2018-09-27T08:25:12Z</time>
      </trkpt>
      <trkpt lat="44.90942" lon="5.52355">
        <ele>1698.79</ele>
        <time>2018-09-27T08:25:22Z</time>
      </trkpt>
      <trkpt lat="44.90946" lon="5.52341">
        <ele>1700.23</ele>
        <time>2018-09-27T08:25:33Z</time>
      </trkpt>
      <trkpt lat="44.9095" lon="5.52324">
        <ele>1700.71</ele>
        <time>2018-09-27T08:25:48Z</time>
      </trkpt>
      <trkpt lat="44.90949" lon="5.52309">
        <ele>1702.63</ele>
        <time>2018-09-27T08:26:04Z</time>
      </trkpt>
      <trkpt lat="44.90951" lon="5.52294">
        <ele>1703.11</ele>
        <time>2018-09-27T08:26:20Z</time>
      </trkpt>
      <trkpt lat="44.90953" lon="5.52277">
        <ele>1704.55</ele>
        <time>2018-09-27T08:26:36Z</time>
      </trkpt>
      <trkpt lat="44.90953" lon="5.52257">
        <ele>1706</ele>
        <time>2018-09-27T08:26:53Z</time>
      </trkpt>
      <trkpt lat="44.90952" lon="5.52243">
        <ele>1706.96</ele>
        <time>2018-09-27T08:27:08Z</time>
      </trkpt>
      <trkpt lat="44.90952" lon="5.52234">
        <ele>1708.4</ele>
        <time>2018-09-27T08:27:23Z</time>
      </trkpt>
      <trkpt lat="44.9095" lon="5.52221">
        <ele>1709.36</ele>
        <time>2018-09-27T08:27:42Z</time>
      </trkpt>
      <trkpt lat="44.90951" lon="5.52206">
        <ele>1711.76</ele>
        <time>2018-09-27T08:27:59Z</time>
      </trkpt>
      <trkpt lat="44.90954" lon="5.52188">
        <ele>1712.73</ele>
        <time>2018-09-27T08:28:15Z</time>
      </trkpt>
      <trkpt lat="44.90957" lon="5.52174">
        <ele>1712.73</ele>
        <time>2018-09-27T08:28:30Z</time>
      </trkpt>
      <trkpt lat="44.90959" lon="5.52155">
        <ele>1712.25</ele>
        <time>2018-09-27T08:28:45Z</time>
      </trkpt>
      <trkpt lat="44.90961" lon="5.52142">
        <ele>1712.73</ele>
        <time>2018-09-27T08:28:58Z</time>
      </trkpt>
      <trkpt lat="44.90962" lon="5.5213">
        <ele>1714.65</ele>
        <time>2018-09-27T08:29:12Z</time>
      </trkpt>
      <trkpt lat="44.90964" lon="5.52118">
        <ele>1716.57</ele>
        <time>2018-09-27T08:29:27Z</time>
      </trkpt>
      <trkpt lat="44.90966" lon="5.5211">
        <ele>1717.53</ele>
        <time>2018-09-27T08:29:41Z</time>
      </trkpt>
      <trkpt lat="44.9097" lon="5.521">
        <ele>1720.42</ele>
        <time>2018-09-27T08:29:58Z</time>
      </trkpt>
      <trkpt lat="44.90972" lon="5.52092">
        <ele>1720.9</ele>
        <time>2018-09-27T08:30:13Z</time>
      </trkpt>
      <trkpt lat="44.90979" lon="5.52084">
        <ele>1722.82</ele>
        <time>2018-09-27T08:30:27Z</time>
      </trkpt>
      <trkpt lat="44.90983" lon="5.52072">
        <ele>1723.78</ele>
        <time>2018-09-27T08:30:40Z</time>
      </trkpt>
      <trkpt lat="44.90987" lon="5.52063">
        <ele>1724.26</ele>
        <time>2018-09-27T08:30:55Z</time>
      </trkpt>
      <trkpt lat="44.90988" lon="5.52056">
        <ele>1726.67</ele>
        <time>2018-09-27T08:31:09Z</time>
      </trkpt>
      <trkpt lat="44.90991" lon="5.52049">
        <ele>1728.59</ele>
        <time>2018-09-27T08:31:22Z</time>
      </trkpt>
      <trkpt lat="44.90998" lon="5.52041">
        <ele>1731.47</ele>
        <time>2018-09-27T08:31:38Z</time>
      </trkpt>
      <trkpt lat="44.91" lon="5.52033">
        <ele>1733.88</ele>
        <time>2018-09-27T08:31:54Z</time>
      </trkpt>
      <trkpt lat="44.91004" lon="5.52024">
        <ele>1735.32</ele>
        <time>2018-09-27T08:32:10Z</time>
      </trkpt>
      <trkpt lat="44.91011" lon="5.52016">
        <ele>1737.24</ele>
        <time>2018-09-27T08:32:26Z</time>
      </trkpt>
      <trkpt lat="44.91019" lon="5.5201">
        <ele>1737.24</ele>
        <time>2018-09-27T08:32:46Z</time>
      </trkpt>
      <trkpt lat="44.91028" lon="5.52007">
        <ele>1737.24</ele>
        <time>2018-09-27T08:33:11Z</time>
      </trkpt>
      <trkpt lat="44.91032" lon="5.52004">
        <ele>1737.24</ele>
        <time>2018-09-27T08:33:26Z</time>
      </trkpt>
      <trkpt lat="44.91033" lon="5.51999">
        <ele>1739.16</ele>
        <time>2018-09-27T08:33:41Z</time>
      </trkpt>
      <trkpt lat="44.9104" lon="5.51994">
        <ele>1740.6</ele>
        <time>2018-09-27T08:33:56Z</time>
      </trkpt>
      <trkpt lat="44.91054" lon="5.5199">
        <ele>1741.57</ele>
        <time>2018-09-27T08:34:10Z</time>
      </trkpt>
      <trkpt lat="44.91063" lon="5.51987">
        <ele>1742.05</ele>
        <time>2018-09-27T08:34:24Z</time>
      </trkpt>
      <trkpt lat="44.91069" lon="5.51981">
        <ele>1744.45</ele>
        <time>2018-09-27T08:34:38Z</time>
      </trkpt>
      <trkpt lat="44.91073" lon="5.51977">
        <ele>1746.37</ele>
        <time>2018-09-27T08:34:51Z</time>
      </trkpt>
      <trkpt lat="44.91081" lon="5.51974">
        <ele>1746.85</ele>
        <time>2018-09-27T08:35:04Z</time>
      </trkpt>
      <trkpt lat="44.91089" lon="5.51965">
        <ele>1749.74</ele>
        <time>2018-09-27T08:35:22Z</time>
      </trkpt>
      <trkpt lat="44.91097" lon="5.5196">
        <ele>1751.66</ele>
        <time>2018-09-27T08:35:38Z</time>
      </trkpt>
      <trkpt lat="44.91108" lon="5.51952">
        <ele>1753.58</ele>
        <time>2018-09-27T08:35:56Z</time>
      </trkpt>
      <trkpt lat="44.91113" lon="5.51947">
        <ele>1755.5</ele>
        <time>2018-09-27T08:36:10Z</time>
      </trkpt>
      <trkpt lat="44.91107" lon="5.51947">
        <ele>1757.91</ele>
        <time>2018-09-27T08:36:24Z</time>
      </trkpt>
      <trkpt lat="44.91097" lon="5.51948">
        <ele>1759.35</ele>
        <time>2018-09-27T08:36:41Z</time>
      </trkpt>
      <trkpt lat="44.91089" lon="5.51946">
        <ele>1760.79</ele>
        <time>2018-09-27T08:36:57Z</time>
      </trkpt>
      <trkpt lat="44.91088" lon="5.51952">
        <ele>1760.79</ele>
        <time>2018-09-27T08:37:18Z</time>
      </trkpt>
      <trkpt lat="44.91092" lon="5.51946">
        <ele>1760.79</ele>
        <time>2018-09-27T08:37:46Z</time>
      </trkpt>
      <trkpt lat="44.91091" lon="5.51945">
        <ele>1760.79</ele>
        <time>2018-09-27T08:38:11Z</time>
      </trkpt>
      <trkpt lat="44.91089" lon="5.51947">
        <ele>1760.79</ele>
        <time>2018-09-27T08:38:34Z</time>
      </trkpt>
      <trkpt lat="44.91088" lon="5.51945">
        <ele>1760.79</ele>
        <time>2018-09-27T08:39:07Z</time>
      </trkpt>
      <trkpt lat="44.91091" lon="5.51941">
        <ele>1760.79</ele>
        <time>2018-09-27T08:39:30Z</time>
      </trkpt>
      <trkpt lat="44.91092" lon="5.51941">
        <ele>1760.79</ele>
        <time>2018-09-27T08:40:01Z</time>
      </trkpt>
      <trkpt lat="44.91093" lon="5.51941">
        <ele>1761.27</ele>
        <time>2018-09-27T08:40:33Z</time>
      </trkpt>
      <trkpt lat="44.9109" lon="5.51944">
        <ele>1760.79</ele>
        <time>2018-09-27T08:40:50Z</time>
      </trkpt>
      <trkpt lat="44.91081" lon="5.51942">
        <ele>1762.71</ele>
        <time>2018-09-27T08:41:10Z</time>
      </trkpt>
      <trkpt lat="44.91067" lon="5.5194">
        <ele>1765.12</ele>
        <time>2018-09-27T08:41:26Z</time>
      </trkpt>
      <trkpt lat="44.91055" lon="5.51937">
        <ele>1768</ele>
        <time>2018-09-27T08:41:41Z</time>
      </trkpt>
      <trkpt lat="44.91043" lon="5.51936">
        <ele>1770.41</ele>
        <time>2018-09-27T08:41:56Z</time>
      </trkpt>
      <trkpt lat="44.91032" lon="5.5194">
        <ele>1770.41</ele>
        <time>2018-09-27T08:42:09Z</time>
      </trkpt>
      <trkpt lat="44.91026" lon="5.51939">
        <ele>1773.29</ele>
        <time>2018-09-27T08:42:22Z</time>
      </trkpt>
      <trkpt lat="44.91017" lon="5.5194">
        <ele>1775.69</ele>
        <time>2018-09-27T08:42:37Z</time>
      </trkpt>
      <trkpt lat="44.91008" lon="5.51941">
        <ele>1778.1</ele>
        <time>2018-09-27T08:42:51Z</time>
      </trkpt>
      <trkpt lat="44.91008" lon="5.51941">
        <ele>1780.5</ele>
        <time>2018-09-27T08:43:07Z</time>
      </trkpt>
      <trkpt lat="44.91008" lon="5.51935">
        <ele>1783.38</ele>
        <time>2018-09-27T08:43:20Z</time>
      </trkpt>
      <trkpt lat="44.9101" lon="5.5193">
        <ele>1785.31</ele>
        <time>2018-09-27T08:43:32Z</time>
      </trkpt>
      <trkpt lat="44.91013" lon="5.51927">
        <ele>1787.23</ele>
        <time>2018-09-27T08:43:45Z</time>
      </trkpt>
      <trkpt lat="44.91014" lon="5.51923">
        <ele>1789.63</ele>
        <time>2018-09-27T08:43:59Z</time>
      </trkpt>
      <trkpt lat="44.9101" lon="5.51922">
        <ele>1791.55</ele>
        <time>2018-09-27T08:44:13Z</time>
      </trkpt>
      <trkpt lat="44.91002" lon="5.51922">
        <ele>1793</ele>
        <time>2018-09-27T08:44:27Z</time>
      </trkpt>
      <trkpt lat="44.91002" lon="5.51913">
        <ele>1795.88</ele>
        <time>2018-09-27T08:44:40Z</time>
      </trkpt>
      <trkpt lat="44.91003" lon="5.51906">
        <ele>1796.84</ele>
        <time>2018-09-27T08:44:53Z</time>
      </trkpt>
      <trkpt lat="44.91003" lon="5.51905">
        <ele>1798.28</ele>
        <time>2018-09-27T08:44:56Z</time>
      </trkpt>
      <trkpt lat="44.91003" lon="5.51901">
        <ele>1800.21</ele>
        <time>2018-09-27T08:45:09Z</time>
      </trkpt>
      <trkpt lat="44.91001" lon="5.519">
        <ele>1803.57</ele>
        <time>2018-09-27T08:45:24Z</time>
      </trkpt>
      <trkpt lat="44.91" lon="5.51897">
        <ele>1804.53</ele>
        <time>2018-09-27T08:45:43Z</time>
      </trkpt>
      <trkpt lat="44.90999" lon="5.51898">
        <ele>1804.53</ele>
        <time>2018-09-27T08:46:16Z</time>
      </trkpt>
      <trkpt lat="44.90997" lon="5.51895">
        <ele>1806.45</ele>
        <time>2018-09-27T08:46:41Z</time>
      </trkpt>
      <trkpt lat="44.91" lon="5.51888">
        <ele>1808.38</ele>
        <time>2018-09-27T08:46:53Z</time>
      </trkpt>
      <trkpt lat="44.91005" lon="5.51886">
        <ele>1810.3</ele>
        <time>2018-09-27T08:47:11Z</time>
      </trkpt>
      <trkpt lat="44.91011" lon="5.51884">
        <ele>1812.22</ele>
        <time>2018-09-27T08:47:24Z</time>
      </trkpt>
      <trkpt lat="44.91013" lon="5.51882">
        <ele>1813.66</ele>
        <time>2018-09-27T08:47:36Z</time>
      </trkpt>
      <trkpt lat="44.9101" lon="5.51882">
        <ele>1816.07</ele>
        <time>2018-09-27T08:47:50Z</time>
      </trkpt>
      <trkpt lat="44.91006" lon="5.51878">
        <ele>1817.03</ele>
        <time>2018-09-27T08:48:04Z</time>
      </trkpt>
      <trkpt lat="44.91005" lon="5.51873">
        <ele>1818.47</ele>
        <time>2018-09-27T08:48:23Z</time>
      </trkpt>
      <trkpt lat="44.91007" lon="5.5187">
        <ele>1820.39</ele>
        <time>2018-09-27T08:48:34Z</time>
      </trkpt>
      <trkpt lat="44.91009" lon="5.5187">
        <ele>1821.84</ele>
        <time>2018-09-27T08:48:49Z</time>
      </trkpt>
      <trkpt lat="44.91007" lon="5.51866">
        <ele>1825.2</ele>
        <time>2018-09-27T08:49:05Z</time>
      </trkpt>
      <trkpt lat="44.9101" lon="5.51863">
        <ele>1825.68</ele>
        <time>2018-09-27T08:49:21Z</time>
      </trkpt>
      <trkpt lat="44.91006" lon="5.51859">
        <ele>1828.08</ele>
        <time>2018-09-27T08:49:34Z</time>
      </trkpt>
      <trkpt lat="44.91002" lon="5.51858">
        <ele>1830.49</ele>
        <time>2018-09-27T08:49:47Z</time>
      </trkpt>
      <trkpt lat="44.90999" lon="5.51861">
        <ele>1830.49</ele>
        <time>2018-09-27T08:50:11Z</time>
      </trkpt>
      <trkpt lat="44.90999" lon="5.51856">
        <ele>1833.37</ele>
        <time>2018-09-27T08:50:19Z</time>
      </trkpt>
      <trkpt lat="44.90999" lon="5.51843">
        <ele>1834.33</ele>
        <time>2018-09-27T08:50:30Z</time>
      </trkpt>
      <trkpt lat="44.90997" lon="5.51846">
        <ele>1837.22</ele>
        <time>2018-09-27T08:50:41Z</time>
      </trkpt>
      <trkpt lat="44.91001" lon="5.51853">
        <ele>1837.7</ele>
        <time>2018-09-27T08:51:03Z</time>
      </trkpt>
      <trkpt lat="44.91" lon="5.51847">
        <ele>1839.14</ele>
        <time>2018-09-27T08:51:12Z</time>
      </trkpt>
      <trkpt lat="44.9101" lon="5.51839">
        <ele>1840.1</ele>
        <time>2018-09-27T08:51:29Z</time>
      </trkpt>
      <trkpt lat="44.9101" lon="5.51832">
        <ele>1842.02</ele>
        <time>2018-09-27T08:51:46Z</time>
      </trkpt>
      <trkpt lat="44.91006" lon="5.51832">
        <ele>1843.47</ele>
        <time>2018-09-27T08:51:58Z</time>
      </trkpt>
      <trkpt lat="44.91002" lon="5.51833">
        <ele>1843.95</ele>
        <time>2018-09-27T08:52:22Z</time>
      </trkpt>
      <trkpt lat="44.90999" lon="5.51823">
        <ele>1846.35</ele>
        <time>2018-09-27T08:52:34Z</time>
      </trkpt>
      <trkpt lat="44.90994" lon="5.51813">
        <ele>1849.23</ele>
        <time>2018-09-27T08:52:49Z</time>
      </trkpt>
      <trkpt lat="44.90986" lon="5.5181">
        <ele>1851.64</ele>
        <time>2018-09-27T08:53:03Z</time>
      </trkpt>
      <trkpt lat="44.90983" lon="5.51809">
        <ele>1852.6</ele>
        <time>2018-09-27T08:53:09Z</time>
      </trkpt>
      <trkpt lat="44.90985" lon="5.51806">
        <ele>1854.52</ele>
        <time>2018-09-27T08:53:22Z</time>
      </trkpt>
      <trkpt lat="44.90983" lon="5.51805">
        <ele>1858.37</ele>
        <time>2018-09-27T08:53:37Z</time>
      </trkpt>
      <trkpt lat="44.90982" lon="5.51798">
        <ele>1859.81</ele>
        <time>2018-09-27T08:53:51Z</time>
      </trkpt>
      <trkpt lat="44.90983" lon="5.51787">
        <ele>1862.69</ele>
        <time>2018-09-27T08:54:06Z</time>
      </trkpt>
      <trkpt lat="44.9098" lon="5.51787">
        <ele>1865.09</ele>
        <time>2018-09-27T08:54:20Z</time>
      </trkpt>
      <trkpt lat="44.90981" lon="5.51788">
        <ele>1867.02</ele>
        <time>2018-09-27T08:54:34Z</time>
      </trkpt>
      <trkpt lat="44.90981" lon="5.51789">
        <ele>1867.98</ele>
        <time>2018-09-27T08:54:55Z</time>
      </trkpt>
      <trkpt lat="44.90982" lon="5.51784">
        <ele>1868.94</ele>
        <time>2018-09-27T08:55:28Z</time>
      </trkpt>
      <trkpt lat="44.90982" lon="5.51782">
        <ele>1869.9</ele>
        <time>2018-09-27T08:55:46Z</time>
      </trkpt>
      <trkpt lat="44.90981" lon="5.51774">
        <ele>1872.3</ele>
        <time>2018-09-27T08:55:59Z</time>
      </trkpt>
      <trkpt lat="44.90984" lon="5.51762">
        <ele>1874.71</ele>
        <time>2018-09-27T08:56:12Z</time>
      </trkpt>
      <trkpt lat="44.90996" lon="5.51753">
        <ele>1877.11</ele>
        <time>2018-09-27T08:56:27Z</time>
      </trkpt>
      <trkpt lat="44.90995" lon="5.51748">
        <ele>1880</ele>
        <time>2018-09-27T08:56:41Z</time>
      </trkpt>
      <trkpt lat="44.90984" lon="5.51746">
        <ele>1883.36</ele>
        <time>2018-09-27T08:56:57Z</time>
      </trkpt>
      <trkpt lat="44.90979" lon="5.51747">
        <ele>1885.28</ele>
        <time>2018-09-27T08:57:10Z</time>
      </trkpt>
      <trkpt lat="44.90977" lon="5.51741">
        <ele>1886.72</ele>
        <time>2018-09-27T08:57:27Z</time>
      </trkpt>
      <trkpt lat="44.90978" lon="5.51729">
        <ele>1888.17</ele>
        <time>2018-09-27T08:57:48Z</time>
      </trkpt>
      <trkpt lat="44.90981" lon="5.51719">
        <ele>1887.21</ele>
        <time>2018-09-27T08:58:07Z</time>
      </trkpt>
      <trkpt lat="44.90987" lon="5.51714">
        <ele>1887.69</ele>
        <time>2018-09-27T08:58:41Z</time>
      </trkpt>
      <trkpt lat="44.90987" lon="5.51715">
        <ele>1887.69</ele>
        <time>2018-09-27T08:59:17Z</time>
      </trkpt>
      <trkpt lat="44.90987" lon="5.51716">
        <ele>1888.17</ele>
        <time>2018-09-27T08:59:56Z</time>
      </trkpt>
      <trkpt lat="44.90985" lon="5.51718">
        <ele>1888.65</ele>
        <time>2018-09-27T09:00:30Z</time>
      </trkpt>
      <trkpt lat="44.90985" lon="5.5172">
        <ele>1888.65</ele>
        <time>2018-09-27T09:00:57Z</time>
      </trkpt>
      <trkpt lat="44.90986" lon="5.51718">
        <ele>1888.65</ele>
        <time>2018-09-27T09:01:18Z</time>
      </trkpt>
      <trkpt lat="44.9099" lon="5.51718">
        <ele>1889.13</ele>
        <time>2018-09-27T09:01:54Z</time>
      </trkpt>
      <trkpt lat="44.90986" lon="5.51718">
        <ele>1889.13</ele>
        <time>2018-09-27T09:02:23Z</time>
      </trkpt>
      <trkpt lat="44.90986" lon="5.51717">
        <ele>1889.13</ele>
        <time>2018-09-27T09:02:43Z</time>
      </trkpt>
      <trkpt lat="44.90986" lon="5.51716">
        <ele>1890.57</ele>
        <time>2018-09-27T09:02:57Z</time>
      </trkpt>
      <trkpt lat="44.90987" lon="5.51718">
        <ele>1889.61</ele>
        <time>2018-09-27T09:03:16Z</time>
      </trkpt>
      <trkpt lat="44.90988" lon="5.51721">
        <ele>1890.57</ele>
        <time>2018-09-27T09:03:21Z</time>
      </trkpt>
      <trkpt lat="44.9099" lon="5.51724">
        <ele>1891.05</ele>
        <time>2018-09-27T09:03:40Z</time>
      </trkpt>
      <trkpt lat="44.90991" lon="5.51721">
        <ele>1891.05</ele>
        <time>2018-09-27T09:04:05Z</time>
      </trkpt>
      <trkpt lat="44.90991" lon="5.51722">
        <ele>1891.05</ele>
        <time>2018-09-27T09:04:36Z</time>
      </trkpt>
      <trkpt lat="44.90987" lon="5.51718">
        <ele>1891.53</ele>
        <time>2018-09-27T09:04:49Z</time>
      </trkpt>
      <trkpt lat="44.90988" lon="5.51715">
        <ele>1891.53</ele>
        <time>2018-09-27T09:05:10Z</time>
      </trkpt>
      <trkpt lat="44.90988" lon="5.51716">
        <ele>1890.57</ele>
        <time>2018-09-27T09:05:48Z</time>
      </trkpt>
      <trkpt lat="44.90988" lon="5.51714">
        <ele>1891.05</ele>
        <time>2018-09-27T09:06:21Z</time>
      </trkpt>
      <trkpt lat="44.90987" lon="5.51716">
        <ele>1891.05</ele>
        <time>2018-09-27T09:06:57Z</time>
      </trkpt>
      <trkpt lat="44.90988" lon="5.51715">
        <ele>1891.53</ele>
        <time>2018-09-27T09:07:29Z</time>
      </trkpt>
      <trkpt lat="44.90986" lon="5.51718">
        <ele>1891.53</ele>
        <time>2018-09-27T09:07:53Z</time>
      </trkpt>
      <trkpt lat="44.90981" lon="5.51723">
        <ele>1893.93</ele>
        <time>2018-09-27T09:08:09Z</time>
      </trkpt>
      <trkpt lat="44.90974" lon="5.51723">
        <ele>1894.9</ele>
        <time>2018-09-27T09:08:23Z</time>
      </trkpt>
      <trkpt lat="44.90963" lon="5.51724">
        <ele>1898.26</ele>
        <time>2018-09-27T09:08:39Z</time>
      </trkpt>
      <trkpt lat="44.90953" lon="5.51724">
        <ele>1900.18</ele>
        <time>2018-09-27T09:08:55Z</time>
      </trkpt>
      <trkpt lat="44.90945" lon="5.51725">
        <ele>1902.59</ele>
        <time>2018-09-27T09:09:10Z</time>
      </trkpt>
      <trkpt lat="44.90936" lon="5.51725">
        <ele>1904.03</ele>
        <time>2018-09-27T09:09:24Z</time>
      </trkpt>
      <trkpt lat="44.90927" lon="5.51724">
        <ele>1905.47</ele>
        <time>2018-09-27T09:09:38Z</time>
      </trkpt>
      <trkpt lat="44.90918" lon="5.51726">
        <ele>1907.39</ele>
        <time>2018-09-27T09:09:54Z</time>
      </trkpt>
      <trkpt lat="44.90909" lon="5.51729">
        <ele>1910.28</ele>
        <time>2018-09-27T09:10:10Z</time>
      </trkpt>
      <trkpt lat="44.909" lon="5.51731">
        <ele>1912.2</ele>
        <time>2018-09-27T09:10:27Z</time>
      </trkpt>
      <trkpt lat="44.90892" lon="5.51731">
        <ele>1914.12</ele>
        <time>2018-09-27T09:10:44Z</time>
      </trkpt>
      <trkpt lat="44.90884" lon="5.51734">
        <ele>1916.04</ele>
        <time>2018-09-27T09:10:59Z</time>
      </trkpt>
      <trkpt lat="44.90879" lon="5.51736">
        <ele>1917.49</ele>
        <time>2018-09-27T09:11:16Z</time>
      </trkpt>
      <trkpt lat="44.9087" lon="5.51738">
        <ele>1919.89</ele>
        <time>2018-09-27T09:11:32Z</time>
      </trkpt>
      <trkpt lat="44.90856" lon="5.5174">
        <ele>1922.77</ele>
        <time>2018-09-27T09:11:49Z</time>
      </trkpt>
      <trkpt lat="44.90847" lon="5.51741">
        <ele>1925.66</ele>
        <time>2018-09-27T09:12:04Z</time>
      </trkpt>
      <trkpt lat="44.90835" lon="5.51745">
        <ele>1928.06</ele>
        <time>2018-09-27T09:12:21Z</time>
      </trkpt>
      <trkpt lat="44.90826" lon="5.51746">
        <ele>1930.46</ele>
        <time>2018-09-27T09:12:37Z</time>
      </trkpt>
      <trkpt lat="44.90818" lon="5.51748">
        <ele>1931.91</ele>
        <time>2018-09-27T09:12:52Z</time>
      </trkpt>
      <trkpt lat="44.90814" lon="5.51748">
        <ele>1933.35</ele>
        <time>2018-09-27T09:13:10Z</time>
      </trkpt>
      <trkpt lat="44.90814" lon="5.51748">
        <ele>1933.35</ele>
        <time>2018-09-27T09:13:39Z</time>
      </trkpt>
      <trkpt lat="44.90812" lon="5.51749">
        <ele>1933.83</ele>
        <time>2018-09-27T09:14:10Z</time>
      </trkpt>
      <trkpt lat="44.90812" lon="5.51749">
        <ele>1933.83</ele>
        <time>2018-09-27T09:14:36Z</time>
      </trkpt>
      <trkpt lat="44.90809" lon="5.51749">
        <ele>1935.27</ele>
        <time>2018-09-27T09:15:08Z</time>
      </trkpt>
      <trkpt lat="44.90797" lon="5.5175">
        <ele>1937.67</ele>
        <time>2018-09-27T09:15:24Z</time>
      </trkpt>
      <trkpt lat="44.90786" lon="5.51753">
        <ele>1938.64</ele>
        <time>2018-09-27T09:15:40Z</time>
      </trkpt>
      <trkpt lat="44.90774" lon="5.51754">
        <ele>1941.04</ele>
        <time>2018-09-27T09:15:57Z</time>
      </trkpt>
      <trkpt lat="44.90764" lon="5.51757">
        <ele>1942.96</ele>
        <time>2018-09-27T09:16:12Z</time>
      </trkpt>
      <trkpt lat="44.90754" lon="5.5176">
        <ele>1945.36</ele>
        <time>2018-09-27T09:16:30Z</time>
      </trkpt>
      <trkpt lat="44.90743" lon="5.51762">
        <ele>1946.81</ele>
        <time>2018-09-27T09:16:46Z</time>
      </trkpt>
      <trkpt lat="44.90735" lon="5.51766">
        <ele>1949.21</ele>
        <time>2018-09-27T09:17:01Z</time>
      </trkpt>
      <trkpt lat="44.90726" lon="5.5177">
        <ele>1951.13</ele>
        <time>2018-09-27T09:17:17Z</time>
      </trkpt>
      <trkpt lat="44.90719" lon="5.51773">
        <ele>1952.09</ele>
        <time>2018-09-27T09:17:30Z</time>
      </trkpt>
      <trkpt lat="44.9071" lon="5.51776">
        <ele>1953.06</ele>
        <time>2018-09-27T09:17:44Z</time>
      </trkpt>
      <trkpt lat="44.90702" lon="5.51777">
        <ele>1954.02</ele>
        <time>2018-09-27T09:17:59Z</time>
      </trkpt>
      <trkpt lat="44.90694" lon="5.51782">
        <ele>1954.98</ele>
        <time>2018-09-27T09:18:17Z</time>
      </trkpt>
      <trkpt lat="44.90687" lon="5.51788">
        <ele>1956.9</ele>
        <time>2018-09-27T09:18:33Z</time>
      </trkpt>
      <trkpt lat="44.90677" lon="5.51794">
        <ele>1958.82</ele>
        <time>2018-09-27T09:18:48Z</time>
      </trkpt>
      <trkpt lat="44.90673" lon="5.51798">
        <ele>1958.82</ele>
        <time>2018-09-27T09:19:05Z</time>
      </trkpt>
      <trkpt lat="44.90672" lon="5.51798">
        <ele>1958.82</ele>
        <time>2018-09-27T09:19:37Z</time>
      </trkpt>
      <trkpt lat="44.90671" lon="5.518">
        <ele>1958.82</ele>
        <time>2018-09-27T09:20:04Z</time>
      </trkpt>
      <trkpt lat="44.90671" lon="5.518">
        <ele>1958.82</ele>
        <time>2018-09-27T09:20:31Z</time>
      </trkpt>
      <trkpt lat="44.90672" lon="5.51801">
        <ele>1958.82</ele>
        <time>2018-09-27T09:21:00Z</time>
      </trkpt>
      <trkpt lat="44.90672" lon="5.51798">
        <ele>1959.3</ele>
        <time>2018-09-27T09:21:35Z</time>
      </trkpt>
      <trkpt lat="44.90672" lon="5.518">
        <ele>1959.3</ele>
        <time>2018-09-27T09:22:05Z</time>
      </trkpt>
      <trkpt lat="44.9067" lon="5.51799">
        <ele>1959.3</ele>
        <time>2018-09-27T09:22:33Z</time>
      </trkpt>
      <trkpt lat="44.90671" lon="5.51802">
        <ele>1959.3</ele>
        <time>2018-09-27T09:23:02Z</time>
      </trkpt>
      <trkpt lat="44.9067" lon="5.51803">
        <ele>1959.3</ele>
        <time>2018-09-27T09:23:28Z</time>
      </trkpt>
      <trkpt lat="44.90669" lon="5.51804">
        <ele>1959.3</ele>
        <time>2018-09-27T09:23:29Z</time>
      </trkpt>
      <trkpt lat="44.90665" lon="5.51803">
        <ele>1958.34</ele>
        <time>2018-09-27T09:23:47Z</time>
      </trkpt>
      <trkpt lat="44.90663" lon="5.51805">
        <ele>1958.34</ele>
        <time>2018-09-27T09:24:18Z</time>
      </trkpt>
      <trkpt lat="44.9066" lon="5.51804">
        <ele>1958.34</ele>
        <time>2018-09-27T09:24:37Z</time>
      </trkpt>
      <trkpt lat="44.90655" lon="5.51807">
        <ele>1958.82</ele>
        <time>2018-09-27T09:24:52Z</time>
      </trkpt>
      <trkpt lat="44.90647" lon="5.51806">
        <ele>1958.34</ele>
        <time>2018-09-27T09:25:09Z</time>
      </trkpt>
      <trkpt lat="44.90642" lon="5.5181">
        <ele>1957.86</ele>
        <time>2018-09-27T09:25:30Z</time>
      </trkpt>
      <trkpt lat="44.90637" lon="5.51811">
        <ele>1959.3</ele>
        <time>2018-09-27T09:25:42Z</time>
      </trkpt>
      <trkpt lat="44.90634" lon="5.51814">
        <ele>1959.78</ele>
        <time>2018-09-27T09:25:57Z</time>
      </trkpt>
      <trkpt lat="44.90635" lon="5.51819">
        <ele>1962.67</ele>
        <time>2018-09-27T09:26:12Z</time>
      </trkpt>
      <trkpt lat="44.90632" lon="5.51828">
        <ele>1963.15</ele>
        <time>2018-09-27T09:26:30Z</time>
      </trkpt>
      <trkpt lat="44.90628" lon="5.51834">
        <ele>1964.11</ele>
        <time>2018-09-27T09:26:44Z</time>
      </trkpt>
      <trkpt lat="44.90624" lon="5.51843">
        <ele>1966.51</ele>
        <time>2018-09-27T09:26:58Z</time>
      </trkpt>
      <trkpt lat="44.90624" lon="5.51853">
        <ele>1968.44</ele>
        <time>2018-09-27T09:27:14Z</time>
      </trkpt>
      <trkpt lat="44.90623" lon="5.51864">
        <ele>1970.36</ele>
        <time>2018-09-27T09:27:29Z</time>
      </trkpt>
      <trkpt lat="44.90623" lon="5.51871">
        <ele>1969.88</ele>
        <time>2018-09-27T09:27:45Z</time>
      </trkpt>
      <trkpt lat="44.90618" lon="5.51873">
        <ele>1969.88</ele>
        <time>2018-09-27T09:27:58Z</time>
      </trkpt>
      <trkpt lat="44.90617" lon="5.51876">
        <ele>1969.88</ele>
        <time>2018-09-27T09:28:16Z</time>
      </trkpt>
      <trkpt lat="44.90613" lon="5.5188">
        <ele>1971.32</ele>
        <time>2018-09-27T09:28:31Z</time>
      </trkpt>
      <trkpt lat="44.90607" lon="5.51887">
        <ele>1973.24</ele>
        <time>2018-09-27T09:28:45Z</time>
      </trkpt>
      <trkpt lat="44.90606" lon="5.51889">
        <ele>1973.72</ele>
        <time>2018-09-27T09:29:11Z</time>
      </trkpt>
      <trkpt lat="44.90604" lon="5.5189">
        <ele>1973.72</ele>
        <time>2018-09-27T09:29:41Z</time>
      </trkpt>
      <trkpt lat="44.90606" lon="5.51888">
        <ele>1974.2</ele>
        <time>2018-09-27T09:30:09Z</time>
      </trkpt>
      <trkpt lat="44.90605" lon="5.51879">
        <ele>1974.69</ele>
        <time>2018-09-27T09:30:23Z</time>
      </trkpt>
      <trkpt lat="44.90601" lon="5.51874">
        <ele>1976.13</ele>
        <time>2018-09-27T09:30:37Z</time>
      </trkpt>
      <trkpt lat="44.90598" lon="5.51863">
        <ele>1978.05</ele>
        <time>2018-09-27T09:30:50Z</time>
      </trkpt>
      <trkpt lat="44.90593" lon="5.51854">
        <ele>1979.49</ele>
        <time>2018-09-27T09:31:03Z</time>
      </trkpt>
      <trkpt lat="44.90586" lon="5.51849">
        <ele>1979.49</ele>
        <time>2018-09-27T09:31:16Z</time>
      </trkpt>
      <trkpt lat="44.9058" lon="5.51844">
        <ele>1980.93</ele>
        <time>2018-09-27T09:31:30Z</time>
      </trkpt>
      <trkpt lat="44.90575" lon="5.51848">
        <ele>1983.34</ele>
        <time>2018-09-27T09:31:43Z</time>
      </trkpt>
      <trkpt lat="44.90575" lon="5.51852">
        <ele>1983.82</ele>
        <time>2018-09-27T09:32:01Z</time>
      </trkpt>
      <trkpt lat="44.90575" lon="5.51856">
        <ele>1984.3</ele>
        <time>2018-09-27T09:32:21Z</time>
      </trkpt>
      <trkpt lat="44.90573" lon="5.51854">
        <ele>1984.3</ele>
        <time>2018-09-27T09:32:41Z</time>
      </trkpt>
      <trkpt lat="44.9057" lon="5.51854">
        <ele>1984.3</ele>
        <time>2018-09-27T09:33:11Z</time>
      </trkpt>
      <trkpt lat="44.90569" lon="5.51858">
        <ele>1985.26</ele>
        <time>2018-09-27T09:33:39Z</time>
      </trkpt>
      <trkpt lat="44.90567" lon="5.51853">
        <ele>1986.7</ele>
        <time>2018-09-27T09:34:05Z</time>
      </trkpt>
      <trkpt lat="44.90554" lon="5.5185">
        <ele>1989.1</ele>
        <time>2018-09-27T09:34:21Z</time>
      </trkpt>
      <trkpt lat="44.90547" lon="5.51848">
        <ele>1991.51</ele>
        <time>2018-09-27T09:34:37Z</time>
      </trkpt>
      <trkpt lat="44.90546" lon="5.51857">
        <ele>1993.91</ele>
        <time>2018-09-27T09:34:52Z</time>
      </trkpt>
      <trkpt lat="44.90539" lon="5.51855">
        <ele>1996.8</ele>
        <time>2018-09-27T09:35:12Z</time>
      </trkpt>
      <trkpt lat="44.90532" lon="5.51856">
        <ele>1998.24</ele>
        <time>2018-09-27T09:35:29Z</time>
      </trkpt>
      <trkpt lat="44.90525" lon="5.51856">
        <ele>2000.64</ele>
        <time>2018-09-27T09:35:46Z</time>
      </trkpt>
      <trkpt lat="44.90522" lon="5.51857">
        <ele>2001.6</ele>
        <time>2018-09-27T09:36:03Z</time>
      </trkpt>
      <trkpt lat="44.90518" lon="5.51859">
        <ele>2003.52</ele>
        <time>2018-09-27T09:36:19Z</time>
      </trkpt>
      <trkpt lat="44.90507" lon="5.51862">
        <ele>2006.41</ele>
        <time>2018-09-27T09:36:38Z</time>
      </trkpt>
      <trkpt lat="44.905" lon="5.51867">
        <ele>2008.33</ele>
        <time>2018-09-27T09:36:55Z</time>
      </trkpt>
      <trkpt lat="44.90498" lon="5.51877">
        <ele>2011.22</ele>
        <time>2018-09-27T09:37:11Z</time>
      </trkpt>
      <trkpt lat="44.90498" lon="5.5188">
        <ele>2012.18</ele>
        <time>2018-09-27T09:37:34Z</time>
      </trkpt>
      <trkpt lat="44.905" lon="5.5188">
        <ele>2012.18</ele>
        <time>2018-09-27T09:38:01Z</time>
      </trkpt>
      <trkpt lat="44.905" lon="5.51883">
        <ele>2012.66</ele>
        <time>2018-09-27T09:38:16Z</time>
      </trkpt>
      <trkpt lat="44.90498" lon="5.51882">
        <ele>2012.66</ele>
        <time>2018-09-27T09:38:57Z</time>
      </trkpt>
      <trkpt lat="44.90498" lon="5.51882">
        <ele>2013.14</ele>
        <time>2018-09-27T09:39:28Z</time>
      </trkpt>
      <trkpt lat="44.90497" lon="5.51881">
        <ele>2013.14</ele>
        <time>2018-09-27T09:39:58Z</time>
      </trkpt>
      <trkpt lat="44.90497" lon="5.51882">
        <ele>2013.62</ele>
        <time>2018-09-27T09:40:31Z</time>
      </trkpt>
      <trkpt lat="44.90499" lon="5.51882">
        <ele>2013.62</ele>
        <time>2018-09-27T09:40:54Z</time>
      </trkpt>
      <trkpt lat="44.90498" lon="5.51881">
        <ele>2013.62</ele>
        <time>2018-09-27T09:41:30Z</time>
      </trkpt>
      <trkpt lat="44.90499" lon="5.51883">
        <ele>2013.62</ele>
        <time>2018-09-27T09:41:56Z</time>
      </trkpt>
      <trkpt lat="44.905" lon="5.51882">
        <ele>2013.62</ele>
        <time>2018-09-27T09:42:32Z</time>
      </trkpt>
      <trkpt lat="44.9049" lon="5.51883">
        <ele>2015.54</ele>
        <time>2018-09-27T09:42:52Z</time>
      </trkpt>
      <trkpt lat="44.9048" lon="5.51884">
        <ele>2018.43</ele>
        <time>2018-09-27T09:43:07Z</time>
      </trkpt>
      <trkpt lat="44.90475" lon="5.51896">
        <ele>2019.87</ele>
        <time>2018-09-27T09:43:22Z</time>
      </trkpt>
      <trkpt lat="44.90466" lon="5.51901">
        <ele>2023.23</ele>
        <time>2018-09-27T09:43:37Z</time>
      </trkpt>
      <trkpt lat="44.90458" lon="5.51906">
        <ele>2026.12</ele>
        <time>2018-09-27T09:43:55Z</time>
      </trkpt>
      <trkpt lat="44.90449" lon="5.51905">
        <ele>2028.52</ele>
        <time>2018-09-27T09:44:10Z</time>
      </trkpt>
      <trkpt lat="44.9044" lon="5.51908">
        <ele>2031.4</ele>
        <time>2018-09-27T09:44:29Z</time>
      </trkpt>
      <trkpt lat="44.90433" lon="5.51908">
        <ele>2033.33</ele>
        <time>2018-09-27T09:44:44Z</time>
      </trkpt>
      <trkpt lat="44.90427" lon="5.51907">
        <ele>2036.21</ele>
        <time>2018-09-27T09:45:00Z</time>
      </trkpt>
      <trkpt lat="44.90421" lon="5.51906">
        <ele>2038.61</ele>
        <time>2018-09-27T09:45:16Z</time>
      </trkpt>
      <trkpt lat="44.90416" lon="5.51908">
        <ele>2041.5</ele>
        <time>2018-09-27T09:45:32Z</time>
      </trkpt>
      <trkpt lat="44.90411" lon="5.51908">
        <ele>2044.38</ele>
        <time>2018-09-27T09:45:46Z</time>
      </trkpt>
      <trkpt lat="44.90405" lon="5.5191">
        <ele>2047.26</ele>
        <time>2018-09-27T09:46:02Z</time>
      </trkpt>
      <trkpt lat="44.90399" lon="5.51907">
        <ele>2050.15</ele>
        <time>2018-09-27T09:46:18Z</time>
      </trkpt>
      <trkpt lat="44.90394" lon="5.51897">
        <ele>2052.07</ele>
        <time>2018-09-27T09:46:32Z</time>
      </trkpt>
      <trkpt lat="44.90383" lon="5.51896">
        <ele>2054.96</ele>
        <time>2018-09-27T09:46:49Z</time>
      </trkpt>
      <trkpt lat="44.90376" lon="5.51901">
        <ele>2056.88</ele>
        <time>2018-09-27T09:47:02Z</time>
      </trkpt>
      <trkpt lat="44.90369" lon="5.51904">
        <ele>2057.84</ele>
        <time>2018-09-27T09:47:18Z</time>
      </trkpt>
      <trkpt lat="44.90369" lon="5.51904">
        <ele>2054.47</ele>
        <time>2018-09-27T09:47:24Z</time>
      </trkpt>
      <trkpt lat="44.9037" lon="5.51903">
        <ele>2057.36</ele>
        <time>2018-09-27T09:47:25Z</time>
      </trkpt>
      <trkpt lat="44.9037" lon="5.51903">
        <ele>2057.84</ele>
        <time>2018-09-27T09:47:54Z</time>
      </trkpt>
      <trkpt lat="44.9037" lon="5.51904">
        <ele>2057.84</ele>
        <time>2018-09-27T09:48:13Z</time>
      </trkpt>
      <trkpt lat="44.90369" lon="5.51904">
        <ele>2057.84</ele>
        <time>2018-09-27T09:48:38Z</time>
      </trkpt>
      <trkpt lat="44.90368" lon="5.51904">
        <ele>2057.84</ele>
        <time>2018-09-27T09:49:04Z</time>
      </trkpt>
      <trkpt lat="44.90368" lon="5.51903">
        <ele>2058.32</ele>
        <time>2018-09-27T09:49:23Z</time>
      </trkpt>
      <trkpt lat="44.90367" lon="5.51904">
        <ele>2059.28</ele>
        <time>2018-09-27T09:49:43Z</time>
      </trkpt>
      <trkpt lat="44.90367" lon="5.51903">
        <ele>2058.32</ele>
        <time>2018-09-27T09:49:46Z</time>
      </trkpt>
      <trkpt lat="44.90368" lon="5.51903">
        <ele>2058.32</ele>
        <time>2018-09-27T09:50:09Z</time>
      </trkpt>
      <trkpt lat="44.90368" lon="5.51903">
        <ele>2058.32</ele>
        <time>2018-09-27T09:50:32Z</time>
      </trkpt>
      <trkpt lat="44.90367" lon="5.51903">
        <ele>2058.8</ele>
        <time>2018-09-27T09:51:03Z</time>
      </trkpt>
      <trkpt lat="44.90367" lon="5.51904">
        <ele>2058.8</ele>
        <time>2018-09-27T09:51:37Z</time>
      </trkpt>
      <trkpt lat="44.90367" lon="5.51906">
        <ele>2058.8</ele>
        <time>2018-09-27T09:52:05Z</time>
      </trkpt>
      <trkpt lat="44.90357" lon="5.5191">
        <ele>2060.24</ele>
        <time>2018-09-27T09:52:17Z</time>
      </trkpt>
      <trkpt lat="44.90354" lon="5.51912">
        <ele>2060.24</ele>
        <time>2018-09-27T09:52:23Z</time>
      </trkpt>
      <trkpt lat="44.90343" lon="5.51919">
        <ele>2060.24</ele>
        <time>2018-09-27T09:52:38Z</time>
      </trkpt>
      <trkpt lat="44.90337" lon="5.51927">
        <ele>2061.2</ele>
        <time>2018-09-27T09:52:49Z</time>
      </trkpt>
      <trkpt lat="44.90329" lon="5.5194">
        <ele>2063.61</ele>
        <time>2018-09-27T09:53:05Z</time>
      </trkpt>
      <trkpt lat="44.90322" lon="5.51951">
        <ele>2065.05</ele>
        <time>2018-09-27T09:53:20Z</time>
      </trkpt>
      <trkpt lat="44.90316" lon="5.51961">
        <ele>2066.49</ele>
        <time>2018-09-27T09:53:34Z</time>
      </trkpt>
      <trkpt lat="44.90313" lon="5.51971">
        <ele>2068.89</ele>
        <time>2018-09-27T09:53:47Z</time>
      </trkpt>
      <trkpt lat="44.9031" lon="5.51987">
        <ele>2070.34</ele>
        <time>2018-09-27T09:54:03Z</time>
      </trkpt>
      <trkpt lat="44.90309" lon="5.52001">
        <ele>2071.78</ele>
        <time>2018-09-27T09:54:18Z</time>
      </trkpt>
      <trkpt lat="44.90306" lon="5.52006">
        <ele>2073.22</ele>
        <time>2018-09-27T09:54:25Z</time>
      </trkpt>
      <trkpt lat="44.90303" lon="5.52019">
        <ele>2074.18</ele>
        <time>2018-09-27T09:54:39Z</time>
      </trkpt>
      <trkpt lat="44.90303" lon="5.5203">
        <ele>2075.14</ele>
        <time>2018-09-27T09:54:50Z</time>
      </trkpt>
      <trkpt lat="44.903" lon="5.52036">
        <ele>2075.62</ele>
        <time>2018-09-27T09:54:57Z</time>
      </trkpt>
      <trkpt lat="44.90293" lon="5.52048">
        <ele>2074.66</ele>
        <time>2018-09-27T09:55:10Z</time>
      </trkpt>
      <trkpt lat="44.90286" lon="5.52056">
        <ele>2076.1</ele>
        <time>2018-09-27T09:55:20Z</time>
      </trkpt>
      <trkpt lat="44.90279" lon="5.52064">
        <ele>2076.59</ele>
        <time>2018-09-27T09:55:32Z</time>
      </trkpt>
      <trkpt lat="44.90275" lon="5.52066">
        <ele>2076.59</ele>
        <time>2018-09-27T09:55:45Z</time>
      </trkpt>
      <trkpt lat="44.90273" lon="5.52069">
        <ele>2075.14</ele>
        <time>2018-09-27T09:55:51Z</time>
      </trkpt>
      <trkpt lat="44.90269" lon="5.52076">
        <ele>2076.59</ele>
        <time>2018-09-27T09:56:05Z</time>
      </trkpt>
      <trkpt lat="44.90265" lon="5.52076">
        <ele>2076.59</ele>
        <time>2018-09-27T09:56:20Z</time>
      </trkpt>
      <trkpt lat="44.90264" lon="5.52074">
        <ele>2075.62</ele>
        <time>2018-09-27T09:56:48Z</time>
      </trkpt>
      <trkpt lat="44.90265" lon="5.52073">
        <ele>2075.14</ele>
        <time>2018-09-27T09:57:03Z</time>
      </trkpt>
      <trkpt lat="44.90265" lon="5.52075">
        <ele>2075.14</ele>
        <time>2018-09-27T09:57:20Z</time>
      </trkpt>
      <trkpt lat="44.90265" lon="5.52074">
        <ele>2075.62</ele>
        <time>2018-09-27T09:57:34Z</time>
      </trkpt>
      <trkpt lat="44.90264" lon="5.52074">
        <ele>2075.62</ele>
        <time>2018-09-27T09:57:48Z</time>
      </trkpt>
      <trkpt lat="44.90263" lon="5.52074">
        <ele>2075.62</ele>
        <time>2018-09-27T09:58:04Z</time>
      </trkpt>
      <trkpt lat="44.90265" lon="5.52074">
        <ele>2075.62</ele>
        <time>2018-09-27T09:58:29Z</time>
      </trkpt>
      <trkpt lat="44.90265" lon="5.52075">
        <ele>2075.62</ele>
        <time>2018-09-27T09:58:57Z</time>
      </trkpt>
      <trkpt lat="44.90265" lon="5.52073">
        <ele>2075.62</ele>
        <time>2018-09-27T09:59:14Z</time>
      </trkpt>
      <trkpt lat="44.90262" lon="5.52075">
        <ele>2075.62</ele>
        <time>2018-09-27T09:59:34Z</time>
      </trkpt>
      <trkpt lat="44.90264" lon="5.52072">
        <ele>2075.62</ele>
        <time>2018-09-27T09:59:52Z</time>
      </trkpt>
      <trkpt lat="44.90263" lon="5.52072">
        <ele>2075.62</ele>
        <time>2018-09-27T10:00:06Z</time>
      </trkpt>
      <trkpt lat="44.90264" lon="5.52076">
        <ele>2077.07</ele>
        <time>2018-09-27T10:00:35Z</time>
      </trkpt>
      <trkpt lat="44.90265" lon="5.52076">
        <ele>2077.07</ele>
        <time>2018-09-27T10:00:36Z</time>
      </trkpt>
      <trkpt lat="44.90265" lon="5.52077">
        <ele>2076.1</ele>
        <time>2018-09-27T10:00:58Z</time>
      </trkpt>
      <trkpt lat="44.90265" lon="5.52077">
        <ele>2076.1</ele>
        <time>2018-09-27T10:01:32Z</time>
      </trkpt>
      <trkpt lat="44.90263" lon="5.52079">
        <ele>2077.55</ele>
        <time>2018-09-27T10:01:51Z</time>
      </trkpt>
      <trkpt lat="44.90263" lon="5.52079">
        <ele>2077.55</ele>
        <time>2018-09-27T10:01:52Z</time>
      </trkpt>
      <trkpt lat="44.90261" lon="5.52076">
        <ele>2077.55</ele>
        <time>2018-09-27T10:02:18Z</time>
      </trkpt>
      <trkpt lat="44.90262" lon="5.52074">
        <ele>2076.59</ele>
        <time>2018-09-27T10:02:21Z</time>
      </trkpt>
      <trkpt lat="44.9026" lon="5.52077">
        <ele>2076.1</ele>
        <time>2018-09-27T10:02:39Z</time>
      </trkpt>
      <trkpt lat="44.90255" lon="5.52082">
        <ele>2076.1</ele>
        <time>2018-09-27T10:02:47Z</time>
      </trkpt>
      <trkpt lat="44.90248" lon="5.52084">
        <ele>2075.14</ele>
        <time>2018-09-27T10:02:59Z</time>
      </trkpt>
      <trkpt lat="44.90243" lon="5.5208">
        <ele>2074.66</ele>
        <time>2018-09-27T10:03:12Z</time>
      </trkpt>
      <trkpt lat="44.90239" lon="5.52078">
        <ele>2073.22</ele>
        <time>2018-09-27T10:03:28Z</time>
      </trkpt>
      <trkpt lat="44.90236" lon="5.52075">
        <ele>2072.26</ele>
        <time>2018-09-27T10:03:44Z</time>
      </trkpt>
      <trkpt lat="44.90234" lon="5.52077">
        <ele>2071.78</ele>
        <time>2018-09-27T10:03:58Z</time>
      </trkpt>
      <trkpt lat="44.90227" lon="5.52083">
        <ele>2073.22</ele>
        <time>2018-09-27T10:04:13Z</time>
      </trkpt>
      <trkpt lat="44.90219" lon="5.52091">
        <ele>2073.7</ele>
        <time>2018-09-27T10:04:28Z</time>
      </trkpt>
      <trkpt lat="44.90212" lon="5.52098">
        <ele>2074.18</ele>
        <time>2018-09-27T10:04:42Z</time>
      </trkpt>
      <trkpt lat="44.90208" lon="5.52101">
        <ele>2075.14</ele>
        <time>2018-09-27T10:04:49Z</time>
      </trkpt>
      <trkpt lat="44.90198" lon="5.5211">
        <ele>2075.62</ele>
        <time>2018-09-27T10:05:05Z</time>
      </trkpt>
      <trkpt lat="44.90191" lon="5.52117">
        <ele>2076.1</ele>
        <time>2018-09-27T10:05:18Z</time>
      </trkpt>
      <trkpt lat="44.9019" lon="5.5212">
        <ele>2076.1</ele>
        <time>2018-09-27T10:05:22Z</time>
      </trkpt>
      <trkpt lat="44.90181" lon="5.52125">
        <ele>2077.55</ele>
        <time>2018-09-27T10:05:36Z</time>
      </trkpt>
      <trkpt lat="44.90171" lon="5.52128">
        <ele>2078.03</ele>
        <time>2018-09-27T10:05:52Z</time>
      </trkpt>
      <trkpt lat="44.90163" lon="5.52134">
        <ele>2079.47</ele>
        <time>2018-09-27T10:06:07Z</time>
      </trkpt>
      <trkpt lat="44.90155" lon="5.52137">
        <ele>2079.95</ele>
        <time>2018-09-27T10:06:22Z</time>
      </trkpt>
      <trkpt lat="44.90145" lon="5.52141">
        <ele>2080.43</ele>
        <time>2018-09-27T10:06:36Z</time>
      </trkpt>
      <trkpt lat="44.90134" lon="5.52147">
        <ele>2080.43</ele>
        <time>2018-09-27T10:06:52Z</time>
      </trkpt>
      <trkpt lat="44.90129" lon="5.52149">
        <ele>2080.43</ele>
        <time>2018-09-27T10:07:06Z</time>
      </trkpt>
      <trkpt lat="44.90121" lon="5.52152">
        <ele>2079.47</ele>
        <time>2018-09-27T10:07:17Z</time>
      </trkpt>
      <trkpt lat="44.90111" lon="5.52158">
        <ele>2078.51</ele>
        <time>2018-09-27T10:07:31Z</time>
      </trkpt>
      <trkpt lat="44.901" lon="5.52164">
        <ele>2077.55</ele>
        <time>2018-09-27T10:07:43Z</time>
      </trkpt>
      <trkpt lat="44.90097" lon="5.52167">
        <ele>2078.99</ele>
        <time>2018-09-27T10:08:01Z</time>
      </trkpt>
      <trkpt lat="44.90095" lon="5.52169">
        <ele>2078.99</ele>
        <time>2018-09-27T10:08:24Z</time>
      </trkpt>
      <trkpt lat="44.90093" lon="5.52171">
        <ele>2078.99</ele>
        <time>2018-09-27T10:08:45Z</time>
      </trkpt>
      <trkpt lat="44.9009" lon="5.52172">
        <ele>2079.47</ele>
        <time>2018-09-27T10:08:58Z</time>
      </trkpt>
      <trkpt lat="44.90089" lon="5.52173">
        <ele>2079.47</ele>
        <time>2018-09-27T10:09:00Z</time>
      </trkpt>
      <trkpt lat="44.90078" lon="5.52179">
        <ele>2079.95</ele>
        <time>2018-09-27T10:09:15Z</time>
      </trkpt>
      <trkpt lat="44.90071" lon="5.52182">
        <ele>2080.91</ele>
        <time>2018-09-27T10:09:29Z</time>
      </trkpt>
      <trkpt lat="44.90063" lon="5.52186">
        <ele>2082.35</ele>
        <time>2018-09-27T10:09:41Z</time>
      </trkpt>
      <trkpt lat="44.90053" lon="5.52192">
        <ele>2083.79</ele>
        <time>2018-09-27T10:09:56Z</time>
      </trkpt>
      <trkpt lat="44.90049" lon="5.52196">
        <ele>2084.28</ele>
        <time>2018-09-27T10:10:02Z</time>
      </trkpt>
      <trkpt lat="44.90035" lon="5.52205">
        <ele>2082.83</ele>
        <time>2018-09-27T10:10:19Z</time>
      </trkpt>
      <trkpt lat="44.90027" lon="5.52212">
        <ele>2081.87</ele>
        <time>2018-09-27T10:10:32Z</time>
      </trkpt>
      <trkpt lat="44.90026" lon="5.52213">
        <ele>2082.35</ele>
        <time>2018-09-27T10:10:59Z</time>
      </trkpt>
      <trkpt lat="44.90027" lon="5.52213">
        <ele>2082.35</ele>
        <time>2018-09-27T10:11:32Z</time>
      </trkpt>
      <trkpt lat="44.90025" lon="5.52212">
        <ele>2082.35</ele>
        <time>2018-09-27T10:11:54Z</time>
      </trkpt>
      <trkpt lat="44.90025" lon="5.52217">
        <ele>2083.31</ele>
        <time>2018-09-27T10:12:12Z</time>
      </trkpt>
      <trkpt lat="44.90025" lon="5.52218">
        <ele>2083.31</ele>
        <time>2018-09-27T10:12:36Z</time>
      </trkpt>
      <trkpt lat="44.90023" lon="5.52219">
        <ele>2083.31</ele>
        <time>2018-09-27T10:13:10Z</time>
      </trkpt>
      <trkpt lat="44.90028" lon="5.52215">
        <ele>2083.31</ele>
        <time>2018-09-27T10:13:48Z</time>
      </trkpt>
      <trkpt lat="44.90029" lon="5.52216">
        <ele>2082.83</ele>
        <time>2018-09-27T10:14:20Z</time>
      </trkpt>
      <trkpt lat="44.90027" lon="5.5222">
        <ele>2082.83</ele>
        <time>2018-09-27T10:14:59Z</time>
      </trkpt>
      <trkpt lat="44.90027" lon="5.52219">
        <ele>2082.83</ele>
        <time>2018-09-27T10:15:19Z</time>
      </trkpt>
      <trkpt lat="44.90018" lon="5.52224">
        <ele>2080.91</ele>
        <time>2018-09-27T10:15:36Z</time>
      </trkpt>
      <trkpt lat="44.90015" lon="5.52225">
        <ele>2080.43</ele>
        <time>2018-09-27T10:15:39Z</time>
      </trkpt>
      <trkpt lat="44.90005" lon="5.52226">
        <ele>2077.07</ele>
        <time>2018-09-27T10:15:53Z</time>
      </trkpt>
      <trkpt lat="44.89998" lon="5.52229">
        <ele>2075.14</ele>
        <time>2018-09-27T10:16:10Z</time>
      </trkpt>
      <trkpt lat="44.89996" lon="5.52227">
        <ele>2074.66</ele>
        <time>2018-09-27T10:16:33Z</time>
      </trkpt>
      <trkpt lat="44.89996" lon="5.52227">
        <ele>2074.66</ele>
        <time>2018-09-27T10:16:34Z</time>
      </trkpt>
      <trkpt lat="44.89993" lon="5.52219">
        <ele>2074.66</ele>
        <time>2018-09-27T10:16:41Z</time>
      </trkpt>
      <trkpt lat="44.89989" lon="5.52217">
        <ele>2074.18</ele>
        <time>2018-09-27T10:16:45Z</time>
      </trkpt>
      <trkpt lat="44.89976" lon="5.52222">
        <ele>2075.14</ele>
        <time>2018-09-27T10:17:01Z</time>
      </trkpt>
      <trkpt lat="44.89972" lon="5.52232">
        <ele>2078.03</ele>
        <time>2018-09-27T10:17:15Z</time>
      </trkpt>
      <trkpt lat="44.89971" lon="5.52241">
        <ele>2080.43</ele>
        <time>2018-09-27T10:17:30Z</time>
      </trkpt>
      <trkpt lat="44.89968" lon="5.52245">
        <ele>2082.83</ele>
        <time>2018-09-27T10:17:43Z</time>
      </trkpt>
      <trkpt lat="44.89961" lon="5.52249">
        <ele>2085.24</ele>
        <time>2018-09-27T10:18:01Z</time>
      </trkpt>
      <trkpt lat="44.89961" lon="5.52265">
        <ele>2089.08</ele>
        <time>2018-09-27T10:18:21Z</time>
      </trkpt>
      <trkpt lat="44.89956" lon="5.5227">
        <ele>2091</ele>
        <time>2018-09-27T10:18:37Z</time>
      </trkpt>
      <trkpt lat="44.89954" lon="5.52277">
        <ele>2092.45</ele>
        <time>2018-09-27T10:18:51Z</time>
      </trkpt>
      <trkpt lat="44.89949" lon="5.52279">
        <ele>2094.85</ele>
        <time>2018-09-27T10:19:04Z</time>
      </trkpt>
      <trkpt lat="44.89945" lon="5.52283">
        <ele>2097.25</ele>
        <time>2018-09-27T10:19:17Z</time>
      </trkpt>
      <trkpt lat="44.89946" lon="5.52295">
        <ele>2099.66</ele>
        <time>2018-09-27T10:19:33Z</time>
      </trkpt>
      <trkpt lat="44.89944" lon="5.52303">
        <ele>2101.58</ele>
        <time>2018-09-27T10:19:48Z</time>
      </trkpt>
      <trkpt lat="44.89943" lon="5.52305">
        <ele>2102.54</ele>
        <time>2018-09-27T10:20:13Z</time>
      </trkpt>
      <trkpt lat="44.89946" lon="5.52313">
        <ele>2103.02</ele>
        <time>2018-09-27T10:20:28Z</time>
      </trkpt>
      <trkpt lat="44.89944" lon="5.52313">
        <ele>2102.06</ele>
        <time>2018-09-27T10:20:55Z</time>
      </trkpt>
      <trkpt lat="44.89943" lon="5.52314">
        <ele>2102.06</ele>
        <time>2018-09-27T10:21:03Z</time>
      </trkpt>
      <trkpt lat="44.89942" lon="5.52313">
        <ele>2103.5</ele>
        <time>2018-09-27T10:21:06Z</time>
      </trkpt>
      <trkpt lat="44.89943" lon="5.5231">
        <ele>2103.5</ele>
        <time>2018-09-27T10:21:27Z</time>
      </trkpt>
      <trkpt lat="44.89939" lon="5.5231">
        <ele>2104.94</ele>
        <time>2018-09-27T10:21:46Z</time>
      </trkpt>
      <trkpt lat="44.89932" lon="5.52309">
        <ele>2105.91</ele>
        <time>2018-09-27T10:22:00Z</time>
      </trkpt>
      <trkpt lat="44.89923" lon="5.52302">
        <ele>2108.31</ele>
        <time>2018-09-27T10:22:14Z</time>
      </trkpt>
      <trkpt lat="44.89917" lon="5.52305">
        <ele>2111.19</ele>
        <time>2018-09-27T10:22:28Z</time>
      </trkpt>
      <trkpt lat="44.89912" lon="5.5231">
        <ele>2113.6</ele>
        <time>2018-09-27T10:22:41Z</time>
      </trkpt>
      <trkpt lat="44.89907" lon="5.52315">
        <ele>2115.52</ele>
        <time>2018-09-27T10:22:57Z</time>
      </trkpt>
      <trkpt lat="44.89905" lon="5.52313">
        <ele>2115.52</ele>
        <time>2018-09-27T10:23:23Z</time>
      </trkpt>
      <trkpt lat="44.89905" lon="5.52313">
        <ele>2115.52</ele>
        <time>2018-09-27T10:23:26Z</time>
      </trkpt>
      <trkpt lat="44.89895" lon="5.52298">
        <ele>2117.44</ele>
        <time>2018-09-27T10:23:43Z</time>
      </trkpt>
      <trkpt lat="44.89893" lon="5.52297">
        <ele>2118.4</ele>
        <time>2018-09-27T10:24:01Z</time>
      </trkpt>
      <trkpt lat="44.89893" lon="5.52298">
        <ele>2118.4</ele>
        <time>2018-09-27T10:24:33Z</time>
      </trkpt>
      <trkpt lat="44.89892" lon="5.52298">
        <ele>2118.4</ele>
        <time>2018-09-27T10:25:04Z</time>
      </trkpt>
      <trkpt lat="44.89892" lon="5.52298">
        <ele>2118.88</ele>
        <time>2018-09-27T10:25:39Z</time>
      </trkpt>
      <trkpt lat="44.89892" lon="5.52298">
        <ele>2118.88</ele>
        <time>2018-09-27T10:26:10Z</time>
      </trkpt>
      <trkpt lat="44.89892" lon="5.52299">
        <ele>2118.88</ele>
        <time>2018-09-27T10:26:47Z</time>
      </trkpt>
      <trkpt lat="44.89893" lon="5.52299">
        <ele>2119.36</ele>
        <time>2018-09-27T10:27:29Z</time>
      </trkpt>
      <trkpt lat="44.89893" lon="5.52299">
        <ele>2119.36</ele>
        <time>2018-09-27T10:28:08Z</time>
      </trkpt>
      <trkpt lat="44.89892" lon="5.52294">
        <ele>2119.36</ele>
        <time>2018-09-27T10:28:24Z</time>
      </trkpt>
      <trkpt lat="44.89892" lon="5.52293">
        <ele>2119.36</ele>
        <time>2018-09-27T10:28:44Z</time>
      </trkpt>
      <trkpt lat="44.89892" lon="5.52292">
        <ele>2117.92</ele>
        <time>2018-09-27T10:29:04Z</time>
      </trkpt>
      <trkpt lat="44.89892" lon="5.52293">
        <ele>2117.92</ele>
        <time>2018-09-27T10:29:49Z</time>
      </trkpt>
      <trkpt lat="44.89892" lon="5.52293">
        <ele>2118.4</ele>
        <time>2018-09-27T10:30:31Z</time>
      </trkpt>
      <trkpt lat="44.89892" lon="5.52293">
        <ele>2118.4</ele>
        <time>2018-09-27T10:31:10Z</time>
      </trkpt>
      <trkpt lat="44.89892" lon="5.52293">
        <ele>2118.4</ele>
        <time>2018-09-27T10:31:50Z</time>
      </trkpt>
      <trkpt lat="44.89892" lon="5.52292">
        <ele>2118.4</ele>
        <time>2018-09-27T10:32:22Z</time>
      </trkpt>
      <trkpt lat="44.89892" lon="5.52293">
        <ele>2118.4</ele>
        <time>2018-09-27T10:32:58Z</time>
      </trkpt>
      <trkpt lat="44.89892" lon="5.52293">
        <ele>2118.4</ele>
        <time>2018-09-27T10:33:50Z</time>
      </trkpt>
      <trkpt lat="44.89892" lon="5.52293">
        <ele>2118.88</ele>
        <time>2018-09-27T10:34:34Z</time>
      </trkpt>
      <trkpt lat="44.89892" lon="5.52293">
        <ele>2118.88</ele>
        <time>2018-09-27T10:35:08Z</time>
      </trkpt>
      <trkpt lat="44.89892" lon="5.52293">
        <ele>2118.88</ele>
        <time>2018-09-27T10:35:53Z</time>
      </trkpt>
      <trkpt lat="44.89892" lon="5.52292">
        <ele>2118.88</ele>
        <time>2018-09-27T10:36:43Z</time>
      </trkpt>
      <trkpt lat="44.89891" lon="5.52292">
        <ele>2118.88</ele>
        <time>2018-09-27T10:37:23Z</time>
      </trkpt>
      <trkpt lat="44.89891" lon="5.52292">
        <ele>2118.88</ele>
        <time>2018-09-27T10:38:04Z</time>
      </trkpt>
      <trkpt lat="44.89892" lon="5.52293">
        <ele>2118.88</ele>
        <time>2018-09-27T10:38:47Z</time>
      </trkpt>
      <trkpt lat="44.89892" lon="5.52293">
        <ele>2118.88</ele>
        <time>2018-09-27T10:39:31Z</time>
      </trkpt>
      <trkpt lat="44.89892" lon="5.52292">
        <ele>2119.36</ele>
        <time>2018-09-27T10:40:11Z</time>
      </trkpt>
      <trkpt lat="44.89893" lon="5.52292">
        <ele>2119.36</ele>
        <time>2018-09-27T10:41:05Z</time>
      </trkpt>
      <trkpt lat="44.89892" lon="5.52293">
        <ele>2119.36</ele>
        <time>2018-09-27T10:41:40Z</time>
      </trkpt>
      <trkpt lat="44.89892" lon="5.52292">
        <ele>2119.36</ele>
        <time>2018-09-27T10:42:21Z</time>
      </trkpt>
      <trkpt lat="44.89892" lon="5.52292">
        <ele>2119.36</ele>
        <time>2018-09-27T10:42:57Z</time>
      </trkpt>
      <trkpt lat="44.89893" lon="5.52293">
        <ele>2119.36</ele>
        <time>2018-09-27T10:43:36Z</time>
      </trkpt>
      <trkpt lat="44.89893" lon="5.52293">
        <ele>2119.36</ele>
        <time>2018-09-27T10:44:19Z</time>
      </trkpt>
      <trkpt lat="44.89893" lon="5.52293">
        <ele>2119.36</ele>
        <time>2018-09-27T10:44:58Z</time>
      </trkpt>
      <trkpt lat="44.89893" lon="5.52293">
        <ele>2119.36</ele>
        <time>2018-09-27T10:45:49Z</time>
      </trkpt>
      <trkpt lat="44.89893" lon="5.52293">
        <ele>2119.36</ele>
        <time>2018-09-27T10:46:37Z</time>
      </trkpt>
      <trkpt lat="44.89893" lon="5.52294">
        <ele>2119.84</ele>
        <time>2018-09-27T10:47:18Z</time>
      </trkpt>
      <trkpt lat="44.89893" lon="5.52293">
        <ele>2119.84</ele>
        <time>2018-09-27T10:47:51Z</time>
      </trkpt>
      <trkpt lat="44.89893" lon="5.52294">
        <ele>2119.84</ele>
        <time>2018-09-27T10:48:33Z</time>
      </trkpt>
      <trkpt lat="44.89894" lon="5.52294">
        <ele>2119.84</ele>
        <time>2018-09-27T10:49:23Z</time>
      </trkpt>
      <trkpt lat="44.89894" lon="5.52294">
        <ele>2119.84</ele>
        <time>2018-09-27T10:49:58Z</time>
      </trkpt>
      <trkpt lat="44.89894" lon="5.52294">
        <ele>2119.84</ele>
        <time>2018-09-27T10:50:35Z</time>
      </trkpt>
      <trkpt lat="44.89893" lon="5.52294">
        <ele>2120.32</ele>
        <time>2018-09-27T10:51:03Z</time>
      </trkpt>
      <trkpt lat="44.89893" lon="5.52295">
        <ele>2120.32</ele>
        <time>2018-09-27T10:51:52Z</time>
      </trkpt>
      <trkpt lat="44.89892" lon="5.52294">
        <ele>2120.32</ele>
        <time>2018-09-27T10:52:32Z</time>
      </trkpt>
      <trkpt lat="44.89892" lon="5.52294">
        <ele>2120.32</ele>
        <time>2018-09-27T10:53:05Z</time>
      </trkpt>
      <trkpt lat="44.89892" lon="5.52294">
        <ele>2120.81</ele>
        <time>2018-09-27T10:53:45Z</time>
      </trkpt>
      <trkpt lat="44.89891" lon="5.52294">
        <ele>2120.81</ele>
        <time>2018-09-27T10:54:23Z</time>
      </trkpt>
      <trkpt lat="44.89892" lon="5.52294">
        <ele>2120.81</ele>
        <time>2018-09-27T10:55:06Z</time>
      </trkpt>
      <trkpt lat="44.89892" lon="5.52294">
        <ele>2120.81</ele>
        <time>2018-09-27T10:55:55Z</time>
      </trkpt>
      <trkpt lat="44.89891" lon="5.52294">
        <ele>2121.29</ele>
        <time>2018-09-27T10:56:31Z</time>
      </trkpt>
      <trkpt lat="44.89891" lon="5.52294">
        <ele>2121.29</ele>
        <time>2018-09-27T10:57:02Z</time>
      </trkpt>
      <trkpt lat="44.89892" lon="5.52294">
        <ele>2121.29</ele>
        <time>2018-09-27T10:57:46Z</time>
      </trkpt>
      <trkpt lat="44.89892" lon="5.52294">
        <ele>2121.29</ele>
        <time>2018-09-27T10:58:28Z</time>
      </trkpt>
      <trkpt lat="44.89891" lon="5.52294">
        <ele>2121.77</ele>
        <time>2018-09-27T10:59:22Z</time>
      </trkpt>
      <trkpt lat="44.89892" lon="5.52294">
        <ele>2122.25</ele>
        <time>2018-09-27T11:00:16Z</time>
      </trkpt>
      <trkpt lat="44.89892" lon="5.52294">
        <ele>2122.25</ele>
        <time>2018-09-27T11:01:07Z</time>
      </trkpt>
      <trkpt lat="44.89891" lon="5.52294">
        <ele>2122.73</ele>
        <time>2018-09-27T11:01:48Z</time>
      </trkpt>
      <trkpt lat="44.89891" lon="5.52294">
        <ele>2122.73</ele>
        <time>2018-09-27T11:02:28Z</time>
      </trkpt>
      <trkpt lat="44.89891" lon="5.52294">
        <ele>2122.73</ele>
        <time>2018-09-27T11:03:03Z</time>
      </trkpt>
      <trkpt lat="44.89891" lon="5.52294">
        <ele>2122.73</ele>
        <time>2018-09-27T11:03:37Z</time>
      </trkpt>
      <trkpt lat="44.89891" lon="5.52295">
        <ele>2122.73</ele>
        <time>2018-09-27T11:04:17Z</time>
      </trkpt>
      <trkpt lat="44.89892" lon="5.52294">
        <ele>2123.21</ele>
        <time>2018-09-27T11:05:02Z</time>
      </trkpt>
      <trkpt lat="44.89892" lon="5.52294">
        <ele>2123.21</ele>
        <time>2018-09-27T11:05:46Z</time>
      </trkpt>
      <trkpt lat="44.89892" lon="5.52294">
        <ele>2123.21</ele>
        <time>2018-09-27T11:06:30Z</time>
      </trkpt>
      <trkpt lat="44.89891" lon="5.52294">
        <ele>2123.21</ele>
        <time>2018-09-27T11:07:18Z</time>
      </trkpt>
      <trkpt lat="44.89891" lon="5.52294">
        <ele>2123.21</ele>
        <time>2018-09-27T11:08:00Z</time>
      </trkpt>
      <trkpt lat="44.8989" lon="5.52294">
        <ele>2123.21</ele>
        <time>2018-09-27T11:08:48Z</time>
      </trkpt>
      <trkpt lat="44.89891" lon="5.52294">
        <ele>2123.21</ele>
        <time>2018-09-27T11:09:27Z</time>
      </trkpt>
      <trkpt lat="44.89891" lon="5.52294">
        <ele>2123.21</ele>
        <time>2018-09-27T11:10:05Z</time>
      </trkpt>
      <trkpt lat="44.89891" lon="5.52293">
        <ele>2123.69</ele>
        <time>2018-09-27T11:10:39Z</time>
      </trkpt>
      <trkpt lat="44.89891" lon="5.52293">
        <ele>2123.69</ele>
        <time>2018-09-27T11:11:22Z</time>
      </trkpt>
      <trkpt lat="44.89891" lon="5.52294">
        <ele>2123.69</ele>
        <time>2018-09-27T11:11:51Z</time>
      </trkpt>
      <trkpt lat="44.8989" lon="5.52294">
        <ele>2123.69</ele>
        <time>2018-09-27T11:12:31Z</time>
      </trkpt>
      <trkpt lat="44.89891" lon="5.52293">
        <ele>2123.69</ele>
        <time>2018-09-27T11:13:12Z</time>
      </trkpt>
      <trkpt lat="44.8989" lon="5.52293">
        <ele>2123.69</ele>
        <time>2018-09-27T11:13:58Z</time>
      </trkpt>
      <trkpt lat="44.89891" lon="5.52293">
        <ele>2123.69</ele>
        <time>2018-09-27T11:14:37Z</time>
      </trkpt>
      <trkpt lat="44.89891" lon="5.52293">
        <ele>2123.69</ele>
        <time>2018-09-27T11:15:12Z</time>
      </trkpt>
      <trkpt lat="44.89891" lon="5.52293">
        <ele>2123.69</ele>
        <time>2018-09-27T11:15:48Z</time>
      </trkpt>
      <trkpt lat="44.89891" lon="5.52293">
        <ele>2123.69</ele>
        <time>2018-09-27T11:16:30Z</time>
      </trkpt>
      <trkpt lat="44.89891" lon="5.52293">
        <ele>2123.69</ele>
        <time>2018-09-27T11:16:59Z</time>
      </trkpt>
      <trkpt lat="44.89891" lon="5.52293">
        <ele>2123.69</ele>
        <time>2018-09-27T11:17:42Z</time>
      </trkpt>
      <trkpt lat="44.89891" lon="5.52293">
        <ele>2122.73</ele>
        <time>2018-09-27T11:18:27Z</time>
      </trkpt>
      <trkpt lat="44.89891" lon="5.52293">
        <ele>2122.73</ele>
        <time>2018-09-27T11:19:03Z</time>
      </trkpt>
      <trkpt lat="44.8989" lon="5.52292">
        <ele>2122.73</ele>
        <time>2018-09-27T11:19:43Z</time>
      </trkpt>
      <trkpt lat="44.89891" lon="5.52292">
        <ele>2122.73</ele>
        <time>2018-09-27T11:20:25Z</time>
      </trkpt>
      <trkpt lat="44.89891" lon="5.52294">
        <ele>2122.25</ele>
        <time>2018-09-27T11:21:00Z</time>
      </trkpt>
      <trkpt lat="44.8989" lon="5.52293">
        <ele>2122.25</ele>
        <time>2018-09-27T11:21:45Z</time>
      </trkpt>
      <trkpt lat="44.8989" lon="5.52292">
        <ele>2123.69</ele>
        <time>2018-09-27T11:22:14Z</time>
      </trkpt>
      <trkpt lat="44.89889" lon="5.52293">
        <ele>2123.69</ele>
        <time>2018-09-27T11:22:27Z</time>
      </trkpt>
      <trkpt lat="44.8989" lon="5.52294">
        <ele>2124.17</ele>
        <time>2018-09-27T11:22:50Z</time>
      </trkpt>
      <trkpt lat="44.8989" lon="5.52294">
        <ele>2123.69</ele>
        <time>2018-09-27T11:23:16Z</time>
      </trkpt>
      <trkpt lat="44.89891" lon="5.52293">
        <ele>2123.69</ele>
        <time>2018-09-27T11:23:40Z</time>
      </trkpt>
      <trkpt lat="44.89891" lon="5.52292">
        <ele>2125.13</ele>
        <time>2018-09-27T11:23:42Z</time>
      </trkpt>
      <trkpt lat="44.89891" lon="5.52292">
        <ele>2125.13</ele>
        <time>2018-09-27T11:24:05Z</time>
      </trkpt>
      <trkpt lat="44.89891" lon="5.52293">
        <ele>2124.65</ele>
        <time>2018-09-27T11:24:32Z</time>
      </trkpt>
      <trkpt lat="44.89891" lon="5.52293">
        <ele>2123.69</ele>
        <time>2018-09-27T11:24:57Z</time>
      </trkpt>
      <trkpt lat="44.89891" lon="5.52291">
        <ele>2123.69</ele>
        <time>2018-09-27T11:25:19Z</time>
      </trkpt>
      <trkpt lat="44.89891" lon="5.52291">
        <ele>2125.13</ele>
        <time>2018-09-27T11:25:24Z</time>
      </trkpt>
      <trkpt lat="44.89891" lon="5.52292">
        <ele>2123.69</ele>
        <time>2018-09-27T11:25:54Z</time>
      </trkpt>
      <trkpt lat="44.89891" lon="5.52292">
        <ele>2123.21</ele>
        <time>2018-09-27T11:26:04Z</time>
      </trkpt>
      <trkpt lat="44.89891" lon="5.52292">
        <ele>2124.65</ele>
        <time>2018-09-27T11:26:07Z</time>
      </trkpt>
      <trkpt lat="44.89891" lon="5.52292">
        <ele>2123.69</ele>
        <time>2018-09-27T11:26:30Z</time>
      </trkpt>
      <trkpt lat="44.89889" lon="5.52289">
        <ele>2125.13</ele>
        <time>2018-09-27T11:26:44Z</time>
      </trkpt>
      <trkpt lat="44.89887" lon="5.52286">
        <ele>2123.69</ele>
        <time>2018-09-27T11:27:00Z</time>
      </trkpt>
      <trkpt lat="44.89885" lon="5.52279">
        <ele>2123.21</ele>
        <time>2018-09-27T11:27:15Z</time>
      </trkpt>
      <trkpt lat="44.89883" lon="5.52267">
        <ele>2121.77</ele>
        <time>2018-09-27T11:27:29Z</time>
      </trkpt>
      <trkpt lat="44.89877" lon="5.52258">
        <ele>2120.32</ele>
        <time>2018-09-27T11:27:43Z</time>
      </trkpt>
      <trkpt lat="44.89877" lon="5.52258">
        <ele>2120.32</ele>
        <time>2018-09-27T11:28:08Z</time>
      </trkpt>
      <trkpt lat="44.89872" lon="5.52248">
        <ele>2118.88</ele>
        <time>2018-09-27T11:28:22Z</time>
      </trkpt>
      <trkpt lat="44.89868" lon="5.52243">
        <ele>2118.88</ele>
        <time>2018-09-27T11:28:28Z</time>
      </trkpt>
      <trkpt lat="44.89857" lon="5.52233">
        <ele>2117.44</ele>
        <time>2018-09-27T11:28:45Z</time>
      </trkpt>
      <trkpt lat="44.8985" lon="5.52224">
        <ele>2115.52</ele>
        <time>2018-09-27T11:28:58Z</time>
      </trkpt>
      <trkpt lat="44.89847" lon="5.52221">
        <ele>2115.52</ele>
        <time>2018-09-27T11:29:03Z</time>
      </trkpt>
      <trkpt lat="44.8984" lon="5.52215">
        <ele>2113.12</ele>
        <time>2018-09-27T11:29:20Z</time>
      </trkpt>
      <trkpt lat="44.89831" lon="5.52203">
        <ele>2109.27</ele>
        <time>2018-09-27T11:29:38Z</time>
      </trkpt>
      <trkpt lat="44.89826" lon="5.52192">
        <ele>2106.39</ele>
        <time>2018-09-27T11:29:53Z</time>
      </trkpt>
      <trkpt lat="44.8982" lon="5.52185">
        <ele>2103.02</ele>
        <time>2018-09-27T11:30:10Z</time>
      </trkpt>
      <trkpt lat="44.89812" lon="5.5218">
        <ele>2100.14</ele>
        <time>2018-09-27T11:30:26Z</time>
      </trkpt>
      <trkpt lat="44.89811" lon="5.52179">
        <ele>2098.7</ele>
        <time>2018-09-27T11:30:31Z</time>
      </trkpt>
      <trkpt lat="44.89805" lon="5.52179">
        <ele>2096.77</ele>
        <time>2018-09-27T11:30:46Z</time>
      </trkpt>
      <trkpt lat="44.898" lon="5.52181">
        <ele>2094.85</ele>
        <time>2018-09-27T11:31:02Z</time>
      </trkpt>
      <trkpt lat="44.89794" lon="5.52183">
        <ele>2092.93</ele>
        <time>2018-09-27T11:31:18Z</time>
      </trkpt>
      <trkpt lat="44.89787" lon="5.52186">
        <ele>2090.52</ele>
        <time>2018-09-27T11:31:33Z</time>
      </trkpt>
      <trkpt lat="44.89783" lon="5.52184">
        <ele>2087.64</ele>
        <time>2018-09-27T11:31:47Z</time>
      </trkpt>
      <trkpt lat="44.89776" lon="5.52186">
        <ele>2085.72</ele>
        <time>2018-09-27T11:32:04Z</time>
      </trkpt>
      <trkpt lat="44.89772" lon="5.52184">
        <ele>2084.28</ele>
        <time>2018-09-27T11:32:24Z</time>
      </trkpt>
      <trkpt lat="44.89771" lon="5.52183">
        <ele>2083.79</ele>
        <time>2018-09-27T11:32:43Z</time>
      </trkpt>
      <trkpt lat="44.89765" lon="5.52183">
        <ele>2080.91</ele>
        <time>2018-09-27T11:32:59Z</time>
      </trkpt>
      <trkpt lat="44.89756" lon="5.52184">
        <ele>2078.03</ele>
        <time>2018-09-27T11:33:13Z</time>
      </trkpt>
      <trkpt lat="44.89747" lon="5.52185">
        <ele>2075.62</ele>
        <time>2018-09-27T11:33:28Z</time>
      </trkpt>
      <trkpt lat="44.89738" lon="5.52185">
        <ele>2072.74</ele>
        <time>2018-09-27T11:33:41Z</time>
      </trkpt>
      <trkpt lat="44.89736" lon="5.52184">
        <ele>2071.3</ele>
        <time>2018-09-27T11:33:46Z</time>
      </trkpt>
      <trkpt lat="44.89731" lon="5.52181">
        <ele>2068.41</ele>
        <time>2018-09-27T11:33:58Z</time>
      </trkpt>
      <trkpt lat="44.89724" lon="5.52179">
        <ele>2066.01</ele>
        <time>2018-09-27T11:34:12Z</time>
      </trkpt>
      <trkpt lat="44.89717" lon="5.52175">
        <ele>2062.17</ele>
        <time>2018-09-27T11:34:27Z</time>
      </trkpt>
      <trkpt lat="44.89712" lon="5.52172">
        <ele>2060.24</ele>
        <time>2018-09-27T11:34:44Z</time>
      </trkpt>
      <trkpt lat="44.89707" lon="5.52166">
        <ele>2057.84</ele>
        <time>2018-09-27T11:34:58Z</time>
      </trkpt>
      <trkpt lat="44.89699" lon="5.52167">
        <ele>2054.96</ele>
        <time>2018-09-27T11:35:12Z</time>
      </trkpt>
      <trkpt lat="44.89696" lon="5.52166">
        <ele>2053.03</ele>
        <time>2018-09-27T11:35:18Z</time>
      </trkpt>
      <trkpt lat="44.89685" lon="5.52166">
        <ele>2050.63</ele>
        <time>2018-09-27T11:35:31Z</time>
      </trkpt>
      <trkpt lat="44.89672" lon="5.52162">
        <ele>2048.23</ele>
        <time>2018-09-27T11:35:46Z</time>
      </trkpt>
      <trkpt lat="44.89661" lon="5.52163">
        <ele>2047.26</ele>
        <time>2018-09-27T11:36:01Z</time>
      </trkpt>
      <trkpt lat="44.8965" lon="5.52167">
        <ele>2048.71</ele>
        <time>2018-09-27T11:36:13Z</time>
      </trkpt>
      <trkpt lat="44.89642" lon="5.5217">
        <ele>2048.71</ele>
        <time>2018-09-27T11:36:28Z</time>
      </trkpt>
      <trkpt lat="44.89641" lon="5.52171">
        <ele>2048.71</ele>
        <time>2018-09-27T11:36:37Z</time>
      </trkpt>
      <trkpt lat="44.89639" lon="5.5217">
        <ele>2049.67</ele>
        <time>2018-09-27T11:36:40Z</time>
      </trkpt>
      <trkpt lat="44.8963" lon="5.52165">
        <ele>2050.15</ele>
        <time>2018-09-27T11:36:54Z</time>
      </trkpt>
      <trkpt lat="44.89627" lon="5.52162">
        <ele>2049.19</ele>
        <time>2018-09-27T11:37:02Z</time>
      </trkpt>
      <trkpt lat="44.89623" lon="5.52159">
        <ele>2048.71</ele>
        <time>2018-09-27T11:37:14Z</time>
      </trkpt>
      <trkpt lat="44.89614" lon="5.52152">
        <ele>2047.75</ele>
        <time>2018-09-27T11:37:26Z</time>
      </trkpt>
      <trkpt lat="44.89605" lon="5.52145">
        <ele>2046.3</ele>
        <time>2018-09-27T11:37:39Z</time>
      </trkpt>
      <trkpt lat="44.89598" lon="5.5214">
        <ele>2044.38</ele>
        <time>2018-09-27T11:37:53Z</time>
      </trkpt>
      <trkpt lat="44.89594" lon="5.52135">
        <ele>2042.94</ele>
        <time>2018-09-27T11:38:06Z</time>
      </trkpt>
      <trkpt lat="44.89587" lon="5.52129">
        <ele>2041.5</ele>
        <time>2018-09-27T11:38:20Z</time>
      </trkpt>
      <trkpt lat="44.89573" lon="5.52123">
        <ele>2041.5</ele>
        <time>2018-09-27T11:38:34Z</time>
      </trkpt>
      <trkpt lat="44.8956" lon="5.52115">
        <ele>2040.05</ele>
        <time>2018-09-27T11:38:49Z</time>
      </trkpt>
      <trkpt lat="44.89547" lon="5.52113">
        <ele>2039.57</ele>
        <time>2018-09-27T11:39:03Z</time>
      </trkpt>
      <trkpt lat="44.89539" lon="5.52108">
        <ele>2036.21</ele>
        <time>2018-09-27T11:39:19Z</time>
      </trkpt>
      <trkpt lat="44.89533" lon="5.52104">
        <ele>2034.29</ele>
        <time>2018-09-27T11:39:33Z</time>
      </trkpt>
      <trkpt lat="44.89525" lon="5.52101">
        <ele>2031.88</ele>
        <time>2018-09-27T11:39:49Z</time>
      </trkpt>
      <trkpt lat="44.89517" lon="5.52102">
        <ele>2029</ele>
        <time>2018-09-27T11:40:04Z</time>
      </trkpt>
      <trkpt lat="44.89512" lon="5.52097">
        <ele>2025.64</ele>
        <time>2018-09-27T11:40:19Z</time>
      </trkpt>
      <trkpt lat="44.89506" lon="5.52092">
        <ele>2022.27</ele>
        <time>2018-09-27T11:40:34Z</time>
      </trkpt>
      <trkpt lat="44.89502" lon="5.52088">
        <ele>2019.39</ele>
        <time>2018-09-27T11:40:45Z</time>
      </trkpt>
      <trkpt lat="44.89498" lon="5.52085">
        <ele>2016.98</ele>
        <time>2018-09-27T11:41:01Z</time>
      </trkpt>
      <trkpt lat="44.89495" lon="5.5208">
        <ele>2015.54</ele>
        <time>2018-09-27T11:41:17Z</time>
      </trkpt>
      <trkpt lat="44.89494" lon="5.52079">
        <ele>2013.62</ele>
        <time>2018-09-27T11:41:20Z</time>
      </trkpt>
      <trkpt lat="44.89486" lon="5.52078">
        <ele>2010.73</ele>
        <time>2018-09-27T11:41:34Z</time>
      </trkpt>
      <trkpt lat="44.8948" lon="5.52073">
        <ele>2008.33</ele>
        <time>2018-09-27T11:41:49Z</time>
      </trkpt>
      <trkpt lat="44.89475" lon="5.5207">
        <ele>2005.45</ele>
        <time>2018-09-27T11:42:03Z</time>
      </trkpt>
      <trkpt lat="44.89469" lon="5.5207">
        <ele>2004.49</ele>
        <time>2018-09-27T11:42:17Z</time>
      </trkpt>
      <trkpt lat="44.8946" lon="5.52069">
        <ele>2002.56</ele>
        <time>2018-09-27T11:42:29Z</time>
      </trkpt>
      <trkpt lat="44.89454" lon="5.52067">
        <ele>2001.6</ele>
        <time>2018-09-27T11:42:44Z</time>
      </trkpt>
      <trkpt lat="44.89443" lon="5.52061">
        <ele>1999.2</ele>
        <time>2018-09-27T11:42:55Z</time>
      </trkpt>
      <trkpt lat="44.89429" lon="5.52055">
        <ele>1995.83</ele>
        <time>2018-09-27T11:43:13Z</time>
      </trkpt>
      <trkpt lat="44.89418" lon="5.52048">
        <ele>1992.47</ele>
        <time>2018-09-27T11:43:28Z</time>
      </trkpt>
      <trkpt lat="44.89415" lon="5.52046">
        <ele>1991.03</ele>
        <time>2018-09-27T11:43:48Z</time>
      </trkpt>
      <trkpt lat="44.89408" lon="5.52043">
        <ele>1989.1</ele>
        <time>2018-09-27T11:44:02Z</time>
      </trkpt>
      <trkpt lat="44.894" lon="5.5204">
        <ele>1986.7</ele>
        <time>2018-09-27T11:44:16Z</time>
      </trkpt>
      <trkpt lat="44.89392" lon="5.52039">
        <ele>1985.74</ele>
        <time>2018-09-27T11:44:31Z</time>
      </trkpt>
      <trkpt lat="44.89389" lon="5.52039">
        <ele>1985.26</ele>
        <time>2018-09-27T11:44:34Z</time>
      </trkpt>
      <trkpt lat="44.89383" lon="5.52038">
        <ele>1984.78</ele>
        <time>2018-09-27T11:44:44Z</time>
      </trkpt>
      <trkpt lat="44.89371" lon="5.52039">
        <ele>1983.34</ele>
        <time>2018-09-27T11:45:00Z</time>
      </trkpt>
      <trkpt lat="44.8936" lon="5.5204">
        <ele>1983.82</ele>
        <time>2018-09-27T11:45:17Z</time>
      </trkpt>
      <trkpt lat="44.8936" lon="5.5204">
        <ele>1983.82</ele>
        <time>2018-09-27T11:45:39Z</time>
      </trkpt>
      <trkpt lat="44.8936" lon="5.52039">
        <ele>1983.82</ele>
        <time>2018-09-27T11:46:03Z</time>
      </trkpt>
      <trkpt lat="44.89358" lon="5.52041">
        <ele>1983.34</ele>
        <time>2018-09-27T11:46:34Z</time>
      </trkpt>
      <trkpt lat="44.89359" lon="5.52041">
        <ele>1983.34</ele>
        <time>2018-09-27T11:46:54Z</time>
      </trkpt>
      <trkpt lat="44.89358" lon="5.52042">
        <ele>1983.82</ele>
        <time>2018-09-27T11:47:18Z</time>
      </trkpt>
      <trkpt lat="44.89359" lon="5.5204">
        <ele>1983.34</ele>
        <time>2018-09-27T11:47:48Z</time>
      </trkpt>
      <trkpt lat="44.89358" lon="5.52039">
        <ele>1983.34</ele>
        <time>2018-09-27T11:48:12Z</time>
      </trkpt>
      <trkpt lat="44.89359" lon="5.52041">
        <ele>1983.34</ele>
        <time>2018-09-27T11:48:41Z</time>
      </trkpt>
      <trkpt lat="44.89359" lon="5.52041">
        <ele>1983.34</ele>
        <time>2018-09-27T11:49:06Z</time>
      </trkpt>
      <trkpt lat="44.89358" lon="5.52039">
        <ele>1983.34</ele>
        <time>2018-09-27T11:49:28Z</time>
      </trkpt>
      <trkpt lat="44.89357" lon="5.52038">
        <ele>1982.86</ele>
        <time>2018-09-27T11:50:00Z</time>
      </trkpt>
      <trkpt lat="44.89356" lon="5.5204">
        <ele>1982.86</ele>
        <time>2018-09-27T11:50:29Z</time>
      </trkpt>
      <trkpt lat="44.89355" lon="5.52039">
        <ele>1982.86</ele>
        <time>2018-09-27T11:50:52Z</time>
      </trkpt>
      <trkpt lat="44.89347" lon="5.52036">
        <ele>1982.86</ele>
        <time>2018-09-27T11:51:07Z</time>
      </trkpt>
      <trkpt lat="44.89341" lon="5.52035">
        <ele>1982.38</ele>
        <time>2018-09-27T11:51:16Z</time>
      </trkpt>
      <trkpt lat="44.89327" lon="5.5203">
        <ele>1983.34</ele>
        <time>2018-09-27T11:51:32Z</time>
      </trkpt>
      <trkpt lat="44.89315" lon="5.52024">
        <ele>1983.34</ele>
        <time>2018-09-27T11:51:45Z</time>
      </trkpt>
      <trkpt lat="44.89302" lon="5.52024">
        <ele>1984.78</ele>
        <time>2018-09-27T11:52:01Z</time>
      </trkpt>
      <trkpt lat="44.89288" lon="5.52021">
        <ele>1985.26</ele>
        <time>2018-09-27T11:52:17Z</time>
      </trkpt>
      <trkpt lat="44.89276" lon="5.52023">
        <ele>1986.7</ele>
        <time>2018-09-27T11:52:31Z</time>
      </trkpt>
      <trkpt lat="44.89274" lon="5.52023">
        <ele>1985.26</ele>
        <time>2018-09-27T11:52:33Z</time>
      </trkpt>
      <trkpt lat="44.89261" lon="5.52026">
        <ele>1986.22</ele>
        <time>2018-09-27T11:52:48Z</time>
      </trkpt>
      <trkpt lat="44.89256" lon="5.52024">
        <ele>1984.3</ele>
        <time>2018-09-27T11:52:57Z</time>
      </trkpt>
      <trkpt lat="44.89255" lon="5.52024">
        <ele>1985.74</ele>
        <time>2018-09-27T11:52:59Z</time>
      </trkpt>
      <trkpt lat="44.89249" lon="5.52025">
        <ele>1984.3</ele>
        <time>2018-09-27T11:53:08Z</time>
      </trkpt>
      <trkpt lat="44.89239" lon="5.52024">
        <ele>1982.38</ele>
        <time>2018-09-27T11:53:20Z</time>
      </trkpt>
      <trkpt lat="44.89229" lon="5.52023">
        <ele>1979.97</ele>
        <time>2018-09-27T11:53:37Z</time>
      </trkpt>
      <trkpt lat="44.89221" lon="5.52026">
        <ele>1977.09</ele>
        <time>2018-09-27T11:53:53Z</time>
      </trkpt>
      <trkpt lat="44.89216" lon="5.52026">
        <ele>1976.61</ele>
        <time>2018-09-27T11:54:08Z</time>
      </trkpt>
      <trkpt lat="44.89206" lon="5.5202">
        <ele>1978.05</ele>
        <time>2018-09-27T11:54:22Z</time>
      </trkpt>
      <trkpt lat="44.892" lon="5.52013">
        <ele>1979.49</ele>
        <time>2018-09-27T11:54:36Z</time>
      </trkpt>
      <trkpt lat="44.89194" lon="5.52015">
        <ele>1982.38</ele>
        <time>2018-09-27T11:54:50Z</time>
      </trkpt>
      <trkpt lat="44.89186" lon="5.52018">
        <ele>1984.3</ele>
        <time>2018-09-27T11:55:07Z</time>
      </trkpt>
      <trkpt lat="44.89173" lon="5.5202">
        <ele>1984.78</ele>
        <time>2018-09-27T11:55:23Z</time>
      </trkpt>
      <trkpt lat="44.89162" lon="5.52021">
        <ele>1985.26</ele>
        <time>2018-09-27T11:55:38Z</time>
      </trkpt>
      <trkpt lat="44.89155" lon="5.52022">
        <ele>1984.78</ele>
        <time>2018-09-27T11:55:51Z</time>
      </trkpt>
      <trkpt lat="44.89143" lon="5.52027">
        <ele>1984.78</ele>
        <time>2018-09-27T11:56:06Z</time>
      </trkpt>
      <trkpt lat="44.89138" lon="5.52033">
        <ele>1985.74</ele>
        <time>2018-09-27T11:56:18Z</time>
      </trkpt>
      <trkpt lat="44.89132" lon="5.52036">
        <ele>1984.78</ele>
        <time>2018-09-27T11:56:25Z</time>
      </trkpt>
      <trkpt lat="44.89126" lon="5.52044">
        <ele>1984.78</ele>
        <time>2018-09-27T11:56:41Z</time>
      </trkpt>
      <trkpt lat="44.89115" lon="5.52048">
        <ele>1983.82</ele>
        <time>2018-09-27T11:56:55Z</time>
      </trkpt>
      <trkpt lat="44.89104" lon="5.52055">
        <ele>1983.34</ele>
        <time>2018-09-27T11:57:10Z</time>
      </trkpt>
      <trkpt lat="44.89097" lon="5.52057">
        <ele>1983.34</ele>
        <time>2018-09-27T11:57:24Z</time>
      </trkpt>
      <trkpt lat="44.89088" lon="5.52053">
        <ele>1985.74</ele>
        <time>2018-09-27T11:57:39Z</time>
      </trkpt>
      <trkpt lat="44.89081" lon="5.52054">
        <ele>1988.62</ele>
        <time>2018-09-27T11:57:55Z</time>
      </trkpt>
      <trkpt lat="44.89074" lon="5.52054">
        <ele>1991.99</ele>
        <time>2018-09-27T11:58:07Z</time>
      </trkpt>
      <trkpt lat="44.89066" lon="5.52056">
        <ele>1994.87</ele>
        <time>2018-09-27T11:58:24Z</time>
      </trkpt>
      <trkpt lat="44.89057" lon="5.52055">
        <ele>1998.24</ele>
        <time>2018-09-27T11:58:41Z</time>
      </trkpt>
      <trkpt lat="44.89052" lon="5.52055">
        <ele>2000.64</ele>
        <time>2018-09-27T11:58:55Z</time>
      </trkpt>
      <trkpt lat="44.89044" lon="5.52055">
        <ele>2003.04</ele>
        <time>2018-09-27T11:59:11Z</time>
      </trkpt>
      <trkpt lat="44.89038" lon="5.52053">
        <ele>2005.45</ele>
        <time>2018-09-27T11:59:26Z</time>
      </trkpt>
      <trkpt lat="44.89025" lon="5.52052">
        <ele>2007.85</ele>
        <time>2018-09-27T11:59:42Z</time>
      </trkpt>
      <trkpt lat="44.89012" lon="5.52053">
        <ele>2007.85</ele>
        <time>2018-09-27T11:59:57Z</time>
      </trkpt>
      <trkpt lat="44.89004" lon="5.52051">
        <ele>2007.37</ele>
        <time>2018-09-27T12:00:14Z</time>
      </trkpt>
      <trkpt lat="44.89003" lon="5.52051">
        <ele>2007.37</ele>
        <time>2018-09-27T12:00:40Z</time>
      </trkpt>
      <trkpt lat="44.89004" lon="5.52051">
        <ele>2007.37</ele>
        <time>2018-09-27T12:01:15Z</time>
      </trkpt>
      <trkpt lat="44.89004" lon="5.5205">
        <ele>2007.37</ele>
        <time>2018-09-27T12:01:48Z</time>
      </trkpt>
      <trkpt lat="44.89004" lon="5.5205">
        <ele>2007.37</ele>
        <time>2018-09-27T12:02:16Z</time>
      </trkpt>
      <trkpt lat="44.89004" lon="5.52049">
        <ele>2007.37</ele>
        <time>2018-09-27T12:02:53Z</time>
      </trkpt>
      <trkpt lat="44.89003" lon="5.52049">
        <ele>2007.37</ele>
        <time>2018-09-27T12:03:30Z</time>
      </trkpt>
      <trkpt lat="44.88996" lon="5.52053">
        <ele>2006.89</ele>
        <time>2018-09-27T12:03:50Z</time>
      </trkpt>
      <trkpt lat="44.88985" lon="5.52052">
        <ele>2005.93</ele>
        <time>2018-09-27T12:04:05Z</time>
      </trkpt>
      <trkpt lat="44.88976" lon="5.52048">
        <ele>2004.49</ele>
        <time>2018-09-27T12:04:19Z</time>
      </trkpt>
      <trkpt lat="44.88969" lon="5.52045">
        <ele>2003.04</ele>
        <time>2018-09-27T12:04:35Z</time>
      </trkpt>
      <trkpt lat="44.88956" lon="5.52049">
        <ele>2003.04</ele>
        <time>2018-09-27T12:04:51Z</time>
      </trkpt>
      <trkpt lat="44.88954" lon="5.52049">
        <ele>2003.04</ele>
        <time>2018-09-27T12:04:53Z</time>
      </trkpt>
      <trkpt lat="44.88952" lon="5.5205">
        <ele>2003.04</ele>
        <time>2018-09-27T12:04:55Z</time>
      </trkpt>
      <trkpt lat="44.88937" lon="5.52049">
        <ele>2003.04</ele>
        <time>2018-09-27T12:05:14Z</time>
      </trkpt>
      <trkpt lat="44.88924" lon="5.52051">
        <ele>2001.6</ele>
        <time>2018-09-27T12:05:32Z</time>
      </trkpt>
      <trkpt lat="44.88921" lon="5.52052">
        <ele>2001.12</ele>
        <time>2018-09-27T12:05:45Z</time>
      </trkpt>
      <trkpt lat="44.8891" lon="5.52052">
        <ele>1998.24</ele>
        <time>2018-09-27T12:05:59Z</time>
      </trkpt>
      <trkpt lat="44.88897" lon="5.52053">
        <ele>1995.83</ele>
        <time>2018-09-27T12:06:13Z</time>
      </trkpt>
      <trkpt lat="44.88883" lon="5.52051">
        <ele>1994.39</ele>
        <time>2018-09-27T12:06:27Z</time>
      </trkpt>
      <trkpt lat="44.88882" lon="5.52051">
        <ele>1994.39</ele>
        <time>2018-09-27T12:06:28Z</time>
      </trkpt>
      <trkpt lat="44.88866" lon="5.52052">
        <ele>1993.91</ele>
        <time>2018-09-27T12:06:46Z</time>
      </trkpt>
      <trkpt lat="44.88852" lon="5.52054">
        <ele>1993.43</ele>
        <time>2018-09-27T12:06:59Z</time>
      </trkpt>
      <trkpt lat="44.88836" lon="5.52056">
        <ele>1992.95</ele>
        <time>2018-09-27T12:07:13Z</time>
      </trkpt>
      <trkpt lat="44.88821" lon="5.52062">
        <ele>1992.47</ele>
        <time>2018-09-27T12:07:30Z</time>
      </trkpt>
      <trkpt lat="44.88809" lon="5.52065">
        <ele>1992.47</ele>
        <time>2018-09-27T12:07:44Z</time>
      </trkpt>
      <trkpt lat="44.88808" lon="5.52064">
        <ele>1993.91</ele>
        <time>2018-09-27T12:07:46Z</time>
      </trkpt>
      <trkpt lat="44.88798" lon="5.5206">
        <ele>1994.39</ele>
        <time>2018-09-27T12:07:58Z</time>
      </trkpt>
      <trkpt lat="44.88795" lon="5.52058">
        <ele>1994.39</ele>
        <time>2018-09-27T12:08:02Z</time>
      </trkpt>
      <trkpt lat="44.88784" lon="5.52051">
        <ele>1994.87</ele>
        <time>2018-09-27T12:08:16Z</time>
      </trkpt>
      <trkpt lat="44.88773" lon="5.5205">
        <ele>1995.35</ele>
        <time>2018-09-27T12:08:28Z</time>
      </trkpt>
      <trkpt lat="44.8877" lon="5.5205">
        <ele>1993.91</ele>
        <time>2018-09-27T12:08:31Z</time>
      </trkpt>
      <trkpt lat="44.88766" lon="5.52049">
        <ele>1995.35</ele>
        <time>2018-09-27T12:08:36Z</time>
      </trkpt>
      <trkpt lat="44.88752" lon="5.52048">
        <ele>1995.35</ele>
        <time>2018-09-27T12:08:51Z</time>
      </trkpt>
      <trkpt lat="44.88734" lon="5.52048">
        <ele>1995.83</ele>
        <time>2018-09-27T12:09:09Z</time>
      </trkpt>
      <trkpt lat="44.88718" lon="5.52048">
        <ele>1995.83</ele>
        <time>2018-09-27T12:09:25Z</time>
      </trkpt>
      <trkpt lat="44.887" lon="5.52047">
        <ele>1995.83</ele>
        <time>2018-09-27T12:09:42Z</time>
      </trkpt>
      <trkpt lat="44.88695" lon="5.52047">
        <ele>1994.39</ele>
        <time>2018-09-27T12:09:47Z</time>
      </trkpt>
      <trkpt lat="44.88678" lon="5.52048">
        <ele>1994.39</ele>
        <time>2018-09-27T12:10:02Z</time>
      </trkpt>
      <trkpt lat="44.88663" lon="5.52049">
        <ele>1993.91</ele>
        <time>2018-09-27T12:10:17Z</time>
      </trkpt>
      <trkpt lat="44.88648" lon="5.5205">
        <ele>1993.43</ele>
        <time>2018-09-27T12:10:32Z</time>
      </trkpt>
      <trkpt lat="44.88632" lon="5.5205">
        <ele>1992.95</ele>
        <time>2018-09-27T12:10:49Z</time>
      </trkpt>
      <trkpt lat="44.88617" lon="5.52052">
        <ele>1991.99</ele>
        <time>2018-09-27T12:11:06Z</time>
      </trkpt>
      <trkpt lat="44.88603" lon="5.52055">
        <ele>1991.99</ele>
        <time>2018-09-27T12:11:19Z</time>
      </trkpt>
      <trkpt lat="44.88588" lon="5.52057">
        <ele>1991.99</ele>
        <time>2018-09-27T12:11:34Z</time>
      </trkpt>
      <trkpt lat="44.88575" lon="5.5206">
        <ele>1991.99</ele>
        <time>2018-09-27T12:11:47Z</time>
      </trkpt>
      <trkpt lat="44.88561" lon="5.52059">
        <ele>1991.03</ele>
        <time>2018-09-27T12:12:02Z</time>
      </trkpt>
      <trkpt lat="44.88547" lon="5.52058">
        <ele>1990.07</ele>
        <time>2018-09-27T12:12:17Z</time>
      </trkpt>
      <trkpt lat="44.88547" lon="5.52058">
        <ele>1990.07</ele>
        <time>2018-09-27T12:12:20Z</time>
      </trkpt>
      <trkpt lat="44.88543" lon="5.52059">
        <ele>1991.51</ele>
        <time>2018-09-27T12:12:25Z</time>
      </trkpt>
      <trkpt lat="44.88539" lon="5.52059">
        <ele>1991.03</ele>
        <time>2018-09-27T12:12:41Z</time>
      </trkpt>
      <trkpt lat="44.88525" lon="5.52062">
        <ele>1991.03</ele>
        <time>2018-09-27T12:12:57Z</time>
      </trkpt>
      <trkpt lat="44.88515" lon="5.52061">
        <ele>1990.07</ele>
        <time>2018-09-27T12:13:15Z</time>
      </trkpt>
      <trkpt lat="44.8851" lon="5.52061">
        <ele>1989.1</ele>
        <time>2018-09-27T12:13:20Z</time>
      </trkpt>
      <trkpt lat="44.88504" lon="5.52061">
        <ele>1987.66</ele>
        <time>2018-09-27T12:13:27Z</time>
      </trkpt>
      <trkpt lat="44.88497" lon="5.52061">
        <ele>1986.7</ele>
        <time>2018-09-27T12:13:42Z</time>
      </trkpt>
      <trkpt lat="44.88497" lon="5.52061">
        <ele>1986.7</ele>
        <time>2018-09-27T12:14:12Z</time>
      </trkpt>
      <trkpt lat="44.88494" lon="5.52063">
        <ele>1986.7</ele>
        <time>2018-09-27T12:14:33Z</time>
      </trkpt>
      <trkpt lat="44.88488" lon="5.52064">
        <ele>1985.26</ele>
        <time>2018-09-27T12:14:46Z</time>
      </trkpt>
      <trkpt lat="44.88485" lon="5.52064">
        <ele>1984.3</ele>
        <time>2018-09-27T12:14:51Z</time>
      </trkpt>
      <trkpt lat="44.88476" lon="5.52065">
        <ele>1981.41</ele>
        <time>2018-09-27T12:15:07Z</time>
      </trkpt>
      <trkpt lat="44.88468" lon="5.52069">
        <ele>1979.49</ele>
        <time>2018-09-27T12:15:22Z</time>
      </trkpt>
      <trkpt lat="44.88462" lon="5.52074">
        <ele>1977.09</ele>
        <time>2018-09-27T12:15:36Z</time>
      </trkpt>
      <trkpt lat="44.88455" lon="5.52082">
        <ele>1975.65</ele>
        <time>2018-09-27T12:15:50Z</time>
      </trkpt>
      <trkpt lat="44.88448" lon="5.5209">
        <ele>1973.72</ele>
        <time>2018-09-27T12:16:02Z</time>
      </trkpt>
      <trkpt lat="44.88446" lon="5.52094">
        <ele>1973.72</ele>
        <time>2018-09-27T12:16:07Z</time>
      </trkpt>
      <trkpt lat="44.8844" lon="5.52105">
        <ele>1972.76</ele>
        <time>2018-09-27T12:16:20Z</time>
      </trkpt>
      <trkpt lat="44.88433" lon="5.52114">
        <ele>1971.32</ele>
        <time>2018-09-27T12:16:34Z</time>
      </trkpt>
      <trkpt lat="44.88426" lon="5.52119">
        <ele>1969.88</ele>
        <time>2018-09-27T12:16:50Z</time>
      </trkpt>
      <trkpt lat="44.88422" lon="5.52121">
        <ele>1967.96</ele>
        <time>2018-09-27T12:16:55Z</time>
      </trkpt>
      <trkpt lat="44.88417" lon="5.52125">
        <ele>1966.99</ele>
        <time>2018-09-27T12:17:08Z</time>
      </trkpt>
      <trkpt lat="44.88415" lon="5.52127">
        <ele>1966.99</ele>
        <time>2018-09-27T12:17:44Z</time>
      </trkpt>
      <trkpt lat="44.88405" lon="5.52134">
        <ele>1964.11</ele>
        <time>2018-09-27T12:17:58Z</time>
      </trkpt>
      <trkpt lat="44.88397" lon="5.52141">
        <ele>1963.15</ele>
        <time>2018-09-27T12:18:13Z</time>
      </trkpt>
      <trkpt lat="44.88388" lon="5.52146">
        <ele>1960.75</ele>
        <time>2018-09-27T12:18:24Z</time>
      </trkpt>
      <trkpt lat="44.88387" lon="5.52148">
        <ele>1960.75</ele>
        <time>2018-09-27T12:18:26Z</time>
      </trkpt>
      <trkpt lat="44.88372" lon="5.52159">
        <ele>1959.78</ele>
        <time>2018-09-27T12:18:42Z</time>
      </trkpt>
      <trkpt lat="44.8836" lon="5.52168">
        <ele>1959.78</ele>
        <time>2018-09-27T12:18:55Z</time>
      </trkpt>
      <trkpt lat="44.88345" lon="5.52178">
        <ele>1959.3</ele>
        <time>2018-09-27T12:19:12Z</time>
      </trkpt>
      <trkpt lat="44.88333" lon="5.5219">
        <ele>1957.86</ele>
        <time>2018-09-27T12:19:28Z</time>
      </trkpt>
      <trkpt lat="44.88332" lon="5.52189">
        <ele>1956.42</ele>
        <time>2018-09-27T12:19:30Z</time>
      </trkpt>
      <trkpt lat="44.88325" lon="5.52189">
        <ele>1953.54</ele>
        <time>2018-09-27T12:19:44Z</time>
      </trkpt>
      <trkpt lat="44.88323" lon="5.52189">
        <ele>1953.54</ele>
        <time>2018-09-27T12:19:47Z</time>
      </trkpt>
      <trkpt lat="44.88316" lon="5.5219">
        <ele>1951.61</ele>
        <time>2018-09-27T12:20:02Z</time>
      </trkpt>
      <trkpt lat="44.88316" lon="5.5219">
        <ele>1953.06</ele>
        <time>2018-09-27T12:20:05Z</time>
      </trkpt>
      <trkpt lat="44.88315" lon="5.52189">
        <ele>1952.09</ele>
        <time>2018-09-27T12:20:20Z</time>
      </trkpt>
      <trkpt lat="44.88315" lon="5.52186">
        <ele>1952.09</ele>
        <time>2018-09-27T12:20:48Z</time>
      </trkpt>
      <trkpt lat="44.88314" lon="5.52186">
        <ele>1952.09</ele>
        <time>2018-09-27T12:21:13Z</time>
      </trkpt>
      <trkpt lat="44.88313" lon="5.52185">
        <ele>1952.09</ele>
        <time>2018-09-27T12:21:40Z</time>
      </trkpt>
      <trkpt lat="44.88314" lon="5.52184">
        <ele>1952.09</ele>
        <time>2018-09-27T12:22:03Z</time>
      </trkpt>
      <trkpt lat="44.88313" lon="5.52182">
        <ele>1951.61</ele>
        <time>2018-09-27T12:22:38Z</time>
      </trkpt>
      <trkpt lat="44.88315" lon="5.52183">
        <ele>1951.61</ele>
        <time>2018-09-27T12:23:08Z</time>
      </trkpt>
      <trkpt lat="44.88316" lon="5.52184">
        <ele>1951.61</ele>
        <time>2018-09-27T12:23:35Z</time>
      </trkpt>
      <trkpt lat="44.88316" lon="5.52185">
        <ele>1951.61</ele>
        <time>2018-09-27T12:23:53Z</time>
      </trkpt>
      <trkpt lat="44.88313" lon="5.52186">
        <ele>1951.13</ele>
        <time>2018-09-27T12:24:20Z</time>
      </trkpt>
      <trkpt lat="44.88314" lon="5.52187">
        <ele>1951.13</ele>
        <time>2018-09-27T12:24:51Z</time>
      </trkpt>
      <trkpt lat="44.88314" lon="5.52189">
        <ele>1951.13</ele>
        <time>2018-09-27T12:25:18Z</time>
      </trkpt>
      <trkpt lat="44.8831" lon="5.52207">
        <ele>1951.13</ele>
        <time>2018-09-27T12:25:36Z</time>
      </trkpt>
      <trkpt lat="44.88305" lon="5.52215">
        <ele>1950.65</ele>
        <time>2018-09-27T12:25:46Z</time>
      </trkpt>
      <trkpt lat="44.883" lon="5.52229">
        <ele>1952.57</ele>
        <time>2018-09-27T12:26:01Z</time>
      </trkpt>
      <trkpt lat="44.88289" lon="5.52237">
        <ele>1953.06</ele>
        <time>2018-09-27T12:26:17Z</time>
      </trkpt>
      <trkpt lat="44.88282" lon="5.52248">
        <ele>1956.42</ele>
        <time>2018-09-27T12:26:34Z</time>
      </trkpt>
      <trkpt lat="44.88276" lon="5.52249">
        <ele>1957.38</ele>
        <time>2018-09-27T12:26:55Z</time>
      </trkpt>
      <trkpt lat="44.88266" lon="5.52242">
        <ele>1959.3</ele>
        <time>2018-09-27T12:27:11Z</time>
      </trkpt>
      <trkpt lat="44.88256" lon="5.52238">
        <ele>1961.23</ele>
        <time>2018-09-27T12:27:25Z</time>
      </trkpt>
      <trkpt lat="44.88247" lon="5.52237">
        <ele>1963.15</ele>
        <time>2018-09-27T12:27:41Z</time>
      </trkpt>
      <trkpt lat="44.88239" lon="5.52239">
        <ele>1964.11</ele>
        <time>2018-09-27T12:27:57Z</time>
      </trkpt>
      <trkpt lat="44.88234" lon="5.52243">
        <ele>1962.67</ele>
        <time>2018-09-27T12:28:10Z</time>
      </trkpt>
      <trkpt lat="44.88229" lon="5.52242">
        <ele>1960.27</ele>
        <time>2018-09-27T12:28:23Z</time>
      </trkpt>
      <trkpt lat="44.88224" lon="5.52245">
        <ele>1958.82</ele>
        <time>2018-09-27T12:28:43Z</time>
      </trkpt>
      <trkpt lat="44.88214" lon="5.52245">
        <ele>1954.98</ele>
        <time>2018-09-27T12:28:57Z</time>
      </trkpt>
      <trkpt lat="44.8821" lon="5.52246">
        <ele>1954.5</ele>
        <time>2018-09-27T12:29:02Z</time>
      </trkpt>
      <trkpt lat="44.88207" lon="5.52245">
        <ele>1953.06</ele>
        <time>2018-09-27T12:29:06Z</time>
      </trkpt>
      <trkpt lat="44.882" lon="5.5224">
        <ele>1951.13</ele>
        <time>2018-09-27T12:29:21Z</time>
      </trkpt>
      <trkpt lat="44.88198" lon="5.52239">
        <ele>1950.17</ele>
        <time>2018-09-27T12:29:43Z</time>
      </trkpt>
      <trkpt lat="44.88194" lon="5.52238">
        <ele>1948.73</ele>
        <time>2018-09-27T12:29:58Z</time>
      </trkpt>
      <trkpt lat="44.88191" lon="5.52238">
        <ele>1946.81</ele>
        <time>2018-09-27T12:30:15Z</time>
      </trkpt>
      <trkpt lat="44.8819" lon="5.52239">
        <ele>1945.36</ele>
        <time>2018-09-27T12:30:36Z</time>
      </trkpt>
      <trkpt lat="44.88187" lon="5.5224">
        <ele>1945.36</ele>
        <time>2018-09-27T12:30:54Z</time>
      </trkpt>
      <trkpt lat="44.88187" lon="5.5224">
        <ele>1944.88</ele>
        <time>2018-09-27T12:31:12Z</time>
      </trkpt>
      <trkpt lat="44.88184" lon="5.52238">
        <ele>1944.4</ele>
        <time>2018-09-27T12:31:32Z</time>
      </trkpt>
      <trkpt lat="44.88183" lon="5.52238">
        <ele>1945.36</ele>
        <time>2018-09-27T12:31:34Z</time>
      </trkpt>
      <trkpt lat="44.88177" lon="5.52237">
        <ele>1945.36</ele>
        <time>2018-09-27T12:32:07Z</time>
      </trkpt>
      <trkpt lat="44.88184" lon="5.52239">
        <ele>1945.36</ele>
        <time>2018-09-27T12:32:29Z</time>
      </trkpt>
      <trkpt lat="44.88184" lon="5.5224">
        <ele>1943.92</ele>
        <time>2018-09-27T12:32:42Z</time>
      </trkpt>
      <trkpt lat="44.88181" lon="5.52247">
        <ele>1942.48</ele>
        <time>2018-09-27T12:32:57Z</time>
      </trkpt>
      <trkpt lat="44.8818" lon="5.52246">
        <ele>1943.44</ele>
        <time>2018-09-27T12:33:00Z</time>
      </trkpt>
      <trkpt lat="44.88176" lon="5.52248">
        <ele>1943.44</ele>
        <time>2018-09-27T12:33:23Z</time>
      </trkpt>
      <trkpt lat="44.88175" lon="5.5225">
        <ele>1942</ele>
        <time>2018-09-27T12:33:27Z</time>
      </trkpt>
      <trkpt lat="44.88173" lon="5.52251">
        <ele>1943.44</ele>
        <time>2018-09-27T12:33:37Z</time>
      </trkpt>
      <trkpt lat="44.88171" lon="5.52254">
        <ele>1942</ele>
        <time>2018-09-27T12:33:55Z</time>
      </trkpt>
      <trkpt lat="44.88169" lon="5.52256">
        <ele>1941.52</ele>
        <time>2018-09-27T12:34:14Z</time>
      </trkpt>
      <trkpt lat="44.88165" lon="5.52257">
        <ele>1940.08</ele>
        <time>2018-09-27T12:34:31Z</time>
      </trkpt>
      <trkpt lat="44.88161" lon="5.52258">
        <ele>1940.08</ele>
        <time>2018-09-27T12:34:49Z</time>
      </trkpt>
      <trkpt lat="44.88157" lon="5.52258">
        <ele>1938.64</ele>
        <time>2018-09-27T12:35:05Z</time>
      </trkpt>
      <trkpt lat="44.88154" lon="5.52255">
        <ele>1936.71</ele>
        <time>2018-09-27T12:35:25Z</time>
      </trkpt>
      <trkpt lat="44.88151" lon="5.52254">
        <ele>1936.23</ele>
        <time>2018-09-27T12:35:42Z</time>
      </trkpt>
      <trkpt lat="44.88147" lon="5.52253">
        <ele>1935.27</ele>
        <time>2018-09-27T12:36:05Z</time>
      </trkpt>
      <trkpt lat="44.88142" lon="5.52255">
        <ele>1933.83</ele>
        <time>2018-09-27T12:36:27Z</time>
      </trkpt>
      <trkpt lat="44.88142" lon="5.52248">
        <ele>1932.39</ele>
        <time>2018-09-27T12:36:41Z</time>
      </trkpt>
      <trkpt lat="44.88145" lon="5.52244">
        <ele>1931.43</ele>
        <time>2018-09-27T12:36:51Z</time>
      </trkpt>
      <trkpt lat="44.88143" lon="5.52244">
        <ele>1929.02</ele>
        <time>2018-09-27T12:37:02Z</time>
      </trkpt>
      <trkpt lat="44.88142" lon="5.52244">
        <ele>1927.58</ele>
        <time>2018-09-27T12:37:17Z</time>
      </trkpt>
      <trkpt lat="44.88139" lon="5.52245">
        <ele>1926.14</ele>
        <time>2018-09-27T12:37:37Z</time>
      </trkpt>
      <trkpt lat="44.88133" lon="5.52248">
        <ele>1923.25</ele>
        <time>2018-09-27T12:37:49Z</time>
      </trkpt>
      <trkpt lat="44.88127" lon="5.52247">
        <ele>1923.25</ele>
        <time>2018-09-27T12:38:06Z</time>
      </trkpt>
      <trkpt lat="44.88126" lon="5.5225">
        <ele>1924.22</ele>
        <time>2018-09-27T12:38:23Z</time>
      </trkpt>
      <trkpt lat="44.88127" lon="5.52252">
        <ele>1925.18</ele>
        <time>2018-09-27T12:38:38Z</time>
      </trkpt>
      <trkpt lat="44.88126" lon="5.52253">
        <ele>1925.66</ele>
        <time>2018-09-27T12:38:56Z</time>
      </trkpt>
      <trkpt lat="44.88127" lon="5.52252">
        <ele>1922.77</ele>
        <time>2018-09-27T12:39:07Z</time>
      </trkpt>
      <trkpt lat="44.88127" lon="5.52254">
        <ele>1926.14</ele>
        <time>2018-09-27T12:39:23Z</time>
      </trkpt>
      <trkpt lat="44.88129" lon="5.52256">
        <ele>1924.22</ele>
        <time>2018-09-27T12:39:42Z</time>
      </trkpt>
      <trkpt lat="44.88131" lon="5.52259">
        <ele>1922.77</ele>
        <time>2018-09-27T12:40:02Z</time>
      </trkpt>
      <trkpt lat="44.88131" lon="5.52264">
        <ele>1921.81</ele>
        <time>2018-09-27T12:40:17Z</time>
      </trkpt>
      <trkpt lat="44.88132" lon="5.52273">
        <ele>1920.37</ele>
        <time>2018-09-27T12:40:31Z</time>
      </trkpt>
      <trkpt lat="44.88134" lon="5.52284">
        <ele>1917.01</ele>
        <time>2018-09-27T12:40:47Z</time>
      </trkpt>
      <trkpt lat="44.88136" lon="5.52297">
        <ele>1914.6</ele>
        <time>2018-09-27T12:41:02Z</time>
      </trkpt>
      <trkpt lat="44.88131" lon="5.5231">
        <ele>1912.2</ele>
        <time>2018-09-27T12:41:18Z</time>
      </trkpt>
      <trkpt lat="44.8812" lon="5.5232">
        <ele>1910.28</ele>
        <time>2018-09-27T12:41:34Z</time>
      </trkpt>
      <trkpt lat="44.88116" lon="5.5233">
        <ele>1907.87</ele>
        <time>2018-09-27T12:41:50Z</time>
      </trkpt>
      <trkpt lat="44.88113" lon="5.52345">
        <ele>1904.51</ele>
        <time>2018-09-27T12:42:05Z</time>
      </trkpt>
      <trkpt lat="44.88113" lon="5.52348">
        <ele>1904.51</ele>
        <time>2018-09-27T12:42:09Z</time>
      </trkpt>
      <trkpt lat="44.88117" lon="5.52342">
        <ele>1903.07</ele>
        <time>2018-09-27T12:42:22Z</time>
      </trkpt>
      <trkpt lat="44.88125" lon="5.52337">
        <ele>1900.18</ele>
        <time>2018-09-27T12:42:39Z</time>
      </trkpt>
      <trkpt lat="44.88132" lon="5.52339">
        <ele>1896.82</ele>
        <time>2018-09-27T12:42:54Z</time>
      </trkpt>
      <trkpt lat="44.88138" lon="5.52337">
        <ele>1894.9</ele>
        <time>2018-09-27T12:43:08Z</time>
      </trkpt>
      <trkpt lat="44.88143" lon="5.52326">
        <ele>1892.97</ele>
        <time>2018-09-27T12:43:24Z</time>
      </trkpt>
      <trkpt lat="44.88151" lon="5.52324">
        <ele>1890.57</ele>
        <time>2018-09-27T12:43:39Z</time>
      </trkpt>
      <trkpt lat="44.88159" lon="5.52324">
        <ele>1888.17</ele>
        <time>2018-09-27T12:43:56Z</time>
      </trkpt>
      <trkpt lat="44.88171" lon="5.52326">
        <ele>1885.76</ele>
        <time>2018-09-27T12:44:13Z</time>
      </trkpt>
      <trkpt lat="44.88172" lon="5.52331">
        <ele>1883.84</ele>
        <time>2018-09-27T12:44:29Z</time>
      </trkpt>
      <trkpt lat="44.88163" lon="5.52336">
        <ele>1882.4</ele>
        <time>2018-09-27T12:44:42Z</time>
      </trkpt>
      <trkpt lat="44.88159" lon="5.52343">
        <ele>1880.48</ele>
        <time>2018-09-27T12:44:59Z</time>
      </trkpt>
      <trkpt lat="44.88157" lon="5.52352">
        <ele>1878.55</ele>
        <time>2018-09-27T12:45:11Z</time>
      </trkpt>
      <trkpt lat="44.88157" lon="5.52354">
        <ele>1878.07</ele>
        <time>2018-09-27T12:45:13Z</time>
      </trkpt>
      <trkpt lat="44.88151" lon="5.52367">
        <ele>1874.71</ele>
        <time>2018-09-27T12:45:30Z</time>
      </trkpt>
      <trkpt lat="44.88149" lon="5.52381">
        <ele>1872.3</ele>
        <time>2018-09-27T12:45:46Z</time>
      </trkpt>
      <trkpt lat="44.8814" lon="5.52386">
        <ele>1871.34</ele>
        <time>2018-09-27T12:45:58Z</time>
      </trkpt>
      <trkpt lat="44.88135" lon="5.52397">
        <ele>1869.42</ele>
        <time>2018-09-27T12:46:15Z</time>
      </trkpt>
      <trkpt lat="44.88132" lon="5.52406">
        <ele>1867.5</ele>
        <time>2018-09-27T12:46:30Z</time>
      </trkpt>
      <trkpt lat="44.88128" lon="5.52415">
        <ele>1865.09</ele>
        <time>2018-09-27T12:46:45Z</time>
      </trkpt>
      <trkpt lat="44.88126" lon="5.52427">
        <ele>1862.69</ele>
        <time>2018-09-27T12:47:00Z</time>
      </trkpt>
      <trkpt lat="44.88118" lon="5.5244">
        <ele>1860.29</ele>
        <time>2018-09-27T12:47:18Z</time>
      </trkpt>
      <trkpt lat="44.88121" lon="5.52444">
        <ele>1857.89</ele>
        <time>2018-09-27T12:47:33Z</time>
      </trkpt>
      <trkpt lat="44.88127" lon="5.52437">
        <ele>1855.96</ele>
        <time>2018-09-27T12:47:49Z</time>
      </trkpt>
      <trkpt lat="44.8813" lon="5.52448">
        <ele>1853.08</ele>
        <time>2018-09-27T12:48:06Z</time>
      </trkpt>
      <trkpt lat="44.88125" lon="5.52457">
        <ele>1850.68</ele>
        <time>2018-09-27T12:48:22Z</time>
      </trkpt>
      <trkpt lat="44.88119" lon="5.52466">
        <ele>1848.75</ele>
        <time>2018-09-27T12:48:38Z</time>
      </trkpt>
      <trkpt lat="44.88117" lon="5.52476">
        <ele>1845.87</ele>
        <time>2018-09-27T12:48:54Z</time>
      </trkpt>
      <trkpt lat="44.88123" lon="5.52472">
        <ele>1843.47</ele>
        <time>2018-09-27T12:49:12Z</time>
      </trkpt>
      <trkpt lat="44.88131" lon="5.52468">
        <ele>1841.54</ele>
        <time>2018-09-27T12:49:27Z</time>
      </trkpt>
      <trkpt lat="44.88132" lon="5.52475">
        <ele>1839.62</ele>
        <time>2018-09-27T12:49:40Z</time>
      </trkpt>
      <trkpt lat="44.88128" lon="5.52486">
        <ele>1836.26</ele>
        <time>2018-09-27T12:49:55Z</time>
      </trkpt>
      <trkpt lat="44.88121" lon="5.52506">
        <ele>1833.37</ele>
        <time>2018-09-27T12:50:12Z</time>
      </trkpt>
      <trkpt lat="44.8812" lon="5.52515">
        <ele>1831.93</ele>
        <time>2018-09-27T12:50:20Z</time>
      </trkpt>
      <trkpt lat="44.88115" lon="5.52536">
        <ele>1830.01</ele>
        <time>2018-09-27T12:50:36Z</time>
      </trkpt>
      <trkpt lat="44.88118" lon="5.52548">
        <ele>1827.6</ele>
        <time>2018-09-27T12:50:50Z</time>
      </trkpt>
      <trkpt lat="44.8812" lon="5.52547">
        <ele>1827.12</ele>
        <time>2018-09-27T12:50:58Z</time>
      </trkpt>
      <trkpt lat="44.88121" lon="5.52539">
        <ele>1825.68</ele>
        <time>2018-09-27T12:51:06Z</time>
      </trkpt>
      <trkpt lat="44.88125" lon="5.52525">
        <ele>1823.76</ele>
        <time>2018-09-27T12:51:23Z</time>
      </trkpt>
      <trkpt lat="44.88132" lon="5.52538">
        <ele>1820.87</ele>
        <time>2018-09-27T12:51:38Z</time>
      </trkpt>
      <trkpt lat="44.88132" lon="5.52544">
        <ele>1820.39</ele>
        <time>2018-09-27T12:51:43Z</time>
      </trkpt>
      <trkpt lat="44.88131" lon="5.52562">
        <ele>1817.51</ele>
        <time>2018-09-27T12:52:00Z</time>
      </trkpt>
      <trkpt lat="44.88125" lon="5.52577">
        <ele>1814.15</ele>
        <time>2018-09-27T12:52:16Z</time>
      </trkpt>
      <trkpt lat="44.88121" lon="5.52591">
        <ele>1811.74</ele>
        <time>2018-09-27T12:52:32Z</time>
      </trkpt>
      <trkpt lat="44.88118" lon="5.52605">
        <ele>1808.86</ele>
        <time>2018-09-27T12:52:49Z</time>
      </trkpt>
      <trkpt lat="44.88121" lon="5.52611">
        <ele>1807.9</ele>
        <time>2018-09-27T12:53:05Z</time>
      </trkpt>
      <trkpt lat="44.8812" lon="5.52608">
        <ele>1806.45</ele>
        <time>2018-09-27T12:53:34Z</time>
      </trkpt>
      <trkpt lat="44.88121" lon="5.52608">
        <ele>1806.45</ele>
        <time>2018-09-27T12:53:35Z</time>
      </trkpt>
      <trkpt lat="44.88126" lon="5.52599">
        <ele>1805.01</ele>
        <time>2018-09-27T12:53:44Z</time>
      </trkpt>
      <trkpt lat="44.88133" lon="5.52595">
        <ele>1804.53</ele>
        <time>2018-09-27T12:53:52Z</time>
      </trkpt>
      <trkpt lat="44.88136" lon="5.52595">
        <ele>1804.53</ele>
        <time>2018-09-27T12:53:55Z</time>
      </trkpt>
      <trkpt lat="44.88151" lon="5.52585">
        <ele>1801.65</ele>
        <time>2018-09-27T12:54:12Z</time>
      </trkpt>
      <trkpt lat="44.88162" lon="5.52581">
        <ele>1798.28</ele>
        <time>2018-09-27T12:54:27Z</time>
      </trkpt>
      <trkpt lat="44.88152" lon="5.52602">
        <ele>1795.4</ele>
        <time>2018-09-27T12:54:44Z</time>
      </trkpt>
      <trkpt lat="44.88146" lon="5.52612">
        <ele>1793.48</ele>
        <time>2018-09-27T12:54:52Z</time>
      </trkpt>
      <trkpt lat="44.88138" lon="5.52631">
        <ele>1789.15</ele>
        <time>2018-09-27T12:55:07Z</time>
      </trkpt>
      <trkpt lat="44.88136" lon="5.5264">
        <ele>1788.67</ele>
        <time>2018-09-27T12:55:14Z</time>
      </trkpt>
      <trkpt lat="44.88135" lon="5.52658">
        <ele>1784.82</ele>
        <time>2018-09-27T12:55:27Z</time>
      </trkpt>
      <trkpt lat="44.88132" lon="5.52678">
        <ele>1782.42</ele>
        <time>2018-09-27T12:55:41Z</time>
      </trkpt>
      <trkpt lat="44.8813" lon="5.5269">
        <ele>1781.46</ele>
        <time>2018-09-27T12:55:49Z</time>
      </trkpt>
      <trkpt lat="44.88116" lon="5.52709">
        <ele>1779.06</ele>
        <time>2018-09-27T12:56:07Z</time>
      </trkpt>
      <trkpt lat="44.88109" lon="5.52715">
        <ele>1777.13</ele>
        <time>2018-09-27T12:56:16Z</time>
      </trkpt>
      <trkpt lat="44.88116" lon="5.52719">
        <ele>1775.21</ele>
        <time>2018-09-27T12:56:23Z</time>
      </trkpt>
      <trkpt lat="44.8813" lon="5.52724">
        <ele>1772.81</ele>
        <time>2018-09-27T12:56:37Z</time>
      </trkpt>
      <trkpt lat="44.88139" lon="5.52723">
        <ele>1770.41</ele>
        <time>2018-09-27T12:56:45Z</time>
      </trkpt>
      <trkpt lat="44.88155" lon="5.52722">
        <ele>1767.52</ele>
        <time>2018-09-27T12:57:01Z</time>
      </trkpt>
      <trkpt lat="44.88166" lon="5.52722">
        <ele>1764.64</ele>
        <time>2018-09-27T12:57:14Z</time>
      </trkpt>
      <trkpt lat="44.88171" lon="5.5272">
        <ele>1764.16</ele>
        <time>2018-09-27T12:57:19Z</time>
      </trkpt>
      <trkpt lat="44.88173" lon="5.5272">
        <ele>1763.68</ele>
        <time>2018-09-27T12:57:22Z</time>
      </trkpt>
      <trkpt lat="44.88179" lon="5.52712">
        <ele>1761.27</ele>
        <time>2018-09-27T12:57:31Z</time>
      </trkpt>
      <trkpt lat="44.8819" lon="5.52713">
        <ele>1758.39</ele>
        <time>2018-09-27T12:57:45Z</time>
      </trkpt>
      <trkpt lat="44.88193" lon="5.5272">
        <ele>1756.47</ele>
        <time>2018-09-27T12:57:52Z</time>
      </trkpt>
      <trkpt lat="44.88195" lon="5.52724">
        <ele>1755.5</ele>
        <time>2018-09-27T12:57:55Z</time>
      </trkpt>
      <trkpt lat="44.88202" lon="5.52725">
        <ele>1753.58</ele>
        <time>2018-09-27T12:58:02Z</time>
      </trkpt>
      <trkpt lat="44.88205" lon="5.5273">
        <ele>1752.62</ele>
        <time>2018-09-27T12:58:09Z</time>
      </trkpt>
      <trkpt lat="44.88213" lon="5.52728">
        <ele>1749.26</ele>
        <time>2018-09-27T12:58:20Z</time>
      </trkpt>
      <trkpt lat="44.88218" lon="5.52723">
        <ele>1747.81</ele>
        <time>2018-09-27T12:58:27Z</time>
      </trkpt>
      <trkpt lat="44.88228" lon="5.52721">
        <ele>1744.45</ele>
        <time>2018-09-27T12:58:40Z</time>
      </trkpt>
      <trkpt lat="44.88231" lon="5.52719">
        <ele>1743.49</ele>
        <time>2018-09-27T12:58:45Z</time>
      </trkpt>
      <trkpt lat="44.88239" lon="5.52711">
        <ele>1741.08</ele>
        <time>2018-09-27T12:58:58Z</time>
      </trkpt>
      <trkpt lat="44.88245" lon="5.5272">
        <ele>1740.12</ele>
        <time>2018-09-27T12:59:05Z</time>
      </trkpt>
      <trkpt lat="44.88249" lon="5.52722">
        <ele>1739.16</ele>
        <time>2018-09-27T12:59:11Z</time>
      </trkpt>
      <trkpt lat="44.88253" lon="5.52715">
        <ele>1736.28</ele>
        <time>2018-09-27T12:59:22Z</time>
      </trkpt>
      <trkpt lat="44.88255" lon="5.52719">
        <ele>1736.28</ele>
        <time>2018-09-27T12:59:25Z</time>
      </trkpt>
      <trkpt lat="44.88261" lon="5.52729">
        <ele>1733.88</ele>
        <time>2018-09-27T12:59:35Z</time>
      </trkpt>
      <trkpt lat="44.88261" lon="5.52733">
        <ele>1733.39</ele>
        <time>2018-09-27T12:59:39Z</time>
      </trkpt>
      <trkpt lat="44.88262" lon="5.52735">
        <ele>1731.95</ele>
        <time>2018-09-27T12:59:41Z</time>
      </trkpt>
      <trkpt lat="44.88267" lon="5.52747">
        <ele>1729.07</ele>
        <time>2018-09-27T12:59:51Z</time>
      </trkpt>
      <trkpt lat="44.88268" lon="5.52752">
        <ele>1728.11</ele>
        <time>2018-09-27T12:59:56Z</time>
      </trkpt>
      <trkpt lat="44.88267" lon="5.52755">
        <ele>1726.67</ele>
        <time>2018-09-27T12:59:59Z</time>
      </trkpt>
      <trkpt lat="44.88267" lon="5.52769">
        <ele>1723.78</ele>
        <time>2018-09-27T13:00:13Z</time>
      </trkpt>
      <trkpt lat="44.88271" lon="5.52769">
        <ele>1722.82</ele>
        <time>2018-09-27T13:00:27Z</time>
      </trkpt>
      <trkpt lat="44.88269" lon="5.52771">
        <ele>1722.82</ele>
        <time>2018-09-27T13:00:44Z</time>
      </trkpt>
      <trkpt lat="44.88271" lon="5.52773">
        <ele>1722.82</ele>
        <time>2018-09-27T13:01:07Z</time>
      </trkpt>
      <trkpt lat="44.88268" lon="5.52775">
        <ele>1722.82</ele>
        <time>2018-09-27T13:01:38Z</time>
      </trkpt>
      <trkpt lat="44.8827" lon="5.52774">
        <ele>1722.34</ele>
        <time>2018-09-27T13:02:01Z</time>
      </trkpt>
      <trkpt lat="44.88271" lon="5.52773">
        <ele>1722.34</ele>
        <time>2018-09-27T13:02:28Z</time>
      </trkpt>
      <trkpt lat="44.88271" lon="5.52776">
        <ele>1722.34</ele>
        <time>2018-09-27T13:02:48Z</time>
      </trkpt>
      <trkpt lat="44.88272" lon="5.52777">
        <ele>1721.38</ele>
        <time>2018-09-27T13:03:16Z</time>
      </trkpt>
      <trkpt lat="44.88272" lon="5.52782">
        <ele>1721.38</ele>
        <time>2018-09-27T13:03:40Z</time>
      </trkpt>
      <trkpt lat="44.88274" lon="5.52775">
        <ele>1721.38</ele>
        <time>2018-09-27T13:04:08Z</time>
      </trkpt>
      <trkpt lat="44.88276" lon="5.52774">
        <ele>1720.9</ele>
        <time>2018-09-27T13:04:30Z</time>
      </trkpt>
      <trkpt lat="44.88279" lon="5.52774">
        <ele>1720.9</ele>
        <time>2018-09-27T13:04:34Z</time>
      </trkpt>
      <trkpt lat="44.88284" lon="5.52774">
        <ele>1720.9</ele>
        <time>2018-09-27T13:04:49Z</time>
      </trkpt>
      <trkpt lat="44.88295" lon="5.52774">
        <ele>1720.9</ele>
        <time>2018-09-27T13:05:03Z</time>
      </trkpt>
      <trkpt lat="44.88304" lon="5.52773">
        <ele>1720.9</ele>
        <time>2018-09-27T13:05:16Z</time>
      </trkpt>
      <trkpt lat="44.88317" lon="5.52773">
        <ele>1722.34</ele>
        <time>2018-09-27T13:05:31Z</time>
      </trkpt>
      <trkpt lat="44.88326" lon="5.52764">
        <ele>1722.34</ele>
        <time>2018-09-27T13:05:43Z</time>
      </trkpt>
      <trkpt lat="44.88338" lon="5.5276">
        <ele>1722.34</ele>
        <time>2018-09-27T13:05:57Z</time>
      </trkpt>
      <trkpt lat="44.88349" lon="5.52766">
        <ele>1723.3</ele>
        <time>2018-09-27T13:06:10Z</time>
      </trkpt>
      <trkpt lat="44.88359" lon="5.52764">
        <ele>1723.78</ele>
        <time>2018-09-27T13:06:25Z</time>
      </trkpt>
      <trkpt lat="44.88367" lon="5.52757">
        <ele>1723.78</ele>
        <time>2018-09-27T13:06:37Z</time>
      </trkpt>
      <trkpt lat="44.8838" lon="5.52758">
        <ele>1723.78</ele>
        <time>2018-09-27T13:06:50Z</time>
      </trkpt>
      <trkpt lat="44.8839" lon="5.52747">
        <ele>1723.78</ele>
        <time>2018-09-27T13:07:05Z</time>
      </trkpt>
      <trkpt lat="44.884" lon="5.52745">
        <ele>1724.26</ele>
        <time>2018-09-27T13:07:20Z</time>
      </trkpt>
      <trkpt lat="44.88409" lon="5.5274">
        <ele>1724.26</ele>
        <time>2018-09-27T13:07:33Z</time>
      </trkpt>
      <trkpt lat="44.88419" lon="5.52741">
        <ele>1724.74</ele>
        <time>2018-09-27T13:07:46Z</time>
      </trkpt>
      <trkpt lat="44.88428" lon="5.52743">
        <ele>1725.22</ele>
        <time>2018-09-27T13:08:00Z</time>
      </trkpt>
      <trkpt lat="44.88439" lon="5.52751">
        <ele>1725.22</ele>
        <time>2018-09-27T13:08:12Z</time>
      </trkpt>
      <trkpt lat="44.88449" lon="5.52756">
        <ele>1725.22</ele>
        <time>2018-09-27T13:08:24Z</time>
      </trkpt>
      <trkpt lat="44.88461" lon="5.52771">
        <ele>1725.7</ele>
        <time>2018-09-27T13:08:40Z</time>
      </trkpt>
      <trkpt lat="44.8847" lon="5.5278">
        <ele>1726.18</ele>
        <time>2018-09-27T13:08:51Z</time>
      </trkpt>
      <trkpt lat="44.88476" lon="5.52794">
        <ele>1726.67</ele>
        <time>2018-09-27T13:09:06Z</time>
      </trkpt>
      <trkpt lat="44.88486" lon="5.52805">
        <ele>1727.15</ele>
        <time>2018-09-27T13:09:23Z</time>
      </trkpt>
      <trkpt lat="44.88497" lon="5.52805">
        <ele>1727.15</ele>
        <time>2018-09-27T13:09:39Z</time>
      </trkpt>
      <trkpt lat="44.88506" lon="5.52821">
        <ele>1727.15</ele>
        <time>2018-09-27T13:09:55Z</time>
      </trkpt>
      <trkpt lat="44.8851" lon="5.52847">
        <ele>1727.63</ele>
        <time>2018-09-27T13:10:10Z</time>
      </trkpt>
      <trkpt lat="44.88519" lon="5.52867">
        <ele>1727.63</ele>
        <time>2018-09-27T13:10:24Z</time>
      </trkpt>
      <trkpt lat="44.88523" lon="5.52871">
        <ele>1726.18</ele>
        <time>2018-09-27T13:10:29Z</time>
      </trkpt>
      <trkpt lat="44.88534" lon="5.52882">
        <ele>1726.18</ele>
        <time>2018-09-27T13:10:46Z</time>
      </trkpt>
      <trkpt lat="44.88546" lon="5.52903">
        <ele>1727.15</ele>
        <time>2018-09-27T13:11:01Z</time>
      </trkpt>
      <trkpt lat="44.88552" lon="5.52917">
        <ele>1725.7</ele>
        <time>2018-09-27T13:11:13Z</time>
      </trkpt>
      <trkpt lat="44.88555" lon="5.52919">
        <ele>1726.67</ele>
        <time>2018-09-27T13:11:20Z</time>
      </trkpt>
      <trkpt lat="44.88566" lon="5.52939">
        <ele>1727.15</ele>
        <time>2018-09-27T13:11:35Z</time>
      </trkpt>
      <trkpt lat="44.88576" lon="5.52954">
        <ele>1727.63</ele>
        <time>2018-09-27T13:11:51Z</time>
      </trkpt>
      <trkpt lat="44.8858" lon="5.52954">
        <ele>1727.63</ele>
        <time>2018-09-27T13:11:55Z</time>
      </trkpt>
      <trkpt lat="44.88592" lon="5.52945">
        <ele>1726.18</ele>
        <time>2018-09-27T13:12:11Z</time>
      </trkpt>
      <trkpt lat="44.88602" lon="5.52931">
        <ele>1726.18</ele>
        <time>2018-09-27T13:12:27Z</time>
      </trkpt>
      <trkpt lat="44.88607" lon="5.52923">
        <ele>1726.18</ele>
        <time>2018-09-27T13:12:34Z</time>
      </trkpt>
      <trkpt lat="44.88611" lon="5.52914">
        <ele>1726.18</ele>
        <time>2018-09-27T13:12:42Z</time>
      </trkpt>
      <trkpt lat="44.8862" lon="5.52892">
        <ele>1724.26</ele>
        <time>2018-09-27T13:12:58Z</time>
      </trkpt>
      <trkpt lat="44.88628" lon="5.52877">
        <ele>1723.3</ele>
        <time>2018-09-27T13:13:13Z</time>
      </trkpt>
      <trkpt lat="44.88636" lon="5.52862">
        <ele>1721.38</ele>
        <time>2018-09-27T13:13:28Z</time>
      </trkpt>
      <trkpt lat="44.88647" lon="5.52848">
        <ele>1719.94</ele>
        <time>2018-09-27T13:13:43Z</time>
      </trkpt>
      <trkpt lat="44.88659" lon="5.52836">
        <ele>1718.01</ele>
        <time>2018-09-27T13:13:57Z</time>
      </trkpt>
      <trkpt lat="44.88664" lon="5.52833">
        <ele>1718.01</ele>
        <time>2018-09-27T13:14:02Z</time>
      </trkpt>
      <trkpt lat="44.88673" lon="5.52825">
        <ele>1716.57</ele>
        <time>2018-09-27T13:14:12Z</time>
      </trkpt>
      <trkpt lat="44.88677" lon="5.52819">
        <ele>1716.09</ele>
        <time>2018-09-27T13:14:18Z</time>
      </trkpt>
      <trkpt lat="44.88689" lon="5.52817">
        <ele>1715.61</ele>
        <time>2018-09-27T13:14:27Z</time>
      </trkpt>
      <trkpt lat="44.88711" lon="5.52816">
        <ele>1713.21</ele>
        <time>2018-09-27T13:14:45Z</time>
      </trkpt>
      <trkpt lat="44.88724" lon="5.52812">
        <ele>1712.25</ele>
        <time>2018-09-27T13:14:57Z</time>
      </trkpt>
      <trkpt lat="44.88732" lon="5.52809">
        <ele>1710.8</ele>
        <time>2018-09-27T13:15:05Z</time>
      </trkpt>
      <trkpt lat="44.88754" lon="5.52813">
        <ele>1707.92</ele>
        <time>2018-09-27T13:15:23Z</time>
      </trkpt>
      <trkpt lat="44.88771" lon="5.52813">
        <ele>1706</ele>
        <time>2018-09-27T13:15:40Z</time>
      </trkpt>
      <trkpt lat="44.88774" lon="5.52811">
        <ele>1705.04</ele>
        <time>2018-09-27T13:15:43Z</time>
      </trkpt>
      <trkpt lat="44.8879" lon="5.52804">
        <ele>1703.11</ele>
        <time>2018-09-27T13:15:59Z</time>
      </trkpt>
      <trkpt lat="44.88807" lon="5.52807">
        <ele>1701.67</ele>
        <time>2018-09-27T13:16:14Z</time>
      </trkpt>
      <trkpt lat="44.88823" lon="5.52817">
        <ele>1699.75</ele>
        <time>2018-09-27T13:16:31Z</time>
      </trkpt>
      <trkpt lat="44.88826" lon="5.52816">
        <ele>1699.27</ele>
        <time>2018-09-27T13:16:35Z</time>
      </trkpt>
      <trkpt lat="44.88834" lon="5.52808">
        <ele>1698.79</ele>
        <time>2018-09-27T13:16:49Z</time>
      </trkpt>
      <trkpt lat="44.88838" lon="5.52806">
        <ele>1698.31</ele>
        <time>2018-09-27T13:16:56Z</time>
      </trkpt>
      <trkpt lat="44.88848" lon="5.52802">
        <ele>1696.38</ele>
        <time>2018-09-27T13:17:09Z</time>
      </trkpt>
      <trkpt lat="44.8886" lon="5.52795">
        <ele>1694.94</ele>
        <time>2018-09-27T13:17:23Z</time>
      </trkpt>
      <trkpt lat="44.88874" lon="5.52788">
        <ele>1692.54</ele>
        <time>2018-09-27T13:17:38Z</time>
      </trkpt>
      <trkpt lat="44.88885" lon="5.52787">
        <ele>1691.58</ele>
        <time>2018-09-27T13:17:58Z</time>
      </trkpt>
      <trkpt lat="44.889" lon="5.52779">
        <ele>1690.62</ele>
        <time>2018-09-27T13:18:13Z</time>
      </trkpt>
      <trkpt lat="44.88904" lon="5.52779">
        <ele>1690.62</ele>
        <time>2018-09-27T13:18:18Z</time>
      </trkpt>
      <trkpt lat="44.88919" lon="5.52781">
        <ele>1689.17</ele>
        <time>2018-09-27T13:18:34Z</time>
      </trkpt>
      <trkpt lat="44.88927" lon="5.52781">
        <ele>1688.21</ele>
        <time>2018-09-27T13:18:49Z</time>
      </trkpt>
      <trkpt lat="44.88928" lon="5.52777">
        <ele>1687.25</ele>
        <time>2018-09-27T13:19:15Z</time>
      </trkpt>
      <trkpt lat="44.88935" lon="5.52775">
        <ele>1686.29</ele>
        <time>2018-09-27T13:19:29Z</time>
      </trkpt>
      <trkpt lat="44.88937" lon="5.52773">
        <ele>1685.81</ele>
        <time>2018-09-27T13:19:31Z</time>
      </trkpt>
      <trkpt lat="44.88945" lon="5.52765">
        <ele>1685.33</ele>
        <time>2018-09-27T13:19:46Z</time>
      </trkpt>
      <trkpt lat="44.88946" lon="5.52766">
        <ele>1685.33</ele>
        <time>2018-09-27T13:19:47Z</time>
      </trkpt>
      <trkpt lat="44.88954" lon="5.52783">
        <ele>1686.29</ele>
        <time>2018-09-27T13:20:01Z</time>
      </trkpt>
      <trkpt lat="44.88962" lon="5.52794">
        <ele>1684.37</ele>
        <time>2018-09-27T13:20:14Z</time>
      </trkpt>
      <trkpt lat="44.88963" lon="5.52795">
        <ele>1684.37</ele>
        <time>2018-09-27T13:20:16Z</time>
      </trkpt>
      <trkpt lat="44.88966" lon="5.52795">
        <ele>1684.37</ele>
        <time>2018-09-27T13:20:19Z</time>
      </trkpt>
      <trkpt lat="44.88978" lon="5.52812">
        <ele>1683.89</ele>
        <time>2018-09-27T13:20:34Z</time>
      </trkpt>
      <trkpt lat="44.88983" lon="5.52824">
        <ele>1682.93</ele>
        <time>2018-09-27T13:20:41Z</time>
      </trkpt>
      <trkpt lat="44.88984" lon="5.5283">
        <ele>1683.41</ele>
        <time>2018-09-27T13:20:44Z</time>
      </trkpt>
      <trkpt lat="44.8899" lon="5.52841">
        <ele>1681.96</ele>
        <time>2018-09-27T13:20:56Z</time>
      </trkpt>
      <trkpt lat="44.88992" lon="5.52841">
        <ele>1681.96</ele>
        <time>2018-09-27T13:20:58Z</time>
      </trkpt>
      <trkpt lat="44.88996" lon="5.52837">
        <ele>1683.41</ele>
        <time>2018-09-27T13:21:03Z</time>
      </trkpt>
      <trkpt lat="44.89006" lon="5.52836">
        <ele>1685.81</ele>
        <time>2018-09-27T13:21:17Z</time>
      </trkpt>
      <trkpt lat="44.89025" lon="5.52833">
        <ele>1686.29</ele>
        <time>2018-09-27T13:21:35Z</time>
      </trkpt>
      <trkpt lat="44.89028" lon="5.52832">
        <ele>1686.29</ele>
        <time>2018-09-27T13:21:38Z</time>
      </trkpt>
      <trkpt lat="44.89047" lon="5.52829">
        <ele>1686.29</ele>
        <time>2018-09-27T13:21:55Z</time>
      </trkpt>
      <trkpt lat="44.89062" lon="5.52825">
        <ele>1686.29</ele>
        <time>2018-09-27T13:22:09Z</time>
      </trkpt>
      <trkpt lat="44.8908" lon="5.52816">
        <ele>1685.81</ele>
        <time>2018-09-27T13:22:26Z</time>
      </trkpt>
      <trkpt lat="44.89089" lon="5.52808">
        <ele>1686.29</ele>
        <time>2018-09-27T13:22:38Z</time>
      </trkpt>
      <trkpt lat="44.89094" lon="5.52807">
        <ele>1686.29</ele>
        <time>2018-09-27T13:22:56Z</time>
      </trkpt>
      <trkpt lat="44.89098" lon="5.52805">
        <ele>1684.85</ele>
        <time>2018-09-27T13:23:18Z</time>
      </trkpt>
      <trkpt lat="44.89104" lon="5.52801">
        <ele>1683.41</ele>
        <time>2018-09-27T13:23:35Z</time>
      </trkpt>
      <trkpt lat="44.89105" lon="5.52804">
        <ele>1683.41</ele>
        <time>2018-09-27T13:23:58Z</time>
      </trkpt>
      <trkpt lat="44.89112" lon="5.52799">
        <ele>1681.48</ele>
        <time>2018-09-27T13:24:15Z</time>
      </trkpt>
      <trkpt lat="44.89113" lon="5.52801">
        <ele>1681.48</ele>
        <time>2018-09-27T13:24:32Z</time>
      </trkpt>
      <trkpt lat="44.89112" lon="5.52798">
        <ele>1681</ele>
        <time>2018-09-27T13:24:55Z</time>
      </trkpt>
      <trkpt lat="44.89112" lon="5.52798">
        <ele>1681</ele>
        <time>2018-09-27T13:24:56Z</time>
      </trkpt>
      <trkpt lat="44.8911" lon="5.52799">
        <ele>1682.44</ele>
        <time>2018-09-27T13:24:59Z</time>
      </trkpt>
      <trkpt lat="44.8911" lon="5.5279">
        <ele>1685.81</ele>
        <time>2018-09-27T13:25:11Z</time>
      </trkpt>
      <trkpt lat="44.89112" lon="5.52782">
        <ele>1686.29</ele>
        <time>2018-09-27T13:25:18Z</time>
      </trkpt>
      <trkpt lat="44.89117" lon="5.5277">
        <ele>1686.77</ele>
        <time>2018-09-27T13:25:33Z</time>
      </trkpt>
      <trkpt lat="44.8912" lon="5.52763">
        <ele>1686.29</ele>
        <time>2018-09-27T13:25:52Z</time>
      </trkpt>
      <trkpt lat="44.89128" lon="5.52744">
        <ele>1686.77</ele>
        <time>2018-09-27T13:26:06Z</time>
      </trkpt>
      <trkpt lat="44.89141" lon="5.52727">
        <ele>1686.77</ele>
        <time>2018-09-27T13:26:22Z</time>
      </trkpt>
      <trkpt lat="44.89147" lon="5.52718">
        <ele>1685.33</ele>
        <time>2018-09-27T13:26:30Z</time>
      </trkpt>
      <trkpt lat="44.89152" lon="5.52709">
        <ele>1686.77</ele>
        <time>2018-09-27T13:26:38Z</time>
      </trkpt>
      <trkpt lat="44.89165" lon="5.52691">
        <ele>1685.81</ele>
        <time>2018-09-27T13:26:55Z</time>
      </trkpt>
      <trkpt lat="44.89173" lon="5.52684">
        <ele>1685.81</ele>
        <time>2018-09-27T13:27:06Z</time>
      </trkpt>
      <trkpt lat="44.89185" lon="5.52678">
        <ele>1685.33</ele>
        <time>2018-09-27T13:27:19Z</time>
      </trkpt>
      <trkpt lat="44.89191" lon="5.52675">
        <ele>1685.33</ele>
        <time>2018-09-27T13:27:25Z</time>
      </trkpt>
      <trkpt lat="44.89206" lon="5.52668">
        <ele>1684.37</ele>
        <time>2018-09-27T13:27:41Z</time>
      </trkpt>
      <trkpt lat="44.8922" lon="5.52662">
        <ele>1683.89</ele>
        <time>2018-09-27T13:27:56Z</time>
      </trkpt>
      <trkpt lat="44.89232" lon="5.52654">
        <ele>1683.41</ele>
        <time>2018-09-27T13:28:11Z</time>
      </trkpt>
      <trkpt lat="44.89244" lon="5.52644">
        <ele>1683.41</ele>
        <time>2018-09-27T13:28:24Z</time>
      </trkpt>
      <trkpt lat="44.89257" lon="5.52634">
        <ele>1683.41</ele>
        <time>2018-09-27T13:28:38Z</time>
      </trkpt>
      <trkpt lat="44.89273" lon="5.52626">
        <ele>1683.41</ele>
        <time>2018-09-27T13:28:54Z</time>
      </trkpt>
      <trkpt lat="44.89287" lon="5.5262">
        <ele>1682.93</ele>
        <time>2018-09-27T13:29:08Z</time>
      </trkpt>
      <trkpt lat="44.89301" lon="5.52617">
        <ele>1682.44</ele>
        <time>2018-09-27T13:29:24Z</time>
      </trkpt>
      <trkpt lat="44.8931" lon="5.52613">
        <ele>1682.44</ele>
        <time>2018-09-27T13:29:34Z</time>
      </trkpt>
      <trkpt lat="44.89325" lon="5.52607">
        <ele>1682.44</ele>
        <time>2018-09-27T13:29:50Z</time>
      </trkpt>
      <trkpt lat="44.89329" lon="5.52607">
        <ele>1682.44</ele>
        <time>2018-09-27T13:29:55Z</time>
      </trkpt>
      <trkpt lat="44.89332" lon="5.52605">
        <ele>1682.44</ele>
        <time>2018-09-27T13:29:58Z</time>
      </trkpt>
      <trkpt lat="44.89346" lon="5.52599">
        <ele>1682.44</ele>
        <time>2018-09-27T13:30:13Z</time>
      </trkpt>
      <trkpt lat="44.8935" lon="5.52598">
        <ele>1682.44</ele>
        <time>2018-09-27T13:30:17Z</time>
      </trkpt>
      <trkpt lat="44.89363" lon="5.52598">
        <ele>1683.41</ele>
        <time>2018-09-27T13:30:30Z</time>
      </trkpt>
      <trkpt lat="44.89379" lon="5.52602">
        <ele>1683.41</ele>
        <time>2018-09-27T13:30:46Z</time>
      </trkpt>
      <trkpt lat="44.89395" lon="5.52603">
        <ele>1683.89</ele>
        <time>2018-09-27T13:31:01Z</time>
      </trkpt>
      <trkpt lat="44.89411" lon="5.52608">
        <ele>1683.89</ele>
        <time>2018-09-27T13:31:14Z</time>
      </trkpt>
      <trkpt lat="44.89427" lon="5.52626">
        <ele>1683.41</ele>
        <time>2018-09-27T13:31:30Z</time>
      </trkpt>
      <trkpt lat="44.89429" lon="5.5263">
        <ele>1681.96</ele>
        <time>2018-09-27T13:31:34Z</time>
      </trkpt>
      <trkpt lat="44.89438" lon="5.5264">
        <ele>1678.6</ele>
        <time>2018-09-27T13:31:48Z</time>
      </trkpt>
      <trkpt lat="44.89444" lon="5.52643">
        <ele>1677.16</ele>
        <time>2018-09-27T13:31:54Z</time>
      </trkpt>
      <trkpt lat="44.89443" lon="5.52649">
        <ele>1677.16</ele>
        <time>2018-09-27T13:32:07Z</time>
      </trkpt>
      <trkpt lat="44.89445" lon="5.52651">
        <ele>1677.64</ele>
        <time>2018-09-27T13:32:27Z</time>
      </trkpt>
      <trkpt lat="44.89443" lon="5.52652">
        <ele>1677.64</ele>
        <time>2018-09-27T13:32:55Z</time>
      </trkpt>
      <trkpt lat="44.89444" lon="5.52656">
        <ele>1677.64</ele>
        <time>2018-09-27T13:33:25Z</time>
      </trkpt>
      <trkpt lat="44.89445" lon="5.52659">
        <ele>1677.64</ele>
        <time>2018-09-27T13:33:56Z</time>
      </trkpt>
      <trkpt lat="44.89443" lon="5.52661">
        <ele>1677.16</ele>
        <time>2018-09-27T13:34:30Z</time>
      </trkpt>
      <trkpt lat="44.89441" lon="5.52661">
        <ele>1677.16</ele>
        <time>2018-09-27T13:35:03Z</time>
      </trkpt>
      <trkpt lat="44.8944" lon="5.52657">
        <ele>1677.16</ele>
        <time>2018-09-27T13:35:24Z</time>
      </trkpt>
      <trkpt lat="44.89439" lon="5.52655">
        <ele>1677.16</ele>
        <time>2018-09-27T13:35:53Z</time>
      </trkpt>
      <trkpt lat="44.89438" lon="5.52656">
        <ele>1676.68</ele>
        <time>2018-09-27T13:36:06Z</time>
      </trkpt>
      <trkpt lat="44.8944" lon="5.52656">
        <ele>1676.68</ele>
        <time>2018-09-27T13:36:30Z</time>
      </trkpt>
      <trkpt lat="44.8944" lon="5.52658">
        <ele>1676.68</ele>
        <time>2018-09-27T13:36:55Z</time>
      </trkpt>
      <trkpt lat="44.8944" lon="5.52661">
        <ele>1676.68</ele>
        <time>2018-09-27T13:37:30Z</time>
      </trkpt>
      <trkpt lat="44.89441" lon="5.52662">
        <ele>1676.2</ele>
        <time>2018-09-27T13:37:55Z</time>
      </trkpt>
      <trkpt lat="44.89439" lon="5.52661">
        <ele>1676.2</ele>
        <time>2018-09-27T13:38:18Z</time>
      </trkpt>
      <trkpt lat="44.89438" lon="5.52659">
        <ele>1676.2</ele>
        <time>2018-09-27T13:38:43Z</time>
      </trkpt>
      <trkpt lat="44.89435" lon="5.52663">
        <ele>1674.75</ele>
        <time>2018-09-27T13:39:03Z</time>
      </trkpt>
      <trkpt lat="44.89421" lon="5.52665">
        <ele>1672.83</ele>
        <time>2018-09-27T13:39:21Z</time>
      </trkpt>
      <trkpt lat="44.89409" lon="5.52668">
        <ele>1668.99</ele>
        <time>2018-09-27T13:39:34Z</time>
      </trkpt>
      <trkpt lat="44.89408" lon="5.52669">
        <ele>1668.51</ele>
        <time>2018-09-27T13:39:36Z</time>
      </trkpt>
      <trkpt lat="44.89398" lon="5.52675">
        <ele>1666.1</ele>
        <time>2018-09-27T13:39:48Z</time>
      </trkpt>
      <trkpt lat="44.89389" lon="5.52679">
        <ele>1662.74</ele>
        <time>2018-09-27T13:39:59Z</time>
      </trkpt>
      <trkpt lat="44.89386" lon="5.52686">
        <ele>1659.37</ele>
        <time>2018-09-27T13:40:09Z</time>
      </trkpt>
      <trkpt lat="44.89384" lon="5.52696">
        <ele>1656.97</ele>
        <time>2018-09-27T13:40:21Z</time>
      </trkpt>
      <trkpt lat="44.89381" lon="5.52707">
        <ele>1653.6</ele>
        <time>2018-09-27T13:40:31Z</time>
      </trkpt>
      <trkpt lat="44.89376" lon="5.52721">
        <ele>1650.24</ele>
        <time>2018-09-27T13:40:44Z</time>
      </trkpt>
      <trkpt lat="44.89372" lon="5.52736">
        <ele>1646.88</ele>
        <time>2018-09-27T13:40:58Z</time>
      </trkpt>
      <trkpt lat="44.89371" lon="5.52749">
        <ele>1643.03</ele>
        <time>2018-09-27T13:41:11Z</time>
      </trkpt>
      <trkpt lat="44.89372" lon="5.5276">
        <ele>1640.15</ele>
        <time>2018-09-27T13:41:23Z</time>
      </trkpt>
      <trkpt lat="44.89374" lon="5.52771">
        <ele>1637.74</ele>
        <time>2018-09-27T13:41:32Z</time>
      </trkpt>
      <trkpt lat="44.89377" lon="5.52787">
        <ele>1634.38</ele>
        <time>2018-09-27T13:41:46Z</time>
      </trkpt>
      <trkpt lat="44.89382" lon="5.52799">
        <ele>1632.46</ele>
        <time>2018-09-27T13:41:58Z</time>
      </trkpt>
      <trkpt lat="44.89387" lon="5.52813">
        <ele>1629.09</ele>
        <time>2018-09-27T13:42:12Z</time>
      </trkpt>
      <trkpt lat="44.89398" lon="5.52832">
        <ele>1626.69</ele>
        <time>2018-09-27T13:42:30Z</time>
      </trkpt>
      <trkpt lat="44.89408" lon="5.52845">
        <ele>1623.32</ele>
        <time>2018-09-27T13:42:46Z</time>
      </trkpt>
      <trkpt lat="44.89419" lon="5.52856">
        <ele>1619.96</ele>
        <time>2018-09-27T13:42:59Z</time>
      </trkpt>
      <trkpt lat="44.89428" lon="5.5286">
        <ele>1618.04</ele>
        <time>2018-09-27T13:43:11Z</time>
      </trkpt>
      <trkpt lat="44.8944" lon="5.52869">
        <ele>1615.63</ele>
        <time>2018-09-27T13:43:25Z</time>
      </trkpt>
      <trkpt lat="44.89433" lon="5.5289">
        <ele>1612.27</ele>
        <time>2018-09-27T13:43:41Z</time>
      </trkpt>
      <trkpt lat="44.89422" lon="5.52905">
        <ele>1608.9</ele>
        <time>2018-09-27T13:43:58Z</time>
      </trkpt>
      <trkpt lat="44.89416" lon="5.52911">
        <ele>1607.46</ele>
        <time>2018-09-27T13:44:05Z</time>
      </trkpt>
      <trkpt lat="44.89397" lon="5.52918">
        <ele>1603.62</ele>
        <time>2018-09-27T13:44:24Z</time>
      </trkpt>
      <trkpt lat="44.8938" lon="5.52925">
        <ele>1600.25</ele>
        <time>2018-09-27T13:44:42Z</time>
      </trkpt>
      <trkpt lat="44.89365" lon="5.52932">
        <ele>1596.89</ele>
        <time>2018-09-27T13:44:58Z</time>
      </trkpt>
      <trkpt lat="44.89358" lon="5.52933">
        <ele>1596.41</ele>
        <time>2018-09-27T13:45:05Z</time>
      </trkpt>
      <trkpt lat="44.89347" lon="5.52939">
        <ele>1594</ele>
        <time>2018-09-27T13:45:15Z</time>
      </trkpt>
      <trkpt lat="44.89343" lon="5.52941">
        <ele>1593.52</ele>
        <time>2018-09-27T13:45:19Z</time>
      </trkpt>
      <trkpt lat="44.89326" lon="5.52952">
        <ele>1591.6</ele>
        <time>2018-09-27T13:45:37Z</time>
      </trkpt>
      <trkpt lat="44.89308" lon="5.5296">
        <ele>1587.75</ele>
        <time>2018-09-27T13:45:54Z</time>
      </trkpt>
      <trkpt lat="44.89292" lon="5.5297">
        <ele>1585.35</ele>
        <time>2018-09-27T13:46:11Z</time>
      </trkpt>
      <trkpt lat="44.8928" lon="5.52981">
        <ele>1582.47</ele>
        <time>2018-09-27T13:46:27Z</time>
      </trkpt>
      <trkpt lat="44.89274" lon="5.52988">
        <ele>1581.03</ele>
        <time>2018-09-27T13:46:45Z</time>
      </trkpt>
      <trkpt lat="44.89267" lon="5.52999">
        <ele>1579.58</ele>
        <time>2018-09-27T13:47:00Z</time>
      </trkpt>
      <trkpt lat="44.89257" lon="5.53019">
        <ele>1576.22</ele>
        <time>2018-09-27T13:47:17Z</time>
      </trkpt>
      <trkpt lat="44.89255" lon="5.53044">
        <ele>1572.85</ele>
        <time>2018-09-27T13:47:35Z</time>
      </trkpt>
      <trkpt lat="44.89254" lon="5.53066">
        <ele>1569.97</ele>
        <time>2018-09-27T13:47:52Z</time>
      </trkpt>
      <trkpt lat="44.89251" lon="5.53082">
        <ele>1567.09</ele>
        <time>2018-09-27T13:48:04Z</time>
      </trkpt>
      <trkpt lat="44.8925" lon="5.53098">
        <ele>1564.2</ele>
        <time>2018-09-27T13:48:14Z</time>
      </trkpt>
      <trkpt lat="44.89251" lon="5.53115">
        <ele>1560.84</ele>
        <time>2018-09-27T13:48:28Z</time>
      </trkpt>
      <trkpt lat="44.89253" lon="5.53124">
        <ele>1559.4</ele>
        <time>2018-09-27T13:48:44Z</time>
      </trkpt>
      <trkpt lat="44.89254" lon="5.53124">
        <ele>1558.43</ele>
        <time>2018-09-27T13:49:10Z</time>
      </trkpt>
      <trkpt lat="44.89253" lon="5.53123">
        <ele>1559.88</ele>
        <time>2018-09-27T13:49:13Z</time>
      </trkpt>
      <trkpt lat="44.89252" lon="5.53127">
        <ele>1559.88</ele>
        <time>2018-09-27T13:49:39Z</time>
      </trkpt>
      <trkpt lat="44.89252" lon="5.53125">
        <ele>1559.88</ele>
        <time>2018-09-27T13:49:56Z</time>
      </trkpt>
      <trkpt lat="44.89252" lon="5.53132">
        <ele>1557.47</ele>
        <time>2018-09-27T13:50:05Z</time>
      </trkpt>
      <trkpt lat="44.8925" lon="5.53139">
        <ele>1556.03</ele>
        <time>2018-09-27T13:50:20Z</time>
      </trkpt>
      <trkpt lat="44.89252" lon="5.53152">
        <ele>1553.15</ele>
        <time>2018-09-27T13:50:38Z</time>
      </trkpt>
      <trkpt lat="44.89257" lon="5.53164">
        <ele>1550.26</ele>
        <time>2018-09-27T13:50:50Z</time>
      </trkpt>
      <trkpt lat="44.89257" lon="5.53176">
        <ele>1547.86</ele>
        <time>2018-09-27T13:51:04Z</time>
      </trkpt>
      <trkpt lat="44.89261" lon="5.53191">
        <ele>1544.5</ele>
        <time>2018-09-27T13:51:19Z</time>
      </trkpt>
      <trkpt lat="44.89262" lon="5.532">
        <ele>1542.57</ele>
        <time>2018-09-27T13:51:26Z</time>
      </trkpt>
      <trkpt lat="44.89264" lon="5.53218">
        <ele>1538.73</ele>
        <time>2018-09-27T13:51:41Z</time>
      </trkpt>
      <trkpt lat="44.89266" lon="5.53236">
        <ele>1535.36</ele>
        <time>2018-09-27T13:51:56Z</time>
      </trkpt>
      <trkpt lat="44.89269" lon="5.53243">
        <ele>1533.92</ele>
        <time>2018-09-27T13:52:03Z</time>
      </trkpt>
      <trkpt lat="44.89274" lon="5.53262">
        <ele>1530.08</ele>
        <time>2018-09-27T13:52:20Z</time>
      </trkpt>
      <trkpt lat="44.89268" lon="5.53273">
        <ele>1528.15</ele>
        <time>2018-09-27T13:52:37Z</time>
      </trkpt>
      <trkpt lat="44.89265" lon="5.53274">
        <ele>1528.15</ele>
        <time>2018-09-27T13:52:53Z</time>
      </trkpt>
      <trkpt lat="44.89262" lon="5.53272">
        <ele>1528.15</ele>
        <time>2018-09-27T13:52:56Z</time>
      </trkpt>
      <trkpt lat="44.89247" lon="5.53256">
        <ele>1525.75</ele>
        <time>2018-09-27T13:53:14Z</time>
      </trkpt>
      <trkpt lat="44.89242" lon="5.53258">
        <ele>1523.83</ele>
        <time>2018-09-27T13:53:22Z</time>
      </trkpt>
      <trkpt lat="44.89241" lon="5.53263">
        <ele>1522.39</ele>
        <time>2018-09-27T13:53:28Z</time>
      </trkpt>
      <trkpt lat="44.89241" lon="5.53278">
        <ele>1519.5</ele>
        <time>2018-09-27T13:53:43Z</time>
      </trkpt>
      <trkpt lat="44.89243" lon="5.53286">
        <ele>1516.62</ele>
        <time>2018-09-27T13:53:49Z</time>
      </trkpt>
      <trkpt lat="44.89244" lon="5.53288">
        <ele>1516.14</ele>
        <time>2018-09-27T13:53:51Z</time>
      </trkpt>
      <trkpt lat="44.89244" lon="5.53296">
        <ele>1512.77</ele>
        <time>2018-09-27T13:54:00Z</time>
      </trkpt>
      <trkpt lat="44.89244" lon="5.53303">
        <ele>1511.33</ele>
        <time>2018-09-27T13:54:11Z</time>
      </trkpt>
      <trkpt lat="44.89242" lon="5.53308">
        <ele>1509.41</ele>
        <time>2018-09-27T13:54:15Z</time>
      </trkpt>
      <trkpt lat="44.89243" lon="5.53311">
        <ele>1508.93</ele>
        <time>2018-09-27T13:54:17Z</time>
      </trkpt>
      <trkpt lat="44.89241" lon="5.53319">
        <ele>1505.08</ele>
        <time>2018-09-27T13:54:26Z</time>
      </trkpt>
      <trkpt lat="44.89241" lon="5.53321">
        <ele>1504.6</ele>
        <time>2018-09-27T13:54:28Z</time>
      </trkpt>
      <trkpt lat="44.89242" lon="5.53327">
        <ele>1501.72</ele>
        <time>2018-09-27T13:54:35Z</time>
      </trkpt>
      <trkpt lat="44.89241" lon="5.53337">
        <ele>1497.87</ele>
        <time>2018-09-27T13:54:45Z</time>
      </trkpt>
      <trkpt lat="44.89242" lon="5.53337">
        <ele>1497.39</ele>
        <time>2018-09-27T13:54:58Z</time>
      </trkpt>
      <trkpt lat="44.89239" lon="5.5334">
        <ele>1496.91</ele>
        <time>2018-09-27T13:55:26Z</time>
      </trkpt>
      <trkpt lat="44.8924" lon="5.53346">
        <ele>1495.47</ele>
        <time>2018-09-27T13:55:57Z</time>
      </trkpt>
      <trkpt lat="44.89241" lon="5.53355">
        <ele>1492.58</ele>
        <time>2018-09-27T13:56:07Z</time>
      </trkpt>
      <trkpt lat="44.89242" lon="5.53358">
        <ele>1491.14</ele>
        <time>2018-09-27T13:56:11Z</time>
      </trkpt>
      <trkpt lat="44.89242" lon="5.53368">
        <ele>1487.3</ele>
        <time>2018-09-27T13:56:22Z</time>
      </trkpt>
      <trkpt lat="44.89244" lon="5.53375">
        <ele>1483.93</ele>
        <time>2018-09-27T13:56:33Z</time>
      </trkpt>
      <trkpt lat="44.89247" lon="5.53384">
        <ele>1481.05</ele>
        <time>2018-09-27T13:56:46Z</time>
      </trkpt>
      <trkpt lat="44.89246" lon="5.53393">
        <ele>1478.16</ele>
        <time>2018-09-27T13:56:54Z</time>
      </trkpt>
      <trkpt lat="44.89245" lon="5.53406">
        <ele>1475.28</ele>
        <time>2018-09-27T13:57:05Z</time>
      </trkpt>
      <trkpt lat="44.89246" lon="5.53418">
        <ele>1472.88</ele>
        <time>2018-09-27T13:57:15Z</time>
      </trkpt>
      <trkpt lat="44.89244" lon="5.53428">
        <ele>1470.95</ele>
        <time>2018-09-27T13:57:30Z</time>
      </trkpt>
      <trkpt lat="44.89242" lon="5.53447">
        <ele>1467.59</ele>
        <time>2018-09-27T13:57:44Z</time>
      </trkpt>
      <trkpt lat="44.89241" lon="5.53455">
        <ele>1466.15</ele>
        <time>2018-09-27T13:57:58Z</time>
      </trkpt>
      <trkpt lat="44.8924" lon="5.53472">
        <ele>1462.78</ele>
        <time>2018-09-27T13:58:12Z</time>
      </trkpt>
      <trkpt lat="44.89244" lon="5.53483">
        <ele>1459.9</ele>
        <time>2018-09-27T13:58:25Z</time>
      </trkpt>
      <trkpt lat="44.89245" lon="5.53485">
        <ele>1459.42</ele>
        <time>2018-09-27T13:58:29Z</time>
      </trkpt>
      <trkpt lat="44.89246" lon="5.53492">
        <ele>1458.94</ele>
        <time>2018-09-27T13:58:44Z</time>
      </trkpt>
      <trkpt lat="44.89247" lon="5.535">
        <ele>1457.02</ele>
        <time>2018-09-27T13:58:54Z</time>
      </trkpt>
      <trkpt lat="44.8925" lon="5.53514">
        <ele>1453.17</ele>
        <time>2018-09-27T13:59:06Z</time>
      </trkpt>
      <trkpt lat="44.89255" lon="5.53534">
        <ele>1449.81</ele>
        <time>2018-09-27T13:59:22Z</time>
      </trkpt>
      <trkpt lat="44.89261" lon="5.53552">
        <ele>1445.96</ele>
        <time>2018-09-27T13:59:36Z</time>
      </trkpt>
      <trkpt lat="44.89261" lon="5.53553">
        <ele>1445.96</ele>
        <time>2018-09-27T13:59:37Z</time>
      </trkpt>
      <trkpt lat="44.89266" lon="5.53565">
        <ele>1443.08</ele>
        <time>2018-09-27T13:59:48Z</time>
      </trkpt>
      <trkpt lat="44.89269" lon="5.53581">
        <ele>1439.71</ele>
        <time>2018-09-27T14:00:01Z</time>
      </trkpt>
      <trkpt lat="44.89272" lon="5.53598">
        <ele>1436.83</ele>
        <time>2018-09-27T14:00:14Z</time>
      </trkpt>
      <trkpt lat="44.89276" lon="5.53615">
        <ele>1433.46</ele>
        <time>2018-09-27T14:00:29Z</time>
      </trkpt>
      <trkpt lat="44.89278" lon="5.5362">
        <ele>1432.98</ele>
        <time>2018-09-27T14:00:34Z</time>
      </trkpt>
      <trkpt lat="44.89286" lon="5.53635">
        <ele>1429.14</ele>
        <time>2018-09-27T14:00:49Z</time>
      </trkpt>
      <trkpt lat="44.89288" lon="5.53644">
        <ele>1427.7</ele>
        <time>2018-09-27T14:00:57Z</time>
      </trkpt>
      <trkpt lat="44.89292" lon="5.53664">
        <ele>1424.33</ele>
        <time>2018-09-27T14:01:09Z</time>
      </trkpt>
      <trkpt lat="44.89292" lon="5.53668">
        <ele>1423.37</ele>
        <time>2018-09-27T14:01:11Z</time>
      </trkpt>
      <trkpt lat="44.89294" lon="5.53684">
        <ele>1420</ele>
        <time>2018-09-27T14:01:19Z</time>
      </trkpt>
      <trkpt lat="44.89299" lon="5.537">
        <ele>1417.12</ele>
        <time>2018-09-27T14:01:30Z</time>
      </trkpt>
      <trkpt lat="44.89306" lon="5.53708">
        <ele>1414.72</ele>
        <time>2018-09-27T14:01:42Z</time>
      </trkpt>
      <trkpt lat="44.89317" lon="5.53723">
        <ele>1410.87</ele>
        <time>2018-09-27T14:01:58Z</time>
      </trkpt>
      <trkpt lat="44.8932" lon="5.53731">
        <ele>1409.43</ele>
        <time>2018-09-27T14:02:04Z</time>
      </trkpt>
      <trkpt lat="44.89328" lon="5.53751">
        <ele>1405.58</ele>
        <time>2018-09-27T14:02:19Z</time>
      </trkpt>
      <trkpt lat="44.89337" lon="5.53768">
        <ele>1402.22</ele>
        <time>2018-09-27T14:02:34Z</time>
      </trkpt>
      <trkpt lat="44.89346" lon="5.53786">
        <ele>1398.86</ele>
        <time>2018-09-27T14:02:50Z</time>
      </trkpt>
      <trkpt lat="44.89359" lon="5.53804">
        <ele>1395.97</ele>
        <time>2018-09-27T14:03:08Z</time>
      </trkpt>
      <trkpt lat="44.8937" lon="5.53813">
        <ele>1395.01</ele>
        <time>2018-09-27T14:03:24Z</time>
      </trkpt>
      <trkpt lat="44.89384" lon="5.5382">
        <ele>1392.61</ele>
        <time>2018-09-27T14:03:40Z</time>
      </trkpt>
      <trkpt lat="44.89391" lon="5.53826">
        <ele>1390.68</ele>
        <time>2018-09-27T14:03:57Z</time>
      </trkpt>
      <trkpt lat="44.894" lon="5.53833">
        <ele>1388.28</ele>
        <time>2018-09-27T14:04:14Z</time>
      </trkpt>
      <trkpt lat="44.89405" lon="5.53846">
        <ele>1385.4</ele>
        <time>2018-09-27T14:04:28Z</time>
      </trkpt>
      <trkpt lat="44.89407" lon="5.53861">
        <ele>1382.03</ele>
        <time>2018-09-27T14:04:37Z</time>
      </trkpt>
      <trkpt lat="44.89409" lon="5.53876">
        <ele>1378.19</ele>
        <time>2018-09-27T14:04:46Z</time>
      </trkpt>
      <trkpt lat="44.89414" lon="5.53883">
        <ele>1376.26</ele>
        <time>2018-09-27T14:05:00Z</time>
      </trkpt>
      <trkpt lat="44.89417" lon="5.53885">
        <ele>1375.78</ele>
        <time>2018-09-27T14:05:04Z</time>
      </trkpt>
      <trkpt lat="44.89433" lon="5.53889">
        <ele>1371.94</ele>
        <time>2018-09-27T14:05:21Z</time>
      </trkpt>
      <trkpt lat="44.89449" lon="5.53893">
        <ele>1369.54</ele>
        <time>2018-09-27T14:05:37Z</time>
      </trkpt>
      <trkpt lat="44.89465" lon="5.53897">
        <ele>1369.05</ele>
        <time>2018-09-27T14:05:52Z</time>
      </trkpt>
      <trkpt lat="44.89482" lon="5.53918">
        <ele>1368.57</ele>
        <time>2018-09-27T14:06:11Z</time>
      </trkpt>
      <trkpt lat="44.89484" lon="5.53922">
        <ele>1370.02</ele>
        <time>2018-09-27T14:06:13Z</time>
      </trkpt>
      <trkpt lat="44.89488" lon="5.53933">
        <ele>1368.57</ele>
        <time>2018-09-27T14:06:20Z</time>
      </trkpt>
      <trkpt lat="44.89493" lon="5.53951">
        <ele>1366.17</ele>
        <time>2018-09-27T14:06:34Z</time>
      </trkpt>
      <trkpt lat="44.89499" lon="5.53966">
        <ele>1362.81</ele>
        <time>2018-09-27T14:06:46Z</time>
      </trkpt>
      <trkpt lat="44.89499" lon="5.53967">
        <ele>1362.81</ele>
        <time>2018-09-27T14:06:47Z</time>
      </trkpt>
      <trkpt lat="44.89502" lon="5.53981">
        <ele>1361.84</ele>
        <time>2018-09-27T14:07:00Z</time>
      </trkpt>
      <trkpt lat="44.89513" lon="5.54007">
        <ele>1359.44</ele>
        <time>2018-09-27T14:07:20Z</time>
      </trkpt>
      <trkpt lat="44.89513" lon="5.54017">
        <ele>1357.04</ele>
        <time>2018-09-27T14:07:33Z</time>
      </trkpt>
      <trkpt lat="44.8951" lon="5.54018">
        <ele>1357.04</ele>
        <time>2018-09-27T14:07:58Z</time>
      </trkpt>
      <trkpt lat="44.8951" lon="5.54019">
        <ele>1356.56</ele>
        <time>2018-09-27T14:08:25Z</time>
      </trkpt>
      <trkpt lat="44.89509" lon="5.54018">
        <ele>1356.08</ele>
        <time>2018-09-27T14:08:47Z</time>
      </trkpt>
      <trkpt lat="44.89512" lon="5.54017">
        <ele>1357.52</ele>
        <time>2018-09-27T14:09:17Z</time>
      </trkpt>
      <trkpt lat="44.89518" lon="5.54015">
        <ele>1357.04</ele>
        <time>2018-09-27T14:09:43Z</time>
      </trkpt>
      <trkpt lat="44.89518" lon="5.54017">
        <ele>1357.04</ele>
        <time>2018-09-27T14:09:56Z</time>
      </trkpt>
      <trkpt lat="44.89517" lon="5.54019">
        <ele>1357.04</ele>
        <time>2018-09-27T14:10:15Z</time>
      </trkpt>
      <trkpt lat="44.89518" lon="5.54022">
        <ele>1355.6</ele>
        <time>2018-09-27T14:10:29Z</time>
      </trkpt>
      <trkpt lat="44.89517" lon="5.54029">
        <ele>1355.12</ele>
        <time>2018-09-27T14:10:55Z</time>
      </trkpt>
      <trkpt lat="44.89519" lon="5.54033">
        <ele>1355.12</ele>
        <time>2018-09-27T14:10:59Z</time>
      </trkpt>
      <trkpt lat="44.89529" lon="5.54054">
        <ele>1351.75</ele>
        <time>2018-09-27T14:11:14Z</time>
      </trkpt>
      <trkpt lat="44.8954" lon="5.54077">
        <ele>1349.83</ele>
        <time>2018-09-27T14:11:28Z</time>
      </trkpt>
      <trkpt lat="44.89549" lon="5.541">
        <ele>1346.94</ele>
        <time>2018-09-27T14:11:42Z</time>
      </trkpt>
      <trkpt lat="44.89551" lon="5.54114">
        <ele>1345.98</ele>
        <time>2018-09-27T14:11:55Z</time>
      </trkpt>
      <trkpt lat="44.89556" lon="5.54126">
        <ele>1343.58</ele>
        <time>2018-09-27T14:12:03Z</time>
      </trkpt>
      <trkpt lat="44.89563" lon="5.5415">
        <ele>1340.22</ele>
        <time>2018-09-27T14:12:16Z</time>
      </trkpt>
      <trkpt lat="44.89571" lon="5.54181">
        <ele>1337.81</ele>
        <time>2018-09-27T14:12:34Z</time>
      </trkpt>
      <trkpt lat="44.89573" lon="5.54215">
        <ele>1335.89</ele>
        <time>2018-09-27T14:12:51Z</time>
      </trkpt>
      <trkpt lat="44.89571" lon="5.54242">
        <ele>1333.97</ele>
        <time>2018-09-27T14:13:06Z</time>
      </trkpt>
      <trkpt lat="44.89574" lon="5.54268">
        <ele>1335.41</ele>
        <time>2018-09-27T14:13:23Z</time>
      </trkpt>
      <trkpt lat="44.89578" lon="5.54297">
        <ele>1338.29</ele>
        <time>2018-09-27T14:13:41Z</time>
      </trkpt>
      <trkpt lat="44.8958" lon="5.543">
        <ele>1338.29</ele>
        <time>2018-09-27T14:13:44Z</time>
      </trkpt>
      <trkpt lat="44.89585" lon="5.54305">
        <ele>1339.73</ele>
        <time>2018-09-27T14:13:53Z</time>
      </trkpt>
      <trkpt lat="44.89595" lon="5.54304">
        <ele>1340.7</ele>
        <time>2018-09-27T14:14:05Z</time>
      </trkpt>
      <trkpt lat="44.896" lon="5.54301">
        <ele>1340.7</ele>
        <time>2018-09-27T14:14:09Z</time>
      </trkpt>
      <trkpt lat="44.89619" lon="5.54284">
        <ele>1342.14</ele>
        <time>2018-09-27T14:14:28Z</time>
      </trkpt>
      <trkpt lat="44.89637" lon="5.54271">
        <ele>1342.14</ele>
        <time>2018-09-27T14:14:44Z</time>
      </trkpt>
      <trkpt lat="44.89645" lon="5.54268">
        <ele>1342.14</ele>
        <time>2018-09-27T14:14:51Z</time>
      </trkpt>
      <trkpt lat="44.89662" lon="5.5429">
        <ele>1339.73</ele>
        <time>2018-09-27T14:15:08Z</time>
      </trkpt>
      <trkpt lat="44.89665" lon="5.54297">
        <ele>1338.77</ele>
        <time>2018-09-27T14:15:12Z</time>
      </trkpt>
      <trkpt lat="44.89681" lon="5.54319">
        <ele>1335.89</ele>
        <time>2018-09-27T14:15:30Z</time>
      </trkpt>
      <trkpt lat="44.89698" lon="5.54342">
        <ele>1333.01</ele>
        <time>2018-09-27T14:15:49Z</time>
      </trkpt>
      <trkpt lat="44.89717" lon="5.54363">
        <ele>1331.08</ele>
        <time>2018-09-27T14:16:09Z</time>
      </trkpt>
      <trkpt lat="44.89731" lon="5.54374">
        <ele>1328.2</ele>
        <time>2018-09-27T14:16:22Z</time>
      </trkpt>
      <trkpt lat="44.89732" lon="5.54376">
        <ele>1328.2</ele>
        <time>2018-09-27T14:16:23Z</time>
      </trkpt>
      <trkpt lat="44.89749" lon="5.54391">
        <ele>1325.8</ele>
        <time>2018-09-27T14:16:40Z</time>
      </trkpt>
      <trkpt lat="44.89763" lon="5.54402">
        <ele>1322.43</ele>
        <time>2018-09-27T14:16:52Z</time>
      </trkpt>
      <trkpt lat="44.89783" lon="5.54419">
        <ele>1319.55</ele>
        <time>2018-09-27T14:17:10Z</time>
      </trkpt>
      <trkpt lat="44.89798" lon="5.54435">
        <ele>1317.14</ele>
        <time>2018-09-27T14:17:26Z</time>
      </trkpt>
      <trkpt lat="44.89802" lon="5.54438">
        <ele>1315.7</ele>
        <time>2018-09-27T14:17:30Z</time>
      </trkpt>
      <trkpt lat="44.89815" lon="5.54451">
        <ele>1311.86</ele>
        <time>2018-09-27T14:17:43Z</time>
      </trkpt>
      <trkpt lat="44.89825" lon="5.54465">
        <ele>1308.97</ele>
        <time>2018-09-27T14:17:55Z</time>
      </trkpt>
      <trkpt lat="44.89833" lon="5.54474">
        <ele>1306.09</ele>
        <time>2018-09-27T14:18:04Z</time>
      </trkpt>
      <trkpt lat="44.89843" lon="5.54492">
        <ele>1303.69</ele>
        <time>2018-09-27T14:18:18Z</time>
      </trkpt>
      <trkpt lat="44.89855" lon="5.54509">
        <ele>1300.8</ele>
        <time>2018-09-27T14:18:32Z</time>
      </trkpt>
      <trkpt lat="44.89859" lon="5.54516">
        <ele>1299.36</ele>
        <time>2018-09-27T14:18:37Z</time>
      </trkpt>
      <trkpt lat="44.89873" lon="5.54536">
        <ele>1296.96</ele>
        <time>2018-09-27T14:18:54Z</time>
      </trkpt>
      <trkpt lat="44.8989" lon="5.54549">
        <ele>1294.55</ele>
        <time>2018-09-27T14:19:11Z</time>
      </trkpt>
      <trkpt lat="44.89911" lon="5.54555">
        <ele>1291.19</ele>
        <time>2018-09-27T14:19:28Z</time>
      </trkpt>
      <trkpt lat="44.89929" lon="5.54555">
        <ele>1290.23</ele>
        <time>2018-09-27T14:19:41Z</time>
      </trkpt>
      <trkpt lat="44.89932" lon="5.54555">
        <ele>1290.23</ele>
        <time>2018-09-27T14:19:43Z</time>
      </trkpt>
      <trkpt lat="44.89953" lon="5.54558">
        <ele>1287.34</ele>
        <time>2018-09-27T14:19:58Z</time>
      </trkpt>
      <trkpt lat="44.89973" lon="5.54573">
        <ele>1284.46</ele>
        <time>2018-09-27T14:20:14Z</time>
      </trkpt>
      <trkpt lat="44.89999" lon="5.54594">
        <ele>1282.54</ele>
        <time>2018-09-27T14:20:33Z</time>
      </trkpt>
      <trkpt lat="44.90022" lon="5.54616">
        <ele>1281.57</ele>
        <time>2018-09-27T14:20:51Z</time>
      </trkpt>
      <trkpt lat="44.90042" lon="5.5463">
        <ele>1281.09</ele>
        <time>2018-09-27T14:21:09Z</time>
      </trkpt>
      <trkpt lat="44.90062" lon="5.54638">
        <ele>1281.09</ele>
        <time>2018-09-27T14:21:24Z</time>
      </trkpt>
      <trkpt lat="44.90089" lon="5.54653">
        <ele>1280.13</ele>
        <time>2018-09-27T14:21:43Z</time>
      </trkpt>
      <trkpt lat="44.90111" lon="5.54672">
        <ele>1279.17</ele>
        <time>2018-09-27T14:22:00Z</time>
      </trkpt>
      <trkpt lat="44.90135" lon="5.54705">
        <ele>1277.73</ele>
        <time>2018-09-27T14:22:20Z</time>
      </trkpt>
      <trkpt lat="44.90152" lon="5.54741">
        <ele>1276.29</ele>
        <time>2018-09-27T14:22:40Z</time>
      </trkpt>
      <trkpt lat="44.90169" lon="5.54779">
        <ele>1274.85</ele>
        <time>2018-09-27T14:23:02Z</time>
      </trkpt>
      <trkpt lat="44.9018" lon="5.5481">
        <ele>1273.4</ele>
        <time>2018-09-27T14:23:19Z</time>
      </trkpt>
      <trkpt lat="44.90198" lon="5.54843">
        <ele>1270.52</ele>
        <time>2018-09-27T14:23:38Z</time>
      </trkpt>
      <trkpt lat="44.90213" lon="5.54869">
        <ele>1269.56</ele>
        <time>2018-09-27T14:23:55Z</time>
      </trkpt>
      <trkpt lat="44.90228" lon="5.54897">
        <ele>1268.12</ele>
        <time>2018-09-27T14:24:12Z</time>
      </trkpt>
      <trkpt lat="44.90244" lon="5.54928">
        <ele>1267.64</ele>
        <time>2018-09-27T14:24:31Z</time>
      </trkpt>
      <trkpt lat="44.90262" lon="5.54952">
        <ele>1265.71</ele>
        <time>2018-09-27T14:24:49Z</time>
      </trkpt>
      <trkpt lat="44.90277" lon="5.54958">
        <ele>1264.27</ele>
        <time>2018-09-27T14:25:03Z</time>
      </trkpt>
      <trkpt lat="44.90292" lon="5.54965">
        <ele>1262.35</ele>
        <time>2018-09-27T14:25:16Z</time>
      </trkpt>
      <trkpt lat="44.90313" lon="5.54974">
        <ele>1258.98</ele>
        <time>2018-09-27T14:25:31Z</time>
      </trkpt>
      <trkpt lat="44.90332" lon="5.54985">
        <ele>1256.1</ele>
        <time>2018-09-27T14:25:46Z</time>
      </trkpt>
      <trkpt lat="44.9035" lon="5.54994">
        <ele>1252.74</ele>
        <time>2018-09-27T14:26:01Z</time>
      </trkpt>
      <trkpt lat="44.90356" lon="5.54998">
        <ele>1250.81</ele>
        <time>2018-09-27T14:26:06Z</time>
      </trkpt>
      <trkpt lat="44.90363" lon="5.55002">
        <ele>1248.41</ele>
        <time>2018-09-27T14:26:14Z</time>
      </trkpt>
      <trkpt lat="44.90369" lon="5.54984">
        <ele>1245.04</ele>
        <time>2018-09-27T14:26:24Z</time>
      </trkpt>
      <trkpt lat="44.90372" lon="5.5497">
        <ele>1243.12</ele>
        <time>2018-09-27T14:26:33Z</time>
      </trkpt>
      <trkpt lat="44.90372" lon="5.54962">
        <ele>1242.16</ele>
        <time>2018-09-27T14:26:39Z</time>
      </trkpt>
      <trkpt lat="44.90374" lon="5.54956">
        <ele>1240.72</ele>
        <time>2018-09-27T14:26:45Z</time>
      </trkpt>
      <trkpt lat="44.90375" lon="5.54956">
        <ele>1239.76</ele>
        <time>2018-09-27T14:26:49Z</time>
      </trkpt>
      <trkpt lat="44.90375" lon="5.54922">
        <ele>1239.76</ele>
        <time>2018-09-27T14:27:06Z</time>
      </trkpt>
      <trkpt lat="44.90377" lon="5.54901">
        <ele>1243.12</ele>
        <time>2018-09-27T14:27:18Z</time>
      </trkpt>
      <trkpt lat="44.90386" lon="5.54876">
        <ele>1246.49</ele>
        <time>2018-09-27T14:27:32Z</time>
      </trkpt>
      <trkpt lat="44.904" lon="5.54855">
        <ele>1249.37</ele>
        <time>2018-09-27T14:27:48Z</time>
      </trkpt>
      <trkpt lat="44.90413" lon="5.54836">
        <ele>1251.29</ele>
        <time>2018-09-27T14:28:03Z</time>
      </trkpt>
      <trkpt lat="44.90427" lon="5.54812">
        <ele>1253.22</ele>
        <time>2018-09-27T14:28:20Z</time>
      </trkpt>
      <trkpt lat="44.90437" lon="5.54785">
        <ele>1254.18</ele>
        <time>2018-09-27T14:28:37Z</time>
      </trkpt>
      <trkpt lat="44.90442" lon="5.54781">
        <ele>1254.18</ele>
        <time>2018-09-27T14:28:48Z</time>
      </trkpt>
      <trkpt lat="44.90449" lon="5.5478">
        <ele>1254.18</ele>
        <time>2018-09-27T14:28:55Z</time>
      </trkpt>
      <trkpt lat="44.90464" lon="5.54758">
        <ele>1252.74</ele>
        <time>2018-09-27T14:29:13Z</time>
      </trkpt>
      <trkpt lat="44.9048" lon="5.54759">
        <ele>1249.37</ele>
        <time>2018-09-27T14:29:25Z</time>
      </trkpt>
      <trkpt lat="44.90482" lon="5.5476">
        <ele>1249.37</ele>
        <time>2018-09-27T14:29:26Z</time>
      </trkpt>
      <trkpt lat="44.90502" lon="5.54776">
        <ele>1246.49</ele>
        <time>2018-09-27T14:29:42Z</time>
      </trkpt>
      <trkpt lat="44.9053" lon="5.54788">
        <ele>1245.04</ele>
        <time>2018-09-27T14:30:01Z</time>
      </trkpt>
      <trkpt lat="44.90555" lon="5.54796">
        <ele>1242.64</ele>
        <time>2018-09-27T14:30:19Z</time>
      </trkpt>
      <trkpt lat="44.90582" lon="5.54803">
        <ele>1241.2</ele>
        <time>2018-09-27T14:30:38Z</time>
      </trkpt>
      <trkpt lat="44.90601" lon="5.54812">
        <ele>1238.8</ele>
        <time>2018-09-27T14:30:54Z</time>
      </trkpt>
      <trkpt lat="44.90617" lon="5.54808">
        <ele>1236.39</ele>
        <time>2018-09-27T14:31:10Z</time>
      </trkpt>
      <trkpt lat="44.9062" lon="5.54808">
        <ele>1235.43</ele>
        <time>2018-09-27T14:31:13Z</time>
      </trkpt>
      <trkpt lat="44.90635" lon="5.54807">
        <ele>1234.95</ele>
        <time>2018-09-27T14:31:26Z</time>
      </trkpt>
      <trkpt lat="44.90656" lon="5.54816">
        <ele>1233.99</ele>
        <time>2018-09-27T14:31:41Z</time>
      </trkpt>
      <trkpt lat="44.90678" lon="5.54835">
        <ele>1233.51</ele>
        <time>2018-09-27T14:31:57Z</time>
      </trkpt>
      <trkpt lat="44.90692" lon="5.54856">
        <ele>1232.07</ele>
        <time>2018-09-27T14:32:12Z</time>
      </trkpt>
      <trkpt lat="44.90706" lon="5.54883">
        <ele>1230.14</ele>
        <time>2018-09-27T14:32:28Z</time>
      </trkpt>
      <trkpt lat="44.90719" lon="5.54914">
        <ele>1229.18</ele>
        <time>2018-09-27T14:32:47Z</time>
      </trkpt>
      <trkpt lat="44.9073" lon="5.54943">
        <ele>1228.7</ele>
        <time>2018-09-27T14:33:03Z</time>
      </trkpt>
      <trkpt lat="44.90743" lon="5.5498">
        <ele>1226.3</ele>
        <time>2018-09-27T14:33:24Z</time>
      </trkpt>
      <trkpt lat="44.90755" lon="5.55008">
        <ele>1225.34</ele>
        <time>2018-09-27T14:33:39Z</time>
      </trkpt>
      <trkpt lat="44.90765" lon="5.55046">
        <ele>1223.9</ele>
        <time>2018-09-27T14:34:00Z</time>
      </trkpt>
      <trkpt lat="44.9077" lon="5.55081">
        <ele>1222.93</ele>
        <time>2018-09-27T14:34:18Z</time>
      </trkpt>
      <trkpt lat="44.90774" lon="5.55112">
        <ele>1221.97</ele>
        <time>2018-09-27T14:34:34Z</time>
      </trkpt>
      <trkpt lat="44.90783" lon="5.55148">
        <ele>1221.01</ele>
        <time>2018-09-27T14:34:53Z</time>
      </trkpt>
      <trkpt lat="44.90797" lon="5.55179">
        <ele>1219.57</ele>
        <time>2018-09-27T14:35:13Z</time>
      </trkpt>
      <trkpt lat="44.90807" lon="5.55204">
        <ele>1219.09</ele>
        <time>2018-09-27T14:35:29Z</time>
      </trkpt>
      <trkpt lat="44.9082" lon="5.55228">
        <ele>1217.65</ele>
        <time>2018-09-27T14:35:45Z</time>
      </trkpt>
      <trkpt lat="44.90834" lon="5.55258">
        <ele>1217.17</ele>
        <time>2018-09-27T14:36:03Z</time>
      </trkpt>
      <trkpt lat="44.90847" lon="5.5528">
        <ele>1216.69</ele>
        <time>2018-09-27T14:36:20Z</time>
      </trkpt>
      <trkpt lat="44.90861" lon="5.55284">
        <ele>1219.57</ele>
        <time>2018-09-27T14:36:36Z</time>
      </trkpt>
      <trkpt lat="44.90879" lon="5.55286">
        <ele>1221.97</ele>
        <time>2018-09-27T14:36:48Z</time>
      </trkpt>
      <trkpt lat="44.90892" lon="5.55286">
        <ele>1223.42</ele>
        <time>2018-09-27T14:36:58Z</time>
      </trkpt>
      <trkpt lat="44.90914" lon="5.55283">
        <ele>1225.82</ele>
        <time>2018-09-27T14:37:15Z</time>
      </trkpt>
      <trkpt lat="44.90936" lon="5.5527">
        <ele>1226.78</ele>
        <time>2018-09-27T14:37:32Z</time>
      </trkpt>
      <trkpt lat="44.90954" lon="5.55251">
        <ele>1229.18</ele>
        <time>2018-09-27T14:37:49Z</time>
      </trkpt>
      <trkpt lat="44.90971" lon="5.5523">
        <ele>1229.66</ele>
        <time>2018-09-27T14:38:06Z</time>
      </trkpt>
      <trkpt lat="44.90982" lon="5.55216">
        <ele>1230.14</ele>
        <time>2018-09-27T14:38:20Z</time>
      </trkpt>
      <trkpt lat="44.90988" lon="5.55207">
        <ele>1231.11</ele>
        <time>2018-09-27T14:38:27Z</time>
      </trkpt>
      <trkpt lat="44.9099" lon="5.55206">
        <ele>1231.11</ele>
        <time>2018-09-27T14:38:29Z</time>
      </trkpt>
      <trkpt lat="44.90992" lon="5.55206">
        <ele>1229.66</ele>
        <time>2018-09-27T14:38:31Z</time>
      </trkpt>
      <trkpt lat="44.90997" lon="5.55201">
        <ele>1231.11</ele>
        <time>2018-09-27T14:38:37Z</time>
      </trkpt>
      <trkpt lat="44.91013" lon="5.55181">
        <ele>1230.62</ele>
        <time>2018-09-27T14:38:54Z</time>
      </trkpt>
      <trkpt lat="44.91032" lon="5.55161">
        <ele>1230.62</ele>
        <time>2018-09-27T14:39:12Z</time>
      </trkpt>
      <trkpt lat="44.91051" lon="5.55143">
        <ele>1230.62</ele>
        <time>2018-09-27T14:39:29Z</time>
      </trkpt>
      <trkpt lat="44.9106" lon="5.55134">
        <ele>1229.18</ele>
        <time>2018-09-27T14:39:37Z</time>
      </trkpt>
      <trkpt lat="44.91078" lon="5.55116">
        <ele>1226.3</ele>
        <time>2018-09-27T14:39:55Z</time>
      </trkpt>
      <trkpt lat="44.91083" lon="5.5511">
        <ele>1224.86</ele>
        <time>2018-09-27T14:40:01Z</time>
      </trkpt>
      <trkpt lat="44.91096" lon="5.55096">
        <ele>1223.42</ele>
        <time>2018-09-27T14:40:17Z</time>
      </trkpt>
      <trkpt lat="44.911" lon="5.55093">
        <ele>1222.93</ele>
        <time>2018-09-27T14:40:26Z</time>
      </trkpt>
      <trkpt lat="44.9111" lon="5.55091">
        <ele>1221.01</ele>
        <time>2018-09-27T14:40:43Z</time>
      </trkpt>
      <trkpt lat="44.91113" lon="5.55091">
        <ele>1221.01</ele>
        <time>2018-09-27T14:41:00Z</time>
      </trkpt>
      <trkpt lat="44.91114" lon="5.55092">
        <ele>1221.49</ele>
        <time>2018-09-27T14:41:08Z</time>
      </trkpt>
    </trkseg>
  </trk>
</gpx>